ECMWFNIL_sfc_thetae_000.txt.gz
Theta_e
287 287 286 285 285 285 284 284 284 283 282 282 281 282 281 281 282 281 281 280 280 279 279 279 280 279 281 280 280 280 280 279 280 279 279 279 279 278 279 278 278 278
287 286 286 286 285 285 284 284 283 283 282 282 281 281 281 281 281 280 280 279 280 279 279 279 279 279 279 279 278 278 278 278 278 281 279 279 278 278 278 278 278 279
286 286 285 284 284 284 283 283 283 282 281 280 280 280 280 280 280 279 279 279 278 279 279 278 278 278 278 278 278 278 278 278 278 278 279 278 278 278 278 278 278 278
285 285 284 284 283 283 283 282 281 281 280 280 279 280 280 280 279 279 278 279 278 278 278 278 278 278 278 278 278 278 278 278 278 278 278 278 278 278 278 278 279 278
284 283 283 283 282 282 282 281 280 280 280 279 279 279 279 279 278 278 278 278 278 277 278 278 278 277 278 277 277 277 277 277 278 278 278 277 278 278 279 279 278 278
283 283 283 282 282 281 281 280 280 279 279 279 279 279 278 278 278 277 277 277 277 277 277 277 277 277 277 276 276 276 276 276 276 276 276 276 277 277 278 278 277 277
282 282 282 281 281 281 280 280 279 280 279 279 279 278 278 278 277 277 277 277 277 277 276 276 276 276 276 276 275 275 275 275 275 275 275 275 275 275 276 276 275 275
282 281 281 281 280 280 279 279 279 279 279 279 278 278 278 277 277 277 277 276 276 276 276 275 275 275 275 275 275 274 274 275 274 274 273 273 273 273 273 274 274 273
281 280 280 280 279 279 279 279 279 279 279 278 278 278 277 277 277 277 276 276 275 275 275 275 275 275 275 274 274 274 273 273 273 272 272 271 271 271 271 272 271 271
280 280 279 279 279 279 278 278 279 279 279 278 278 277 277 277 276 276 276 275 275 275 275 274 274 274 274 273 273 272 272 272 271 271 271 271 270 270 271 271 271 270
280 279 279 279 279 278 278 278 278 278 278 277 277 277 277 276 276 276 275 275 275 274 274 274 273 273 273 272 272 271 271 271 270 270 270 270 270 270 271 271 270 270
279 279 279 278 278 278 278 278 278 278 277 277 277 276 276 276 276 275 275 274 274 273 273 272 272 272 271 271 270 270 270 270 270 270 269 269 270 270 270 270 270 270
279 279 279 278 278 278 278 278 277 277 277 276 276 276 275 274 274 274 273 273 272 272 271 271 271 270 270 270 270 270 270 270 269 269 269 269 270 270 270 270 270 270
279 279 278 278 278 278 278 277 277 276 276 275 275 274 273 273 272 272 271 271 271 270 270 270 270 270 269 269 270 270 270 269 269 269 269 269 270 270 271 271 271 271
279 279 278 278 278 277 277 276 276 275 274 274 273 272 272 271 271 271 270 271 271 270 270 271 270 270 270 270 269 269 269 268 269 269 269 270 270 270 271 271 271 271
279 278 278 278 277 276 275 275 274 273 272 271 271 270 270 271 270 270 270 270 270 270 270 270 270 270 271 273 273 269 269 270 270 270 270 270 270 270 271 271 271 271
278 277 277 276 276 275 274 273 272 271 270 269 269 269 269 269 269 269 269 270 270 269 270 270 270 270 273 275 275 276 273 272 271 271 271 271 271 271 271 271 272 272
277 276 275 275 274 273 272 271 270 269 269 268 268 268 268 268 268 269 269 269 269 269 270 270 270 272 274 275 275 276 276 273 273 272 272 272 272 271 271 271 271 272
276 275 274 273 272 271 270 270 269 269 268 267 267 268 268 268 268 268 268 269 269 269 269 270 270 272 274 275 275 276 276 275 273 273 272 272 272 272 272 271 271 271
274 274 273 272 270 269 269 268 268 267 267 268 268 268 268 268 268 268 269 269 269 269 269 269 269 271 274 275 275 275 276 276 274 273 273 273 272 272 271 271 271 271
273 272 271 270 269 268 267 267 267 267 267 267 267 268 267 267 267 268 268 269 269 269 269 269 269 272 273 274 275 275 276 276 274 273 272 272 271 272 272 272 272 272
272 270 269 268 267 267 267 267 266 267 267 267 267 267 268 268 268 268 268 268 268 268 267 267 268 271 273 274 274 275 276 274 273 272 271 271 271 272 272 272 273 273
271 269 268 267 267 267 266 266 266 266 267 267 267 267 267 267 267 268 268 267 267 267 267 267 267 269 272 273 273 275 275 273 272 272 272 271 271 272 272 273 273 273
270 269 268 267 266 266 266 266 266 267 267 267 267 267 266 267 267 267 267 267 267 266 267 266 266 268 271 272 274 274 274 273 272 271 271 271 272 272 273 273 274 276
269 269 268 267 266 266 267 266 266 266 267 267 267 267 267 267 267 266 266 267 267 267 268 267 266 268 271 272 273 274 274 273 272 271 271 271 272 272 273 273 274 275
270 269 268 267 267 266 266 266 266 266 266 266 266 266 266 266 266 266 265 265 266 266 266 267 267 267 269 272 273 274 274 273 272 271 270 271 272 272 272 273 273 272

ECMWFNIL_sfc_thetae_003.txt.gz
Theta_e
287 286 286 286 286 286 285 284 284 284 283 283 283 282 282 282 282 282 281 281 280 280 279 279 279 279 280 279 279 279 279 278 278 278 278 278 278 277 279 278 278 278
286 286 286 286 285 285 285 285 284 284 283 283 282 282 282 281 281 281 280 280 280 279 279 279 279 279 279 279 278 278 278 278 277 280 278 278 278 278 278 278 278 278
286 286 286 285 285 284 284 284 284 283 283 282 282 281 281 281 281 280 280 280 279 278 278 278 278 278 278 278 278 278 278 277 277 277 278 277 278 278 278 278 278 277
286 286 285 285 285 284 284 283 283 282 282 281 281 281 281 281 280 279 279 280 278 278 278 278 278 278 278 278 278 278 277 277 277 277 277 277 278 278 278 278 278 277
285 285 285 285 284 284 283 283 282 282 281 281 280 280 280 280 279 279 278 278 278 278 278 278 278 278 278 278 278 277 277 277 277 277 277 277 277 277 278 278 277 277
284 285 284 284 283 283 282 282 282 281 281 280 280 280 280 279 279 278 278 277 277 277 277 277 277 277 277 277 277 277 276 277 276 276 276 276 276 277 278 277 276 276
284 284 283 283 282 282 282 282 281 281 281 280 280 280 279 279 278 278 278 277 277 277 277 277 277 277 277 277 276 276 276 275 275 275 275 275 275 275 275 275 274 274
283 283 282 282 282 281 282 281 281 281 280 279 279 279 279 278 278 278 277 277 277 277 277 277 277 276 276 276 276 275 275 275 275 274 274 273 273 273 273 274 273 273
282 282 281 281 281 281 281 280 280 280 280 279 279 278 278 278 278 277 277 277 277 276 276 276 276 276 275 275 275 274 274 273 274 273 272 272 272 272 272 272 272 272
281 281 280 280 280 280 280 279 279 279 279 279 278 278 278 277 278 277 277 277 276 276 276 275 275 275 275 274 274 274 273 273 273 272 272 272 271 271 271 271 271 270
281 281 280 280 280 280 279 279 278 278 278 278 278 277 277 277 277 277 277 276 276 275 275 275 275 274 274 273 273 273 273 273 272 272 272 272 271 271 272 271 270 270
281 280 280 280 280 279 279 278 278 278 278 278 278 277 277 277 276 276 276 276 275 275 275 274 274 273 273 273 272 272 272 272 272 272 271 271 271 271 270 270 270 270
281 281 280 280 280 279 279 278 278 278 278 277 277 277 276 276 276 275 275 275 274 274 274 273 273 273 272 272 272 272 272 271 271 271 271 270 270 270 270 270 270 270
281 281 280 280 279 278 278 278 278 278 277 277 277 276 276 275 275 274 274 274 273 273 273 272 272 271 271 271 271 271 271 271 271 270 270 270 270 270 270 270 270 271
281 280 280 279 278 278 278 278 277 277 277 276 276 275 275 275 274 273 273 272 272 272 271 271 271 271 271 271 270 270 271 270 270 270 270 270 270 270 270 270 271 271
280 279 279 278 278 277 277 277 277 276 275 275 275 274 273 273 272 272 272 271 271 270 270 271 271 271 273 275 274 271 270 270 270 270 270 270 270 270 270 271 271 272
279 279 278 278 278 277 277 276 276 275 274 274 272 271 271 272 272 271 271 271 271 270 270 270 270 271 275 276 277 276 271 270 270 270 270 270 270 270 270 271 272 272
279 278 277 277 277 277 276 275 274 273 273 272 271 271 271 271 271 271 271 271 271 271 270 270 270 273 276 277 278 278 275 271 271 270 271 271 271 271 272 272 272 272
278 277 277 276 276 276 275 273 273 273 272 271 271 272 271 271 271 270 270 270 270 270 270 270 270 275 277 278 278 278 279 275 272 272 272 272 272 272 272 272 272 272
277 277 277 276 275 274 273 272 272 272 271 271 271 270 270 270 270 270 270 270 270 270 270 270 270 275 277 278 278 278 279 278 275 274 273 273 273 273 273 272 272 271
277 276 276 275 274 273 272 272 272 271 270 270 269 269 269 269 269 269 269 270 270 270 270 270 270 275 277 278 278 278 278 278 275 274 274 274 273 272 272 272 272 272
277 276 275 274 273 272 271 272 271 270 269 269 269 269 269 269 269 269 269 269 270 270 270 269 270 275 276 277 277 278 278 276 275 274 272 272 271 272 272 272 272 272
277 275 274 272 272 271 271 271 270 269 269 269 268 269 268 268 268 268 269 269 269 269 269 268 269 274 276 276 276 277 277 274 273 272 272 271 272 272 272 272 272 272
276 275 273 272 271 271 270 270 270 269 269 269 268 267 267 267 267 267 268 269 269 268 269 268 268 272 275 275 276 276 276 273 272 272 271 271 271 272 273 273 273 275
275 274 273 271 271 271 270 269 269 268 268 268 268 267 267 267 267 267 267 268 268 268 270 268 267 270 274 274 275 276 275 273 272 271 271 271 271 271 272 273 273 275
274 273 272 271 271 270 270 269 269 267 267 267 267 267 267 266 266 266 266 266 267 267 269 268 267 267 270 274 275 276 276 273 272 271 270 270 271 271 271 273 273 273

ECMWFNIL_sfc_thetae_006.txt.gz
Theta_e
288 287 287 286 286 286 286 285 285 285 285 285 284 284 284 284 283 283 282 282 281 281 280 280 280 280 280 279 279 279 279 278 278 278 278 278 277 277 278 277 277 277
288 287 287 287 286 286 286 286 285 285 285 285 284 284 284 283 283 283 282 281 281 280 280 280 280 280 279 279 279 279 278 278 278 279 278 278 277 277 277 277 277 276
287 287 287 286 286 286 285 285 285 285 285 284 284 283 283 283 282 282 282 281 280 280 280 280 279 279 279 279 279 279 278 278 278 278 278 277 277 277 277 277 277 277
287 287 286 286 286 285 285 284 284 284 283 283 283 283 283 283 282 282 281 281 280 280 279 279 279 279 279 278 278 278 278 278 278 278 278 278 278 277 277 277 277 277
287 286 286 286 285 285 284 284 283 283 283 283 282 282 282 281 281 281 280 280 280 279 279 279 279 279 279 278 278 278 277 277 277 277 277 277 277 277 277 277 276 276
286 286 286 285 285 284 283 283 283 283 282 281 281 281 281 281 281 280 280 279 279 279 278 278 278 278 278 278 278 278 277 277 277 277 277 276 276 277 278 277 276 275
285 285 285 285 284 283 283 283 283 283 282 282 281 281 281 280 280 280 280 279 279 278 278 278 278 278 278 278 278 277 277 277 276 276 276 276 276 275 276 275 275 274
285 284 284 284 283 282 283 282 282 282 282 280 280 280 280 280 280 280 279 279 278 278 278 278 278 278 278 278 277 277 276 276 276 275 275 274 274 273 274 274 273 272
285 283 283 283 283 282 282 282 282 281 281 280 280 280 280 280 280 279 279 278 278 278 278 278 278 278 278 277 277 276 275 275 275 275 274 273 273 272 272 272 271 271
284 283 282 282 282 283 282 282 281 281 281 280 280 280 279 279 279 279 278 278 278 277 277 277 277 277 276 276 276 276 275 275 274 274 273 273 273 272 272 271 271 271
283 283 282 282 282 282 282 281 281 280 280 280 280 279 279 279 278 278 278 278 277 277 276 276 276 276 276 275 275 275 274 274 273 273 273 272 272 272 273 271 271 270
283 282 282 282 282 282 282 281 280 280 280 280 279 279 278 278 278 277 278 277 277 276 276 276 276 275 275 275 274 274 274 273 273 272 272 272 272 272 272 272 271 271
283 283 283 282 282 282 282 281 280 280 280 279 279 279 278 277 277 277 277 277 276 276 276 275 275 275 274 274 274 273 273 273 273 272 272 272 271 271 271 271 271 270
283 283 283 283 282 282 281 280 280 280 280 279 279 278 278 277 277 277 276 276 276 276 275 275 275 274 274 273 273 273 273 273 272 271 271 270 270 270 270 270 270 270
284 283 282 282 281 281 280 280 280 279 279 279 278 278 278 278 277 277 276 275 275 275 274 274 274 274 274 274 273 273 272 272 271 271 270 270 269 269 269 270 270 270
283 282 282 281 281 280 280 280 279 279 279 278 278 278 277 277 276 276 275 275 274 274 274 274 274 274 276 278 277 273 271 271 270 270 270 270 269 269 269 270 270 271
282 281 281 280 281 280 280 279 279 278 278 277 277 276 276 276 276 275 274 274 274 273 273 273 273 274 278 280 279 278 273 271 270 269 269 270 270 269 269 270 271 271
282 281 280 280 280 280 279 278 278 277 277 276 276 275 275 275 274 274 274 274 273 273 273 273 273 276 280 281 280 279 276 271 270 270 270 270 270 270 271 271 271 272
281 280 280 279 279 279 278 277 277 276 276 275 275 275 274 273 274 274 273 273 273 272 272 272 272 278 281 282 281 280 278 273 270 270 270 270 271 271 271 271 272 272
280 280 280 279 279 278 277 277 276 276 276 276 275 274 274 274 273 273 273 273 272 272 272 272 271 277 281 282 281 281 279 275 270 270 271 271 271 272 272 272 273 272
280 280 279 279 278 278 277 276 276 276 276 275 275 274 274 274 273 273 272 272 272 271 271 271 270 278 281 282 282 282 280 275 271 271 272 272 273 273 273 273 273 273
280 279 279 278 278 277 276 276 276 276 275 275 274 274 274 274 273 273 272 271 271 271 270 269 270 278 281 282 282 282 282 274 273 273 273 273 273 274 274 273 273 272
280 279 279 278 277 277 276 276 276 275 275 274 274 274 273 273 272 272 271 271 270 270 269 269 269 277 282 282 282 282 281 275 274 274 273 273 273 273 273 272 272 272
280 279 279 278 277 276 276 276 276 275 275 274 273 273 272 272 271 270 270 270 270 269 270 269 269 276 281 282 282 282 280 275 274 273 272 272 272 272 272 272 272 274
279 279 279 277 276 276 275 275 275 274 274 273 273 272 272 271 270 269 268 268 269 269 272 270 269 275 281 281 281 282 279 274 274 272 271 271 271 272 272 272 272 274
279 279 278 277 276 276 275 275 274 272 271 271 270 270 269 269 268 268 267 268 268 268 270 269 269 272 277 281 281 281 280 274 273 272 271 271 271 271 270 271 272 272

ECMWFNIL_sfc_thetae_009.txt.gz
Theta_e
289 289 288 287 287 288 287 286 286 286 286 286 286 285 285 285 284 284 283 283 282 282 281 281 281 281 281 281 280 280 280 280 279 279 279 279 278 278 278 278 278 278
288 288 288 288 287 287 287 287 286 287 286 286 286 285 285 284 284 284 283 282 282 282 281 281 281 281 280 280 280 280 279 279 279 279 279 278 278 278 278 277 277 278
288 288 288 287 287 287 287 286 286 286 286 286 285 285 285 284 283 283 283 282 282 281 281 281 280 280 280 280 280 280 279 279 278 278 278 278 278 278 278 277 277 277
288 288 288 287 287 287 286 285 285 285 285 284 284 285 284 284 283 283 282 282 281 281 280 280 280 280 280 279 279 279 279 279 279 278 278 278 278 278 277 277 277 277
287 287 287 287 287 287 285 285 284 285 284 284 284 283 283 283 282 282 282 282 281 280 280 280 280 279 279 279 279 279 278 278 278 278 278 277 277 277 277 277 277 276
287 287 287 287 286 286 285 285 285 284 284 283 283 283 283 283 282 282 282 281 281 280 280 279 279 279 279 279 278 278 278 277 277 278 277 277 277 277 278 277 277 276
286 286 286 287 286 285 285 284 284 284 284 284 283 282 282 282 282 282 281 281 280 280 280 279 279 279 279 278 278 278 277 277 277 277 277 277 277 277 277 277 276 276
286 286 286 285 285 284 284 284 284 284 284 283 282 282 282 282 282 282 281 281 280 280 279 279 279 279 278 278 278 277 277 277 277 277 276 276 276 276 276 276 276 275
286 286 285 285 285 284 284 284 284 283 283 282 282 282 282 282 282 281 281 281 280 280 279 279 279 278 278 278 278 277 277 276 277 276 276 275 275 275 275 275 274 274
285 285 284 284 284 285 284 284 284 283 283 282 282 281 281 281 281 281 281 280 280 279 279 279 278 278 278 278 278 277 277 277 276 276 276 276 275 275 274 274 274 273
284 284 284 284 284 284 284 284 283 283 282 282 282 281 281 281 281 281 280 280 280 279 279 278 278 278 277 277 277 277 277 277 276 276 276 275 275 274 275 274 274 273
284 284 284 284 284 284 284 284 283 282 281 282 281 281 280 280 280 280 280 280 280 279 279 278 278 278 277 277 277 277 277 276 276 276 275 275 274 273 274 273 273 272
284 284 284 284 284 284 284 283 282 282 281 281 281 281 280 280 280 280 280 280 279 279 279 278 278 277 277 277 276 276 276 275 275 275 274 274 273 273 273 272 272 272
285 285 285 285 284 284 283 283 282 281 281 281 280 280 280 280 279 279 279 279 279 279 278 278 277 277 277 276 276 276 275 275 274 274 273 273 272 272 272 271 271 271
285 285 285 284 283 283 282 282 282 281 281 280 280 280 280 280 279 279 278 278 278 278 278 277 277 277 277 276 276 275 275 274 274 273 273 272 271 271 271 271 270 270
285 285 284 283 282 282 282 282 281 281 280 280 280 279 279 279 279 279 278 278 277 277 277 277 277 277 278 280 279 276 275 274 273 272 272 272 271 270 270 270 270 270
284 284 283 283 283 283 282 281 281 280 280 279 279 278 278 278 279 278 278 278 278 277 276 276 277 277 280 282 282 280 276 273 273 272 271 271 270 270 269 269 269 269
284 283 283 283 282 282 282 281 281 279 279 279 278 278 278 278 278 278 278 278 278 277 277 276 276 279 282 283 283 282 279 274 273 271 271 271 270 270 269 269 269 269
283 283 282 282 282 282 281 281 280 279 279 278 278 278 278 278 278 278 278 278 277 277 276 276 276 280 283 283 283 283 281 276 272 272 271 270 270 270 270 270 269 270
282 282 282 282 281 281 280 280 280 279 279 279 278 278 278 278 277 277 278 277 277 277 276 276 276 280 283 284 284 283 282 277 271 271 271 271 270 270 270 270 270 270
282 282 281 281 280 280 280 280 279 279 279 278 278 278 277 277 277 277 277 277 276 276 276 276 275 281 283 284 284 284 282 277 271 271 271 270 271 271 271 271 271 271
280 280 280 279 279 279 279 279 279 279 278 278 278 278 277 277 277 277 276 276 276 276 275 275 275 281 283 284 284 284 283 274 271 270 270 270 270 271 271 272 272 272
281 280 280 279 279 279 279 279 279 278 278 278 277 277 277 276 276 277 276 276 275 275 275 274 274 279 283 284 284 284 281 271 271 270 270 270 270 271 272 272 272 272
281 280 280 279 279 279 279 279 279 279 278 278 277 276 276 276 276 276 276 275 275 274 275 274 273 278 283 284 284 285 278 271 271 270 270 270 271 271 272 272 273 275
280 280 281 280 279 279 279 279 278 278 278 277 277 277 276 276 275 275 274 274 274 274 276 274 273 276 283 284 284 284 277 272 271 271 271 271 272 271 272 272 272 275
279 280 281 280 279 279 278 279 278 277 276 276 276 276 275 275 274 274 273 273 273 273 274 274 272 273 280 284 284 284 279 274 273 272 271 271 272 271 270 271 271 272

ECMWFNIL_sfc_thetae_012.txt.gz
Theta_e
290 290 290 289 289 289 288 287 287 287 287 287 286 286 286 286 286 284 284 284 284 283 283 282 283 282 282 281 281 281 280 280 280 279 279 279 279 279 279 278 278 278
289 289 289 289 288 288 288 288 287 287 287 287 287 287 286 286 285 284 284 284 283 283 283 282 282 282 281 281 280 280 280 280 279 280 279 279 278 279 279 278 278 278
289 288 288 288 288 287 287 287 287 287 287 287 287 286 286 285 285 284 284 283 283 283 282 282 282 282 281 281 280 280 280 279 279 279 279 279 278 278 278 278 278 278
288 289 288 288 288 287 287 286 286 286 286 285 285 285 285 285 285 284 283 283 283 282 282 281 281 281 281 281 280 280 280 280 279 279 278 278 278 278 278 278 278 278
287 288 288 288 287 287 286 285 285 285 285 285 285 284 284 284 284 283 283 283 283 282 281 281 281 281 281 280 280 280 279 279 278 278 278 278 277 278 278 278 277 277
286 287 287 287 287 286 286 286 285 285 285 284 285 284 284 284 284 283 283 283 282 282 281 281 280 280 280 280 280 280 279 279 278 278 278 277 277 278 278 278 277 277
286 286 286 286 285 285 285 285 285 285 285 285 283 284 284 283 283 283 283 283 282 282 281 280 280 280 280 280 279 279 279 279 278 278 278 277 277 277 277 277 277 277
286 285 285 285 285 285 285 285 285 285 284 283 283 283 283 283 283 283 283 283 282 281 281 280 280 280 280 280 279 279 278 278 278 277 277 276 277 276 276 277 277 276
284 285 284 284 284 285 285 285 285 284 284 284 283 283 283 283 283 283 283 282 282 281 281 280 280 280 280 279 279 279 278 278 278 277 277 277 276 276 276 277 276 276
284 285 284 284 284 285 285 285 286 285 284 284 283 283 282 283 283 282 282 282 281 281 281 280 280 280 279 279 279 279 278 278 277 277 277 277 277 277 276 276 276 276
284 284 284 284 285 285 285 286 286 285 285 284 283 282 282 282 282 282 282 281 281 281 281 280 280 280 279 279 279 279 278 278 277 277 277 277 277 277 278 276 276 276
284 284 284 284 285 285 286 286 285 285 284 283 283 283 282 282 282 282 282 281 281 281 281 281 280 280 279 279 279 278 278 278 277 277 277 277 277 277 277 276 276 276
284 284 284 284 285 285 286 285 285 284 283 283 283 283 282 282 282 282 282 282 282 282 281 281 280 280 279 279 279 278 278 277 277 277 277 277 277 276 276 276 276 276
284 285 285 285 285 285 285 284 284 284 284 283 283 283 282 282 282 282 282 282 282 282 281 281 280 280 279 279 278 278 278 277 277 277 277 276 276 276 276 275 275 275
285 285 285 285 285 285 284 284 284 284 284 283 283 283 283 282 282 282 282 282 282 282 281 281 280 280 279 279 278 278 278 277 277 277 276 276 275 275 275 275 275 274
285 285 285 284 284 284 284 284 284 284 283 282 282 282 282 282 281 281 282 281 281 281 281 280 280 280 281 283 282 278 278 277 277 277 276 276 275 274 274 274 274 274
285 285 285 284 284 284 284 284 284 284 283 282 282 281 281 281 281 281 281 281 281 281 280 280 280 280 283 284 284 284 279 277 277 276 276 276 275 274 273 273 273 272
285 284 284 284 283 283 283 283 283 282 282 282 281 280 280 280 280 281 281 281 281 281 280 280 280 282 284 285 285 285 282 278 277 277 276 276 275 275 274 273 271 271
284 284 283 283 283 283 282 281 281 281 281 280 280 280 280 280 280 281 280 281 281 280 280 280 280 283 284 285 286 286 284 281 277 277 276 275 275 274 274 272 271 270
283 283 282 283 282 281 281 280 280 281 281 281 281 280 280 280 280 280 280 280 280 280 280 279 279 282 285 285 286 286 285 282 277 276 276 275 274 274 272 271 271 270
283 282 281 281 281 280 279 280 280 281 281 281 280 280 280 280 280 279 280 280 280 280 279 279 279 283 285 286 286 286 286 283 277 276 275 274 273 273 272 271 271 271
282 281 281 280 280 278 277 279 279 279 280 280 279 279 280 280 280 280 280 279 279 279 279 278 279 283 284 285 286 286 286 280 276 275 274 274 273 272 272 272 272 272
281 280 280 280 279 278 278 278 279 278 279 278 278 279 279 279 279 279 280 279 279 278 278 278 277 281 284 285 286 286 285 277 275 274 273 273 272 272 272 272 272 272
280 279 279 279 279 278 278 279 278 278 278 278 279 279 279 279 279 279 279 279 279 278 278 277 276 280 284 285 286 286 284 275 274 273 272 272 272 272 272 272 272 274
280 279 279 279 278 279 278 278 279 279 279 279 279 279 279 279 278 278 278 278 278 278 279 278 276 279 284 285 286 286 282 275 274 273 272 271 271 271 272 272 272 275
281 280 279 278 278 278 278 278 277 277 277 278 278 278 278 277 277 277 277 277 277 277 277 278 276 277 281 285 286 286 283 275 274 273 271 271 271 271 271 271 272 273

ECMWFNIL_sfc_thetae_015.txt.gz
Theta_e
293 293 293 292 292 293 292 291 291 291 291 291 290 290 290 290 290 289 289 289 289 289 288 288 288 287 287 286 286 286 286 286 286 286 285 285 285 284 284 284 284 285
292 292 292 292 292 292 291 291 291 291 291 291 291 291 291 290 290 289 289 289 289 288 288 288 287 287 286 286 286 285 285 285 285 285 285 284 284 284 284 284 284 284
291 291 291 291 291 291 290 290 291 291 291 291 291 291 290 290 289 289 288 288 288 288 287 287 287 287 286 286 285 285 285 285 285 284 285 284 284 284 284 284 284 283
290 290 290 290 290 290 290 289 289 290 290 289 289 290 289 289 289 288 288 287 287 287 287 286 286 286 286 285 285 285 285 285 285 284 284 284 284 284 283 283 283 283
288 288 289 289 289 289 289 288 288 288 288 289 289 288 288 288 287 287 287 287 287 286 286 286 286 286 286 285 285 284 284 284 284 284 284 283 283 283 282 282 282 282
287 288 288 288 288 288 288 287 287 287 288 287 288 287 288 288 287 287 286 286 286 286 285 285 285 285 285 284 284 284 284 283 283 283 283 282 282 282 282 282 282 281
286 287 287 287 288 288 288 287 287 287 287 288 287 287 287 287 287 287 286 286 286 286 285 284 284 284 284 284 283 283 283 283 282 282 282 282 281 281 281 281 281 281
285 286 286 286 286 287 287 287 287 287 287 287 287 287 287 287 287 286 286 286 285 285 285 284 284 284 284 283 283 283 282 282 282 281 282 281 281 280 280 281 281 281
285 285 285 285 285 286 286 287 287 287 287 286 287 287 286 287 287 286 286 286 285 285 285 284 284 284 283 283 283 283 282 282 282 281 281 281 280 280 280 280 280 280
286 285 285 285 285 286 286 286 287 287 287 286 287 287 286 286 286 286 286 285 285 285 284 284 283 283 283 283 283 283 282 282 281 281 282 281 281 280 280 280 280 280
286 286 285 285 285 285 286 286 286 287 287 286 286 286 286 285 285 286 285 285 285 285 284 284 283 283 283 283 283 283 283 282 281 281 281 281 281 281 281 280 280 280
286 286 286 286 285 285 285 286 286 286 286 286 286 286 286 285 285 285 285 285 285 285 285 284 284 284 283 283 282 283 283 282 282 281 281 281 281 281 281 280 280 280
286 286 286 286 286 286 286 286 286 286 286 286 286 285 286 285 285 285 285 285 285 285 285 285 284 284 283 283 283 282 282 282 282 281 281 281 281 281 281 280 280 280
285 286 286 286 286 286 286 286 286 286 286 286 286 285 285 285 285 284 285 285 285 285 285 285 284 284 283 283 283 282 282 282 282 281 281 281 281 281 280 280 280 281
285 285 286 286 286 286 286 286 285 285 286 286 286 286 285 285 285 285 284 284 284 284 284 284 284 284 284 283 282 282 282 282 282 281 281 280 280 280 280 280 280 280
285 285 285 285 285 285 285 285 285 285 285 285 285 285 285 285 285 284 284 284 284 284 284 284 284 284 284 285 285 283 282 282 282 281 281 281 280 279 279 279 280 280
284 284 284 284 284 285 285 285 285 285 284 284 284 284 284 284 284 284 284 284 284 283 283 283 284 284 285 287 287 286 283 282 281 281 281 280 280 280 279 279 279 279
283 283 283 283 283 284 284 284 284 284 284 284 284 283 284 284 283 283 284 283 283 283 283 283 283 285 286 287 287 287 286 282 282 281 280 280 280 279 279 279 278 278
282 282 282 282 283 283 283 283 283 283 283 283 283 284 284 283 283 283 283 283 283 283 283 283 283 286 286 287 287 287 287 284 282 281 280 280 279 279 279 278 278 277
281 281 281 282 282 282 282 282 282 282 283 283 283 283 283 283 283 283 283 283 283 283 283 283 283 285 286 287 287 287 288 286 282 281 280 280 279 279 278 278 278 276
279 280 281 282 282 281 281 281 282 282 282 282 282 282 282 282 282 282 282 282 283 283 283 283 283 285 286 287 287 288 288 287 282 281 280 280 279 279 278 278 277 276
277 278 280 282 282 281 280 280 281 281 281 282 282 282 282 282 282 282 282 282 282 282 282 282 283 285 286 286 287 288 288 286 283 281 280 279 279 278 278 278 277 276
276 277 280 281 281 280 279 280 280 280 281 281 280 280 280 280 280 281 281 281 281 281 281 281 282 284 285 286 287 288 287 285 283 281 280 279 278 278 277 276 276 276
275 277 280 280 279 278 279 279 280 280 281 281 280 280 280 280 280 280 280 280 280 280 281 280 281 283 285 286 286 287 287 284 283 281 279 278 277 277 276 275 275 277
274 277 279 278 277 277 277 277 278 279 280 280 279 279 279 280 280 279 279 280 280 280 281 281 280 281 284 285 286 287 287 285 283 280 278 277 276 274 275 274 275 277
273 275 276 276 275 275 275 276 278 278 279 279 279 280 280 280 279 279 278 279 280 279 279 280 280 280 281 284 285 286 287 285 282 280 277 276 275 273 273 273 274 275

ECMWFNIL_sfc_thetae_018.txt.gz
Theta_e
297 297 297 297 298 298 298 298 298 298 298 298 297 297 297 297 297 296 296 296 296 296 296 296 295 295 295 295 294 294 293 294 293 293 293 293 292 294 293 294 294 293
295 296 296 296 296 297 297 297 297 297 297 298 298 297 298 297 297 296 295 295 295 295 295 295 295 295 294 294 294 293 292 292 292 294 292 292 292 293 293 293 293 294
294 294 295 295 295 296 296 297 297 297 297 297 298 298 298 297 297 296 296 295 295 294 295 295 294 294 294 293 293 292 291 291 291 292 291 292 291 291 292 292 292 293
293 293 293 294 294 294 295 295 296 296 296 296 296 297 297 297 296 296 295 293 294 294 294 294 294 293 293 292 292 291 291 291 291 292 291 291 291 291 291 291 291 292
292 292 292 293 293 294 294 294 294 295 295 295 296 296 295 295 295 294 294 294 293 293 293 293 293 293 292 292 291 291 291 290 291 291 290 290 291 290 291 291 290 290
292 292 292 292 292 292 292 293 293 294 294 294 294 294 294 294 294 293 293 293 293 292 292 292 292 292 292 291 291 290 290 289 290 291 290 289 290 290 290 290 289 288
291 291 291 291 291 291 291 292 292 293 293 294 294 294 294 293 293 293 293 293 292 292 292 291 291 291 291 291 290 290 290 289 289 289 288 288 289 289 289 289 288 287
290 290 291 291 290 291 291 290 291 291 292 293 293 293 293 293 293 293 293 292 292 291 291 291 291 291 290 290 289 289 289 289 288 288 288 287 288 287 287 287 287 287
289 289 289 289 289 290 290 290 291 291 291 291 291 292 293 293 292 292 292 292 291 291 291 290 290 289 289 289 288 288 288 288 288 287 287 286 286 286 286 286 285 286
287 287 288 288 288 289 289 290 290 290 291 291 291 291 291 292 292 291 291 291 290 290 290 290 289 289 288 288 287 287 287 287 287 287 286 286 286 286 286 286 285 284
286 286 285 286 287 288 288 289 289 289 290 290 290 290 290 290 290 290 290 290 290 290 289 289 288 288 287 287 287 287 287 287 287 287 286 286 286 286 286 285 284 284
286 286 285 284 285 286 287 288 289 289 288 288 289 288 288 288 288 289 289 289 289 289 289 289 289 288 287 286 285 285 286 286 286 286 286 285 286 286 286 286 285 285
286 286 286 285 285 285 286 287 287 288 288 288 288 288 288 288 288 288 288 288 288 288 288 289 289 288 287 287 286 286 285 285 285 285 285 285 285 285 285 286 285 285
286 286 286 286 286 286 285 285 286 287 287 288 288 288 288 288 288 288 288 287 288 288 288 288 288 288 287 287 287 286 286 286 286 285 285 284 284 284 284 284 285 285
286 286 286 285 285 286 286 286 285 285 286 286 287 288 288 288 288 288 288 288 287 287 287 287 287 287 288 287 286 286 286 285 285 285 285 284 284 284 284 284 284 285
285 285 284 284 284 285 285 286 286 285 285 285 285 286 287 288 288 288 288 287 287 288 287 287 286 287 287 288 288 286 285 285 285 285 285 285 284 284 283 284 284 284
284 283 283 282 282 283 284 285 285 285 284 284 284 285 286 286 286 286 287 287 287 287 287 287 287 286 287 289 289 289 287 286 285 285 285 285 284 284 283 283 283 283
283 282 281 281 281 282 284 284 285 284 284 284 284 284 284 285 285 285 286 286 286 287 286 287 287 287 288 289 289 289 289 286 285 285 285 285 284 284 284 284 283 283
282 280 279 279 279 280 282 284 284 283 283 283 283 284 284 283 284 285 285 285 286 285 286 286 287 288 288 289 289 289 290 288 285 285 285 285 284 284 283 283 283 283
281 279 278 278 278 279 281 283 283 282 282 282 283 283 283 283 283 284 284 284 285 285 285 286 286 287 288 289 289 289 289 289 286 285 285 285 284 283 283 283 283 282
279 278 277 277 277 278 280 282 281 281 281 281 281 282 282 282 283 283 283 284 284 285 285 285 285 287 287 288 288 289 289 289 286 285 285 284 284 283 282 283 283 282
278 277 276 276 276 276 278 279 280 279 279 279 279 280 282 283 283 283 283 283 284 284 284 284 285 286 287 287 288 288 289 287 286 286 285 285 284 284 283 283 282 282
277 276 275 274 274 274 275 277 278 278 277 278 277 278 279 280 281 281 282 283 283 283 283 284 284 286 286 286 287 288 287 287 286 286 285 285 285 285 284 283 282 282
276 275 273 273 273 273 274 275 277 277 276 276 276 276 277 279 280 281 281 282 282 282 283 283 283 285 285 286 286 287 287 286 286 286 285 285 285 285 284 283 282 282
275 274 273 272 272 272 273 274 275 274 274 274 274 275 275 277 278 280 281 282 282 282 282 283 283 283 285 285 286 286 286 285 285 285 285 285 285 284 284 283 281 282
274 273 272 271 271 271 272 273 274 273 272 272 272 273 273 274 276 278 279 280 281 281 281 282 283 283 284 285 285 285 286 285 285 284 284 284 285 284 282 281 280 280

ECMWFNIL_sfc_thetae_021.txt.gz
Theta_e
295 295 296 296 296 297 297 297 298 298 298 298 298 298 299 299 300 300 299 299 299 298 299 299 298 298 298 298 297 296 296 296 295 295 295 294 294 294 294 295 296 296
294 295 294 295 295 296 296 296 296 297 297 297 297 298 298 299 300 300 299 299 298 298 298 298 298 298 297 296 296 296 295 294 294 295 294 294 293 293 293 294 294 295
293 294 294 294 293 294 295 296 296 296 296 296 297 297 298 299 299 299 299 298 298 297 297 297 297 297 297 296 296 295 294 294 293 294 294 293 293 292 292 293 293 293
293 293 293 293 294 293 294 294 294 295 295 295 295 296 296 298 298 298 298 297 297 296 296 296 296 296 296 296 295 294 294 294 294 294 293 293 293 292 292 292 292 292
291 292 292 292 293 293 293 293 293 293 293 293 294 295 295 295 295 295 295 296 296 295 295 295 295 295 295 295 294 294 293 293 293 293 292 292 292 292 292 291 291 290
289 290 290 290 291 291 291 292 292 292 292 292 292 293 294 294 294 294 294 294 294 294 294 294 294 294 294 294 294 293 293 292 292 292 291 291 291 291 291 291 290 290
287 288 288 289 289 290 289 290 290 291 292 292 292 292 292 292 293 293 293 294 294 293 293 293 293 293 293 293 293 292 292 292 291 291 290 290 290 290 291 290 290 289
287 287 287 287 287 288 288 289 289 290 291 290 291 291 292 291 291 292 293 293 293 293 293 293 293 293 293 292 291 291 291 291 291 290 290 289 290 289 290 290 289 289
288 287 286 286 286 287 286 288 288 289 289 289 289 290 291 291 291 291 291 291 291 291 292 292 292 292 292 291 291 290 290 290 290 290 289 289 288 289 289 289 289 288
286 287 286 286 285 286 286 287 287 288 289 288 289 289 289 290 290 290 290 290 290 290 290 290 291 291 291 291 290 290 289 289 289 289 289 289 288 288 289 288 288 287
286 285 285 286 286 286 286 286 287 287 287 287 287 287 288 288 289 289 289 289 289 289 289 289 290 290 290 290 290 290 289 289 289 289 288 288 288 288 288 288 288 287
286 286 285 284 284 285 286 287 287 287 286 286 286 286 287 288 287 288 288 288 288 288 288 289 289 289 289 289 289 289 289 289 289 288 288 288 288 288 288 288 288 287
285 285 285 285 285 284 285 286 286 287 287 286 286 286 286 286 287 287 287 287 287 287 288 288 288 288 289 289 289 289 288 288 287 288 288 288 287 287 287 287 287 287
285 285 285 285 284 284 284 285 285 286 286 286 286 285 285 285 285 286 287 287 286 287 287 287 287 287 288 288 288 288 288 287 287 287 286 286 287 287 287 287 287 287
284 285 285 285 284 283 283 283 284 285 286 286 285 285 286 285 285 285 286 286 286 286 286 287 287 287 287 287 287 287 287 287 286 286 286 286 286 286 286 286 287 287
283 284 284 283 283 282 282 282 282 283 285 285 285 285 284 285 285 285 285 285 285 285 286 286 286 287 287 288 289 287 287 287 286 286 286 286 285 285 285 285 285 286
283 283 283 282 282 281 281 281 281 282 283 284 284 284 283 283 284 284 284 284 284 284 284 285 286 287 288 290 290 290 288 287 286 286 286 286 285 285 285 285 285 285
282 282 282 282 281 280 280 280 280 281 282 284 283 283 283 283 283 283 283 283 284 284 284 285 285 287 288 289 290 290 289 287 286 286 286 286 286 285 285 285 285 285
282 281 281 281 281 280 279 279 279 279 280 281 282 282 282 281 282 282 282 283 283 283 283 284 284 286 287 288 289 289 289 289 287 286 286 286 286 286 285 285 285 285
281 281 280 280 280 279 279 278 278 277 278 279 281 281 280 280 280 280 281 282 283 283 283 283 283 285 287 287 288 288 288 288 287 286 286 286 285 285 285 285 285 285
280 280 280 280 279 279 278 277 277 277 277 278 279 279 279 279 279 278 279 281 281 281 281 281 282 285 286 287 287 288 288 288 286 286 286 286 286 286 285 285 285 285
279 279 279 279 279 278 277 276 276 276 275 276 277 278 279 278 278 278 278 279 279 280 280 280 281 284 285 286 287 287 288 286 286 286 285 285 285 286 285 286 285 285
279 278 278 278 277 276 275 275 274 274 274 275 275 276 276 276 276 276 276 277 277 278 278 279 280 283 285 286 286 287 286 285 285 285 285 285 285 286 286 286 285 285
278 278 277 277 276 275 274 274 274 274 273 274 273 274 274 274 274 274 275 275 276 276 277 278 279 281 283 284 285 286 286 284 284 284 284 284 285 285 286 286 286 285
277 276 276 275 274 274 273 272 272 272 273 273 273 274 273 273 273 273 273 273 274 274 276 276 277 280 283 284 284 285 285 284 284 283 283 283 284 284 285 285 286 286
274 274 274 274 273 273 272 272 272 272 271 271 272 272 272 271 271 271 270 271 272 272 273 273 274 276 279 281 283 284 285 284 283 283 282 282 283 284 284 285 285 286

ECMWFNIL_sfc_thetae_024.txt.gz
Theta_e
290 291 290 291 291 291 291 291 292 292 292 292 291 292 292 293 294 294 293 293 293 293 293 292 292 292 294 292 291 292 291 290 290 290 290 290 290 289 290 289 288 288
289 289 289 290 290 290 290 291 290 291 291 291 291 291 292 292 293 293 293 293 292 292 292 292 291 291 291 290 290 290 290 289 289 290 289 288 289 288 289 289 288 288
288 288 288 288 288 288 289 290 290 290 289 290 290 291 292 292 292 292 292 292 292 292 291 291 290 290 289 288 288 289 289 288 288 288 288 288 288 288 288 288 288 288
286 286 286 286 287 287 287 287 288 288 289 289 289 290 290 291 290 290 289 290 290 290 289 288 288 288 287 287 287 288 288 288 288 287 287 287 287 287 287 287 287 287
283 284 285 285 285 286 286 286 286 287 287 287 288 289 289 288 288 287 287 288 287 288 288 288 287 287 287 286 286 287 287 288 287 286 287 287 287 287 287 287 286 286
281 282 283 283 284 285 284 285 285 286 286 285 286 286 286 286 286 286 287 287 287 287 287 287 287 286 286 286 286 287 287 287 287 286 286 286 287 286 287 287 286 286
281 280 281 281 281 282 282 283 284 284 284 285 284 284 284 285 285 285 286 286 286 286 287 287 287 287 287 285 285 286 286 286 286 285 286 286 286 286 286 285 285 286
281 281 281 280 279 280 280 281 282 283 284 284 284 284 284 284 284 284 284 284 284 285 285 286 286 286 286 286 286 286 286 287 287 285 285 285 285 285 285 286 286 285
279 280 280 279 279 279 279 280 280 281 283 283 284 284 284 284 284 284 284 283 283 283 283 284 284 285 285 286 286 286 286 286 286 285 285 285 285 285 285 285 285 285
279 279 278 278 278 279 279 280 280 280 280 281 281 282 282 283 284 284 284 284 283 283 283 283 283 283 284 284 285 285 285 285 285 285 285 285 285 285 285 285 285 285
278 279 279 278 278 278 278 278 279 280 280 280 280 280 280 281 282 281 282 282 283 283 282 282 283 283 283 284 285 284 285 285 284 284 285 285 285 285 286 285 285 285
279 279 280 279 279 278 278 278 279 278 279 280 280 280 279 279 280 280 281 281 281 281 281 282 282 282 283 284 284 285 285 285 284 284 284 284 285 285 285 285 286 285
278 278 279 279 279 279 278 278 278 278 279 279 280 280 280 280 280 280 280 280 281 281 281 281 282 282 283 283 283 284 284 285 285 284 284 285 285 285 285 285 285 285
278 278 279 279 279 278 278 277 277 277 277 278 279 280 280 280 279 279 280 280 280 280 281 281 281 281 282 282 283 283 284 284 284 284 285 285 284 285 285 285 285 285
278 278 279 279 279 279 279 278 278 277 277 277 278 279 280 280 280 279 279 279 279 279 280 280 281 281 282 282 282 282 283 283 284 284 284 284 284 284 285 285 285 285
278 278 278 278 278 279 278 278 278 277 277 277 277 278 279 279 279 279 279 279 279 279 279 280 281 281 284 286 288 285 283 284 284 284 284 284 284 284 284 285 285 285
278 278 278 278 278 278 278 277 277 277 276 276 276 277 277 278 278 278 278 278 278 279 279 279 280 281 285 287 288 288 286 284 284 283 283 284 284 284 284 284 285 285
277 277 277 277 277 277 277 277 277 276 276 276 276 275 276 276 276 277 277 277 278 278 278 279 279 283 285 286 287 287 287 285 283 283 283 283 283 283 284 284 284 284
277 277 277 277 277 277 277 277 276 276 275 275 275 275 275 275 275 276 276 276 277 276 277 278 278 283 284 285 286 286 287 286 284 283 282 283 283 283 283 283 284 284
277 276 276 277 277 277 277 276 276 275 275 275 274 274 274 274 274 274 275 275 276 276 276 277 277 281 283 284 284 285 286 285 283 283 282 282 282 283 283 283 283 283
276 276 276 276 276 276 276 276 276 275 275 274 274 274 273 273 273 273 274 274 275 275 275 275 276 280 282 283 283 284 285 285 283 282 282 282 282 283 283 283 283 283
275 275 275 275 275 275 274 274 274 274 274 274 274 273 273 273 273 273 273 273 273 274 274 274 275 280 281 281 282 283 284 282 281 281 281 282 282 282 282 283 283 283
274 274 273 273 273 273 272 272 272 273 273 273 272 272 272 272 272 272 272 272 272 273 273 273 274 277 279 280 281 282 282 280 280 281 281 281 281 281 282 282 283 283
272 272 272 271 271 270 270 271 271 271 271 272 271 271 270 271 271 271 271 271 271 271 272 272 272 275 278 279 280 281 280 278 278 279 279 279 279 280 281 281 282 284
270 270 270 269 269 269 268 268 268 268 269 270 269 269 269 270 270 270 270 270 271 271 274 273 272 274 277 278 278 279 278 276 276 276 277 278 279 279 280 280 281 282
268 267 267 266 266 265 265 265 266 266 267 267 267 267 267 268 268 269 268 269 270 270 270 270 270 270 272 276 277 277 278 275 274 274 273 275 277 278 278 279 280 280

ECMWFNIL_sfc_thetae_027.txt.gz
Theta_e
286 286 286 286 286 287 286 286 287 286 287 287 287 287 287 288 289 289 289 289 290 290 291 291 290 290 291 290 290 290 290 290 289 288 288 287 287 287 288 287 286 286
284 284 285 285 285 285 285 285 285 285 285 285 286 286 287 287 287 287 287 287 288 288 289 289 289 290 289 289 289 289 289 289 288 289 288 286 287 286 286 287 287 287
282 283 283 283 283 283 283 284 284 284 284 284 285 285 286 286 286 286 286 286 286 287 287 288 288 288 288 288 287 287 288 287 287 288 287 286 287 286 286 286 286 286
282 282 282 282 283 282 282 282 283 283 283 283 283 283 284 285 284 284 285 285 285 285 285 286 286 286 287 287 287 287 287 287 287 286 286 286 286 286 286 285 285 285
280 281 281 282 283 284 283 283 282 283 282 282 282 282 282 282 281 282 282 283 283 284 285 286 286 286 286 286 286 286 287 287 287 286 286 286 286 286 286 285 285 285
280 279 279 279 280 281 282 283 283 283 283 282 282 282 281 281 281 281 281 281 282 282 283 284 285 286 286 286 286 286 286 286 287 286 286 285 286 286 286 286 285 285
280 279 279 279 279 278 279 279 281 282 282 282 282 282 281 281 281 281 281 282 282 282 281 281 282 283 285 285 285 286 286 286 286 285 285 285 285 285 285 285 285 285
278 278 278 277 278 277 278 278 278 280 280 280 280 281 281 280 281 281 281 281 281 281 281 282 281 281 282 283 284 284 285 286 286 286 286 285 285 284 285 285 285 284
278 278 277 277 277 277 278 277 278 278 279 279 279 280 280 280 280 280 280 280 280 280 280 281 281 281 282 282 282 283 283 284 285 285 285 285 286 286 285 285 284 284
277 277 277 277 277 277 276 277 277 278 278 279 279 279 279 280 279 280 279 279 279 279 279 280 280 280 281 281 281 282 282 283 283 284 284 284 284 285 285 286 285 285
276 276 276 276 277 277 278 277 277 277 277 278 278 279 279 279 280 279 279 279 279 279 279 279 280 280 280 280 280 281 281 282 282 283 283 283 283 283 285 284 284 285
276 276 276 276 276 277 277 278 278 277 277 277 277 278 278 278 279 279 279 279 279 279 279 279 279 280 279 280 280 280 280 281 281 282 283 283 283 283 283 283 283 283
277 277 277 277 276 277 277 277 277 277 277 277 277 277 277 277 278 278 279 279 279 279 279 279 279 279 279 280 280 280 280 280 280 280 281 282 283 283 283 283 283 283
277 277 277 278 278 278 278 277 277 277 277 277 276 276 277 277 277 277 278 279 279 279 279 279 278 279 279 279 279 279 280 280 280 280 280 280 281 281 282 282 283 283
277 277 277 277 277 277 278 278 278 277 277 277 276 276 277 277 277 277 277 277 278 278 278 278 278 278 279 279 279 279 279 279 280 280 280 280 280 281 281 281 282 282
277 277 277 277 277 278 278 278 278 277 277 277 277 276 276 276 276 276 276 276 276 276 276 277 277 278 280 282 283 281 281 281 281 281 281 281 280 280 281 281 281 282
277 277 277 277 278 277 277 277 277 277 277 277 277 277 277 276 276 275 275 275 275 275 275 276 276 277 280 282 283 284 282 281 281 281 281 281 280 280 280 280 281 281
277 277 277 277 277 276 276 276 276 276 276 276 276 276 276 276 276 275 275 275 275 275 274 275 275 278 281 281 282 283 283 281 281 281 281 281 280 280 280 280 280 281
276 276 276 276 276 275 275 275 275 275 275 275 275 275 275 274 275 275 275 275 275 274 274 274 274 278 280 280 281 282 282 282 280 280 280 280 280 280 280 280 280 280
275 274 274 274 274 273 273 273 273 273 274 274 274 274 274 273 273 273 273 273 273 273 273 273 273 277 279 280 280 281 282 282 279 279 279 279 279 280 280 280 280 280
273 272 272 272 272 271 271 271 271 272 272 272 272 272 271 271 271 271 272 272 272 272 272 272 273 277 278 279 280 281 281 281 277 278 278 278 278 279 279 279 280 280
271 270 270 269 270 269 269 269 269 269 269 270 270 270 270 270 270 270 270 270 270 270 270 270 271 276 277 278 278 279 280 276 276 276 276 276 276 277 278 279 279 280
269 268 267 267 267 267 266 266 267 267 267 267 266 266 266 266 267 267 268 268 268 268 268 268 269 272 275 276 277 278 277 274 274 274 274 274 275 275 276 276 277 278
267 266 265 265 264 264 264 264 265 264 264 265 264 264 264 265 265 265 266 266 266 266 266 266 267 270 274 274 275 275 275 272 272 272 272 272 272 273 274 274 275 278
264 264 263 263 262 262 262 262 262 262 263 263 263 263 263 263 263 263 263 264 264 265 267 266 264 266 270 271 272 273 272 270 270 270 270 271 272 272 273 273 273 275
263 262 262 261 261 261 262 261 262 262 262 262 262 262 261 262 262 262 261 262 262 263 263 263 263 263 265 271 272 272 273 270 270 269 269 270 271 271 271 272 273 273

ECMWFNIL_sfc_thetae_030.txt.gz
Theta_e
283 283 282 282 282 283 282 282 282 282 282 282 282 282 283 284 284 284 284 284 284 284 285 285 286 286 287 286 287 287 287 287 287 288 287 286 285 285 286 286 285 285
281 282 283 282 282 282 282 282 281 282 281 281 281 281 282 283 283 283 284 284 284 284 283 284 284 284 285 285 285 285 285 285 286 287 286 286 286 285 285 285 285 285
280 280 280 280 280 280 280 281 281 280 281 280 280 281 282 281 281 281 282 283 283 283 283 284 283 283 283 283 283 284 284 284 285 285 285 285 285 285 285 285 285 284
280 280 280 279 280 279 280 280 280 280 280 281 279 280 280 281 279 280 280 281 280 281 282 282 283 283 283 282 282 283 283 283 284 284 284 285 285 285 285 285 285 284
279 280 279 279 279 279 280 280 280 280 280 281 281 280 280 280 280 279 279 279 279 280 280 280 281 281 282 282 282 282 282 282 282 283 283 283 284 284 285 285 285 284
278 278 278 278 278 278 279 278 278 280 280 280 280 280 280 280 280 280 280 280 280 279 279 279 279 279 280 280 281 281 281 281 281 282 282 282 283 284 285 285 284 284
278 278 278 277 278 277 277 277 278 279 278 278 279 279 279 279 279 279 280 280 280 280 280 280 279 279 278 278 279 280 280 281 281 282 281 281 281 282 283 283 283 283
277 277 277 276 277 277 277 277 278 278 277 278 278 278 278 278 278 278 279 279 279 279 279 279 280 280 279 279 278 278 278 280 281 280 280 280 281 281 281 282 282 282
276 277 276 276 276 276 276 276 277 277 277 277 278 278 278 277 278 278 278 278 278 278 278 279 279 279 279 279 279 279 278 278 279 278 278 279 279 280 281 281 281 281
276 276 276 276 276 276 276 276 276 277 276 277 277 277 277 278 277 277 277 277 277 277 278 278 278 278 278 279 278 278 278 278 279 279 279 278 278 279 279 280 280 281
276 275 276 275 275 275 276 276 276 276 276 276 276 276 276 276 277 276 277 276 277 277 277 277 277 278 278 278 278 278 278 278 278 279 279 279 279 279 280 279 280 280
275 275 275 275 275 275 275 276 276 276 276 276 276 276 276 276 276 276 276 276 276 276 277 277 277 277 277 277 277 278 278 278 278 278 278 279 279 279 279 279 279 279
275 276 276 276 276 275 275 275 275 275 275 275 275 275 275 275 275 275 276 276 276 276 276 276 277 277 277 277 277 277 277 277 277 277 278 278 278 279 279 279 279 279
276 275 276 276 276 276 276 276 276 275 275 275 275 275 275 275 275 276 276 276 276 276 276 276 276 276 276 276 276 276 276 276 277 277 277 277 278 278 279 279 279 279
275 276 276 275 276 276 276 276 276 276 276 276 276 276 276 276 276 275 275 275 275 275 275 276 275 275 276 276 275 276 276 276 277 277 277 277 278 278 279 279 279 280
275 275 276 276 276 276 276 275 275 275 275 275 275 275 275 275 275 275 275 275 275 275 275 275 275 275 277 279 280 278 277 277 277 277 277 277 277 278 278 279 279 280
275 275 275 275 275 275 274 274 274 273 273 273 273 273 273 273 274 273 274 274 274 274 273 274 274 275 278 280 281 281 279 277 277 276 277 277 277 277 277 277 278 279
274 274 273 273 273 272 272 271 271 271 271 271 271 271 272 272 272 272 272 272 272 272 272 272 273 276 278 279 280 280 280 277 277 276 276 276 276 276 276 277 277 278
273 272 271 270 270 270 269 269 269 269 269 269 269 270 270 270 270 270 270 271 271 270 270 271 271 274 276 277 278 279 279 278 276 276 275 275 275 275 275 275 276 276
270 269 269 268 268 268 268 268 267 267 268 268 268 268 268 268 268 268 268 268 268 268 268 268 269 272 275 276 276 277 277 277 274 274 274 274 274 274 274 274 274 275
268 267 266 267 266 266 266 266 266 266 266 266 266 266 266 265 265 265 265 266 266 266 266 266 267 272 273 274 274 275 276 275 272 272 272 272 273 273 274 274 274 274
266 265 265 264 265 264 264 264 264 264 264 264 264 264 264 264 264 264 264 264 264 264 264 264 265 270 271 272 273 274 275 270 269 269 268 268 269 269 270 272 273 274
265 264 263 263 263 262 262 262 262 262 262 263 262 262 262 262 262 263 263 263 263 263 262 262 263 266 270 271 272 273 271 268 268 268 268 268 268 269 269 269 270 270
263 262 262 262 261 260 261 261 261 262 261 262 261 261 261 261 262 262 262 262 262 261 262 261 262 265 269 270 271 272 271 268 267 267 267 267 267 268 269 269 270 273
261 261 261 260 260 260 260 260 260 260 261 261 261 261 261 261 261 260 260 261 261 261 264 263 262 264 268 269 270 271 269 268 267 267 266 266 267 267 268 268 268 270
260 260 260 259 259 259 259 260 260 260 260 260 260 260 260 260 260 260 259 259 260 260 261 261 261 261 263 269 270 271 272 268 268 267 266 266 266 267 267 268 268 268

ECMWFNIL_sfc_thetae_033.txt.gz
Theta_e
281 281 281 281 281 281 280 280 280 280 280 280 279 280 280 280 281 280 281 281 281 281 281 281 281 281 282 281 281 282 282 282 283 284 283 283 283 283 285 284 284 283
280 281 281 281 281 281 281 281 280 280 279 279 279 279 279 280 279 279 280 280 280 280 280 280 280 280 280 280 280 280 280 281 280 283 282 282 282 282 283 283 282 283
279 279 279 279 279 279 279 279 280 279 280 279 278 279 280 279 279 279 279 279 279 279 279 279 279 279 279 279 280 279 279 280 280 280 281 281 281 281 282 282 282 282
278 278 278 278 278 278 278 278 277 278 278 279 278 278 279 279 278 278 278 279 278 278 278 278 278 278 278 278 279 279 279 279 279 280 280 280 280 280 281 281 282 282
278 278 278 278 277 277 277 278 278 278 278 278 278 278 279 278 278 278 278 277 277 277 277 277 277 278 278 278 278 278 278 278 278 279 279 279 279 280 281 281 280 280
278 277 277 278 277 278 278 278 278 278 278 278 278 278 278 278 278 278 278 278 278 278 278 278 277 277 277 277 277 277 277 277 278 278 278 278 278 279 280 280 280 280
278 277 277 277 277 277 278 277 277 278 278 277 277 278 277 277 277 277 277 277 277 277 277 277 277 277 277 277 277 276 277 276 277 277 277 277 277 278 278 278 278 279
278 277 277 277 276 276 277 276 276 277 276 277 277 277 277 277 277 277 277 277 277 277 277 277 277 277 277 277 276 276 276 278 277 276 276 276 276 276 277 278 278 278
276 277 275 276 276 275 276 276 276 276 276 276 277 276 276 277 276 276 276 276 276 276 276 276 277 276 277 276 276 276 276 276 277 276 276 276 275 276 276 276 277 277
276 275 275 275 276 275 275 275 275 276 276 276 276 276 276 276 275 276 276 275 275 275 275 275 276 276 276 276 276 276 276 276 276 276 276 276 275 276 276 276 276 276
276 274 275 274 274 274 274 274 275 275 275 275 275 275 275 275 275 274 275 275 275 275 275 275 275 275 275 275 276 276 276 276 276 275 275 276 276 276 277 276 276 276
275 274 274 274 274 274 274 274 275 274 274 275 274 275 274 274 274 274 274 274 274 274 274 274 275 274 274 275 275 275 275 275 275 275 275 275 275 276 276 276 276 276
275 275 275 275 275 275 274 274 274 274 274 274 274 274 274 274 274 274 274 274 274 274 274 274 274 274 274 274 274 274 274 274 274 275 275 275 276 276 276 276 276 276
275 275 275 275 275 274 274 274 274 274 274 274 273 273 273 273 273 273 273 273 273 273 274 274 274 273 273 274 274 274 274 274 275 275 275 275 276 276 276 276 276 277
275 275 275 274 274 274 273 273 273 272 272 272 272 271 272 272 272 272 272 272 272 272 272 272 272 273 273 273 274 274 275 275 275 275 275 275 275 275 276 276 276 276
274 274 273 273 272 272 272 271 271 271 270 270 270 270 270 270 270 270 270 270 270 270 271 271 271 271 273 276 277 275 274 274 274 274 274 274 274 274 274 275 275 276
273 272 272 271 271 270 269 269 269 268 268 268 268 268 268 268 269 268 269 269 269 269 268 269 269 270 273 275 276 277 275 273 273 273 273 273 273 273 273 273 274 275
271 270 269 268 268 268 267 267 267 266 266 266 266 266 267 267 267 267 267 267 267 267 267 267 267 270 273 274 275 276 276 273 272 272 272 272 272 272 272 272 272 273
268 267 266 266 266 266 265 265 265 265 265 264 264 265 265 265 266 265 265 265 265 265 265 265 265 269 271 273 274 275 275 274 272 271 271 271 271 271 271 271 271 271
267 265 265 264 264 264 264 264 263 263 263 263 264 264 264 264 263 264 264 264 264 264 264 264 264 267 271 273 273 274 274 274 271 271 270 270 269 269 269 268 268 268
265 264 264 264 263 263 262 262 262 262 262 263 262 263 262 262 262 262 262 262 262 263 263 263 263 269 271 272 273 273 274 274 271 270 269 268 268 268 268 268 268 268
264 263 262 262 263 261 261 261 261 261 261 262 262 262 262 262 262 261 261 261 262 262 261 261 262 268 270 271 272 273 274 270 269 268 267 267 267 268 268 268 268 268
264 262 261 261 261 260 260 260 261 260 260 261 260 260 261 260 260 260 261 261 261 261 261 261 261 265 269 270 271 272 271 268 267 267 267 267 267 267 268 268 268 268
262 260 260 260 259 259 259 260 260 260 259 260 259 259 259 259 260 260 260 260 260 260 260 260 260 264 269 270 271 271 271 268 267 266 266 266 266 267 268 268 268 270
261 260 259 258 258 259 258 258 258 259 259 259 259 259 259 259 259 259 259 259 259 260 262 262 260 262 267 268 270 271 269 268 267 267 266 266 266 266 267 267 267 269
259 259 258 257 258 258 258 258 259 258 258 258 258 258 258 258 258 258 258 258 259 259 259 260 260 260 262 268 270 271 272 268 268 266 266 266 266 266 266 267 267 268

ECMWFNIL_sfc_thetae_036.txt.gz
Theta_e
281 280 280 280 280 280 280 280 279 279 279 278 278 278 278 278 279 278 278 278 279 278 278 278 278 278 279 278 278 278 279 278 278 280 279 279 279 280 280 280 280 280
280 281 281 281 281 281 281 281 280 280 279 278 278 278 278 278 278 278 278 278 278 278 278 278 278 278 278 278 278 277 277 277 277 280 278 278 278 279 279 279 279 280
279 279 279 279 279 279 279 279 279 278 278 278 277 278 279 278 277 277 277 278 277 277 277 277 277 278 278 278 278 277 277 277 276 277 277 277 278 278 278 278 279 279
278 278 278 278 278 278 277 277 277 277 277 277 277 277 278 278 277 277 277 278 276 276 276 276 276 276 277 277 277 277 277 277 277 277 276 276 276 277 277 278 278 278
278 278 278 278 278 277 277 278 278 278 277 277 277 277 277 277 277 277 277 276 276 276 276 276 276 276 276 276 276 276 276 276 276 276 276 276 276 276 277 277 276 276
277 278 278 278 278 278 278 278 277 277 277 277 277 277 277 277 277 276 277 276 276 276 276 276 276 275 275 275 275 275 275 275 275 275 275 275 275 276 276 276 275 275
278 278 278 278 277 277 277 276 276 277 276 276 276 276 276 276 276 276 276 276 276 276 275 275 275 275 276 275 275 275 275 275 275 275 274 275 275 275 275 275 275 275
276 275 275 275 275 276 277 276 276 276 276 276 276 276 276 276 275 276 275 275 275 275 275 274 274 274 274 274 274 274 274 276 275 274 274 274 274 274 274 275 275 274
275 275 275 275 275 275 275 275 275 275 275 275 275 275 275 275 274 274 275 274 274 274 274 274 274 274 274 274 274 274 274 274 275 274 274 274 274 274 274 274 274 274
275 274 274 274 275 274 274 274 274 275 275 275 275 275 274 274 274 274 274 273 273 273 273 273 273 273 273 273 274 274 274 274 274 274 274 274 274 274 274 274 274 274
274 274 274 274 274 274 274 274 274 274 274 274 274 274 274 273 273 273 273 273 273 272 272 272 273 273 273 273 273 273 273 273 273 273 273 273 274 274 275 274 274 274
274 274 274 274 274 274 274 274 274 274 273 273 274 273 273 273 272 272 272 272 272 272 272 272 272 272 272 272 272 272 273 273 273 273 273 274 274 274 274 274 274 274
274 275 274 274 274 274 274 274 273 273 273 272 273 272 272 271 271 271 271 271 271 271 271 271 271 271 271 271 272 272 272 273 273 273 273 274 274 274 274 274 274 274
274 274 274 274 274 274 273 272 272 271 271 271 270 270 270 270 270 270 270 270 270 270 270 270 270 270 270 270 271 272 272 272 272 272 272 272 273 273 273 273 273 274
274 274 274 273 273 272 271 271 270 270 269 269 269 269 269 269 269 269 268 268 269 269 269 269 269 269 269 270 271 272 272 272 272 272 272 271 271 272 272 272 272 272
273 273 272 272 271 270 269 268 268 268 268 267 267 267 267 267 267 267 267 267 266 267 267 267 267 268 269 273 275 273 272 272 272 272 272 271 271 271 271 271 271 272
271 271 270 269 269 268 266 266 267 265 264 264 264 264 265 265 266 266 265 265 265 265 265 266 266 267 271 273 275 276 274 273 272 272 272 271 271 270 270 270 271 271
270 269 267 267 266 265 265 263 263 263 262 263 262 263 263 263 264 264 264 264 264 264 264 264 265 268 271 273 274 275 276 273 272 271 271 271 271 270 270 270 270 270
267 265 265 264 264 263 263 262 261 262 262 262 262 262 262 262 263 263 263 263 263 263 263 263 263 267 270 273 274 275 275 274 272 271 270 270 270 270 269 269 268 268
265 264 264 263 263 262 262 261 261 261 261 260 261 262 262 261 261 262 262 262 262 262 262 262 263 266 270 273 274 274 275 274 271 271 270 269 269 269 268 268 267 267
265 263 262 262 262 261 260 260 260 259 261 261 260 261 261 260 260 260 260 260 261 261 261 261 262 268 271 272 273 274 274 274 270 269 269 268 268 268 268 268 268 268
263 262 261 261 262 260 259 260 260 259 259 260 259 260 258 259 260 258 260 259 260 260 260 260 261 267 269 271 272 273 274 270 268 268 267 267 267 268 268 268 268 268
263 261 261 260 260 259 258 259 260 259 259 258 258 259 259 259 258 259 259 259 259 259 259 259 260 264 269 270 271 273 271 268 268 267 267 267 267 267 268 268 268 268
262 260 260 259 258 257 257 259 258 258 257 257 258 258 258 258 258 258 258 258 259 258 259 259 260 263 268 270 271 271 271 268 267 267 267 267 267 268 268 268 268 270
260 259 259 258 257 258 257 257 257 257 257 256 257 256 257 257 258 257 257 258 258 258 261 261 260 261 266 268 270 271 270 268 268 267 267 267 267 267 268 268 268 269
259 258 258 257 258 257 256 256 256 256 256 256 256 256 257 257 257 257 257 257 258 258 258 259 259 259 261 268 270 271 272 269 268 267 267 267 267 267 267 267 268 268

ECMWFNIL_sfc_thetae_039.txt.gz
Theta_e
283 283 282 282 282 282 282 282 282 281 281 281 281 281 280 280 281 281 281 281 281 280 280 280 281 281 281 281 281 280 281 280 280 281 280 281 281 281 281 281 282 282
283 283 283 283 282 282 282 282 282 281 281 281 281 281 281 281 280 281 280 280 280 280 280 280 280 280 280 280 280 280 280 280 279 281 280 280 280 280 280 280 281 281
282 282 282 281 281 281 281 281 281 281 281 281 281 281 281 281 280 280 280 280 279 279 280 280 279 279 279 279 280 279 279 279 279 280 279 279 279 279 279 280 280 280
281 281 281 281 281 281 281 281 280 280 280 280 280 280 280 280 280 279 279 279 279 279 279 279 279 279 279 279 279 279 279 279 279 279 279 279 279 279 279 279 279 279
281 281 281 281 281 281 281 280 280 280 280 280 280 280 280 279 279 279 279 278 278 278 278 278 278 278 278 278 278 278 278 278 278 278 278 278 278 278 278 278 278 278
280 281 281 280 280 280 280 280 280 280 280 280 279 279 279 279 279 278 278 278 278 278 278 278 278 278 278 278 278 277 277 277 277 277 277 277 277 278 278 278 277 277
279 279 279 280 280 280 279 279 279 279 279 279 279 279 279 279 278 278 278 278 277 277 277 277 277 277 277 277 277 276 277 277 277 277 276 276 277 276 277 277 277 276
279 279 278 278 278 278 279 279 279 279 279 279 279 279 278 278 278 278 278 277 277 276 276 276 276 276 276 276 276 276 276 276 276 276 276 275 276 275 276 276 276 276
278 278 278 278 278 278 278 278 278 278 278 278 278 278 278 277 277 277 276 276 275 275 275 275 275 275 275 275 275 275 275 275 275 275 275 275 275 275 275 276 276 276
278 278 278 278 278 278 277 277 277 277 277 277 277 277 276 276 276 275 275 275 274 274 274 274 274 274 274 274 274 274 274 274 274 274 274 274 274 275 275 275 275 275
278 278 278 277 277 277 277 277 277 276 276 276 275 275 275 274 274 274 273 273 273 273 273 273 273 273 273 273 273 274 273 273 273 274 274 274 274 275 275 275 274 274
277 277 277 277 277 276 276 276 276 275 274 274 274 273 273 273 272 272 272 272 272 272 272 272 272 272 272 272 272 272 272 273 273 274 274 274 274 274 274 274 274 274
277 277 277 277 276 276 276 275 274 273 273 272 273 272 271 271 271 271 271 271 271 271 271 271 271 271 271 271 271 271 272 273 273 273 273 274 274 274 274 274 274 273
277 277 276 276 276 275 274 273 272 272 271 271 271 270 270 270 270 269 270 270 270 269 270 270 269 270 270 270 270 271 273 273 273 273 273 273 273 273 273 273 273 273
276 276 275 275 274 273 272 271 271 270 270 270 269 269 269 269 269 269 268 268 268 268 268 268 268 268 269 269 271 273 274 273 273 273 273 273 273 273 273 273 273 273
275 275 274 273 272 271 270 269 269 269 268 268 268 267 267 267 267 268 267 267 267 267 267 267 267 268 269 272 275 274 274 274 273 273 273 273 272 272 272 272 272 272
274 273 272 271 270 269 268 268 268 267 267 266 266 266 266 266 266 266 266 266 266 266 265 266 266 267 270 273 274 275 274 274 273 273 273 272 272 271 271 271 272 272
272 271 270 269 268 267 267 266 266 265 265 265 264 264 265 265 265 265 265 265 265 265 265 265 265 267 271 272 274 275 275 274 274 273 272 272 271 271 271 270 270 270
270 269 268 267 266 265 265 264 264 264 263 263 263 264 264 264 264 264 264 264 264 263 263 264 264 267 270 272 273 275 275 275 273 273 272 271 271 270 270 269 269 269
268 267 266 266 265 264 264 263 263 263 263 263 263 263 263 263 263 263 263 263 263 263 263 263 263 266 270 272 273 274 275 275 273 272 271 270 269 269 269 269 268 268
267 266 265 264 264 263 263 263 262 262 262 262 262 262 262 262 262 261 261 261 261 262 262 262 262 267 270 271 272 273 275 275 272 270 269 269 269 269 269 269 269 269
266 265 264 263 263 262 261 263 262 262 261 262 261 261 261 262 261 261 261 260 261 261 260 261 262 267 269 270 272 273 274 272 270 269 268 268 268 269 269 269 269 269
266 264 263 262 262 261 260 261 262 261 260 261 260 261 261 260 260 260 260 260 260 260 260 260 261 264 268 270 271 273 272 270 270 269 268 268 268 269 269 269 269 269
265 263 262 262 260 260 260 262 261 260 260 260 260 259 259 259 259 259 259 259 259 259 259 259 260 263 267 269 271 272 272 270 269 268 268 268 268 269 269 269 270 271
263 262 262 260 260 261 259 259 259 259 259 259 258 258 258 258 258 258 258 258 258 259 261 261 260 262 266 268 270 271 271 270 270 269 268 268 268 268 269 270 270 271
262 261 260 259 260 259 258 259 259 257 257 258 257 257 257 258 257 257 257 257 258 258 259 260 259 260 262 268 269 271 272 270 270 269 268 268 269 269 268 269 270 270

ECMWFNIL_sfc_thetae_042.txt.gz
Theta_e
289 289 288 288 288 288 288 287 287 287 286 286 286 285 285 285 286 285 285 285 285 285 285 285 285 285 286 286 286 286 285 285 285 285 285 285 285 284 284 284 284 284
288 288 288 288 287 287 287 287 287 286 286 286 286 285 285 285 285 285 285 285 285 284 284 284 284 284 284 284 284 285 284 284 284 285 284 284 284 284 284 283 284 284
288 288 288 287 287 287 287 287 287 286 285 285 285 285 285 285 284 284 284 284 284 284 284 284 284 283 283 283 284 284 283 283 283 283 283 283 283 283 283 283 283 283
287 287 287 287 287 286 286 286 286 285 285 285 284 284 284 284 284 284 283 283 283 283 283 283 283 283 283 283 283 284 283 283 283 283 283 283 283 283 282 283 283 282
286 286 286 286 286 286 286 286 285 285 285 284 285 285 284 284 284 284 283 283 283 283 283 283 283 283 282 283 283 283 282 283 283 282 282 282 283 282 282 282 281 281
286 286 286 286 286 286 285 285 285 285 285 284 284 284 284 284 284 283 283 283 282 282 282 282 282 282 282 282 282 282 281 281 281 281 280 280 281 282 282 281 281 280
285 285 285 285 285 286 285 285 285 285 284 284 284 283 283 283 282 282 282 282 281 281 281 281 281 280 281 281 280 280 280 280 280 279 279 279 280 280 281 280 280 279
284 285 285 285 285 285 284 284 284 284 284 283 282 282 282 281 281 281 281 280 280 280 280 280 279 280 279 279 279 278 279 279 279 278 278 278 279 278 279 280 279 279
284 284 284 284 284 284 283 283 283 282 282 281 281 281 281 280 280 280 279 279 279 279 279 278 278 278 278 278 278 277 277 278 278 278 277 277 277 278 278 279 278 278
284 284 284 284 283 283 282 282 282 281 281 280 280 280 279 279 279 278 278 278 278 278 278 277 277 277 277 277 277 277 277 276 277 277 277 277 277 277 278 277 277 277
283 284 284 283 283 283 282 281 280 280 280 279 279 279 278 278 278 278 277 277 276 277 277 277 276 276 276 276 276 276 276 276 276 277 277 277 277 277 277 277 277 276
284 284 283 283 282 282 281 280 280 279 278 278 278 278 277 277 276 277 276 276 276 276 276 276 276 275 275 275 275 275 275 276 276 277 277 277 277 277 277 277 276 276
284 283 282 282 281 281 280 279 278 277 277 277 277 276 276 276 276 275 276 275 275 275 274 274 274 274 274 275 274 275 275 276 276 277 277 277 277 277 277 277 276 276
283 282 282 281 281 280 279 278 277 276 276 276 275 275 275 275 274 274 275 274 274 274 274 274 273 274 274 274 274 275 276 276 276 276 276 276 276 277 277 276 276 276
282 281 281 280 279 278 277 277 276 275 275 275 274 274 274 274 273 273 273 273 273 273 272 273 272 273 273 273 274 276 276 276 276 276 275 275 276 276 276 276 276 276
281 280 280 279 278 277 276 276 275 274 274 273 273 273 273 272 272 272 272 272 272 272 272 272 272 272 271 272 275 276 276 276 275 275 275 275 275 275 275 275 275 275
281 280 279 278 278 276 275 274 274 273 273 272 271 271 271 271 271 271 271 271 271 271 271 271 271 271 271 274 275 276 275 275 275 275 275 275 275 274 274 274 274 274
280 279 279 277 276 274 273 273 272 272 271 271 270 270 270 270 270 270 270 270 270 270 270 270 271 271 272 273 274 275 276 275 275 274 274 274 274 274 274 273 273 273
280 279 277 275 275 273 272 271 270 270 270 269 269 270 269 269 270 269 269 269 269 269 269 269 270 270 271 273 274 275 275 275 275 275 274 274 274 273 273 272 272 272
279 278 276 275 273 272 271 270 270 270 270 270 269 268 269 269 269 268 268 268 268 268 268 268 269 269 271 272 273 274 275 275 274 274 274 273 272 272 272 272 272 271
278 277 275 273 271 270 270 270 270 269 268 268 268 268 268 268 268 267 267 266 266 266 267 267 268 269 271 272 273 274 275 275 274 273 272 272 272 271 271 271 271 271
276 275 274 272 271 270 269 270 269 268 268 269 267 268 268 267 267 267 265 265 265 265 265 265 267 269 270 271 272 273 274 273 272 271 271 271 271 271 271 271 272 271
276 275 273 271 270 269 269 269 269 268 267 267 266 267 267 267 266 265 265 265 264 264 264 264 266 267 269 271 272 273 273 271 271 271 271 270 271 271 271 272 272 272
275 274 272 271 270 269 268 269 269 269 267 266 266 266 266 266 265 265 264 264 263 263 263 263 264 266 269 270 271 272 272 271 271 270 270 270 270 271 272 272 272 273
274 273 272 270 269 269 268 268 267 267 267 266 265 265 265 265 264 264 263 263 263 262 263 264 264 265 267 269 270 271 272 271 271 270 269 270 270 270 272 272 272 273
272 271 270 269 268 268 267 267 267 265 264 264 264 265 265 265 264 263 262 262 263 262 262 263 263 264 265 268 270 271 272 271 271 270 269 270 270 270 270 272 273 273

ECMWFNIL_sfc_thetae_045.txt.gz
Theta_e
291 291 291 290 290 290 289 289 289 288 288 288 287 286 286 287 287 287 287 287 287 287 287 286 286 286 287 287 287 287 286 286 286 285 286 285 285 285 285 285 285 285
290 290 290 290 290 290 289 289 289 288 287 287 287 286 287 287 286 287 286 286 286 286 286 286 286 285 285 285 286 285 285 285 284 286 284 285 284 284 284 284 284 284
290 290 289 289 289 289 289 289 289 288 288 287 287 287 286 286 286 286 286 286 286 285 285 285 285 285 285 284 285 285 284 284 284 284 284 285 285 284 284 284 284 284
290 290 289 289 289 288 289 288 287 287 287 287 286 286 286 286 286 285 285 285 285 285 285 285 284 284 284 284 285 284 284 284 284 283 283 284 284 284 283 283 283 283
289 289 289 289 289 288 288 288 287 287 286 286 286 286 286 286 285 285 285 285 285 284 284 284 284 283 283 283 284 283 283 283 283 282 282 282 283 283 283 282 282 281
288 289 288 288 288 288 288 287 287 287 286 286 286 286 285 285 285 284 284 283 283 283 283 283 283 282 282 282 282 282 282 282 281 281 280 280 281 282 282 282 281 280
287 287 287 287 288 288 287 287 286 286 286 286 285 285 285 284 283 283 283 283 282 282 282 281 281 281 281 281 281 280 280 280 280 280 279 279 280 280 281 281 280 279
287 287 287 287 287 286 286 286 286 285 285 285 284 284 284 283 282 282 282 281 281 281 281 281 280 280 280 280 279 279 279 280 280 279 278 278 278 278 279 280 279 278
286 286 286 286 286 286 285 285 284 284 284 283 283 282 282 282 281 281 281 280 280 280 280 280 279 279 279 279 278 278 278 278 279 278 277 277 277 278 278 278 278 278
285 285 285 285 285 285 284 284 283 283 283 282 282 282 281 281 281 280 280 279 279 279 279 278 278 278 278 278 278 277 277 277 277 277 277 277 277 277 277 277 277 277
284 285 284 284 284 284 283 283 282 282 281 281 281 280 280 280 280 279 278 279 279 278 278 278 277 277 277 277 277 277 276 276 276 277 277 277 277 277 278 277 277 277
284 284 284 284 284 283 282 282 281 281 280 280 280 280 279 279 278 278 278 277 278 277 277 277 277 276 276 276 276 276 276 276 276 277 277 277 277 277 277 277 277 276
284 284 284 284 283 283 282 281 280 280 279 279 279 278 278 278 278 277 278 277 277 277 276 276 276 276 276 276 276 275 275 276 277 277 277 277 277 277 277 277 277 277
284 285 285 284 283 282 281 280 279 279 278 278 278 277 277 277 277 276 277 276 276 276 276 275 275 275 275 275 275 275 276 277 277 277 277 277 277 277 277 277 277 277
285 285 284 283 282 281 280 279 278 278 278 277 277 277 277 276 276 276 275 275 275 275 274 275 274 274 275 274 274 275 276 276 276 276 276 276 276 276 277 277 276 276
285 284 282 281 280 279 279 278 278 277 277 276 276 276 276 275 275 275 275 275 274 274 274 274 274 274 274 274 274 275 276 276 276 276 276 275 275 275 276 276 276 276
283 282 281 280 280 279 279 278 277 277 276 276 275 275 274 274 274 274 274 274 274 273 273 274 274 274 274 275 276 277 276 275 275 275 275 275 275 275 274 275 275 276
283 282 281 280 279 279 278 278 277 276 275 274 274 273 273 273 273 273 274 273 273 273 273 273 273 274 275 275 276 276 277 276 275 275 275 275 275 275 275 275 275 274
283 282 281 280 279 278 277 276 275 275 274 273 273 273 273 272 273 273 272 273 272 272 272 272 273 274 275 275 275 276 276 276 275 275 274 274 274 274 274 274 273 273
283 281 281 280 278 277 276 275 274 274 274 273 273 272 272 272 272 272 272 272 271 271 271 272 272 273 274 275 275 275 276 276 275 274 274 274 274 274 274 273 272 272
282 281 280 279 277 276 275 274 274 274 273 273 272 272 272 271 271 270 271 270 270 270 270 270 271 273 274 274 275 275 275 276 274 274 274 274 274 273 273 272 272 272
282 281 280 278 276 275 274 274 273 273 272 272 272 272 272 272 272 271 270 269 269 268 268 268 269 273 273 274 274 274 275 274 273 273 272 272 272 272 272 272 272 272
282 281 280 278 276 274 273 274 273 272 272 272 271 272 271 270 270 269 269 268 267 267 267 267 268 270 272 273 273 274 274 272 272 271 271 271 272 272 272 272 272 272
282 281 279 277 276 274 273 274 274 273 272 271 270 270 271 270 269 268 268 268 267 266 266 266 266 269 271 272 273 273 273 272 271 271 271 271 271 272 272 272 273 274
281 281 280 278 276 275 274 273 273 272 271 270 270 270 270 269 268 268 267 266 266 265 266 266 265 267 270 271 272 272 272 271 271 270 270 270 271 271 272 272 272 273
281 279 279 277 276 275 274 273 272 271 269 269 268 269 269 268 267 267 265 265 266 265 264 265 265 265 267 270 271 272 273 272 271 270 270 270 271 271 271 272 272 273

ECMWFNIL_sfc_thetae_048.txt.gz
Theta_e
288 287 287 286 286 286 285 284 284 284 283 283 282 283 283 283 284 283 283 283 282 282 282 282 281 281 283 282 282 282 281 280 280 280 279 280 279 279 280 279 279 279
287 287 287 286 286 286 285 285 284 284 283 283 283 282 283 283 283 283 282 282 282 282 282 282 281 281 280 280 280 280 279 279 278 282 279 279 279 278 278 278 278 278
286 286 286 285 285 285 285 285 284 283 283 283 283 283 283 282 282 281 282 281 281 281 281 281 280 280 279 279 279 279 279 278 278 278 278 278 279 278 278 277 277 278
286 286 286 285 285 284 284 284 283 283 282 282 282 283 283 283 281 280 280 281 280 279 279 279 279 278 278 278 278 278 278 278 278 277 277 278 278 278 277 277 278 277
285 285 285 285 284 284 284 283 283 282 282 282 282 282 282 281 280 279 279 279 278 278 279 278 278 278 278 277 277 277 277 277 277 276 276 276 276 277 278 277 277 276
284 285 284 284 284 284 283 283 282 282 282 281 282 282 280 279 279 278 278 278 277 278 277 277 277 277 277 276 276 276 276 277 276 275 275 275 275 276 278 277 276 275
283 283 283 283 283 283 282 282 282 282 281 281 281 280 279 279 278 278 278 277 277 277 276 276 276 276 276 275 275 275 275 275 275 275 274 274 274 274 275 276 275 275
282 282 283 282 282 282 282 281 281 281 280 280 279 279 279 278 278 278 277 277 276 276 276 276 276 276 275 274 274 274 274 277 276 274 273 273 273 273 273 276 274 274
282 282 282 281 281 281 281 281 280 280 280 279 279 278 278 277 277 276 276 276 275 276 275 275 275 275 275 274 274 274 274 273 274 273 273 273 272 273 273 274 273 273
281 282 281 281 280 280 280 279 279 279 279 279 278 277 277 277 276 276 276 275 275 274 274 274 275 274 274 274 274 273 273 273 273 273 272 273 273 273 273 273 273 273
281 281 281 280 280 279 279 278 278 278 278 278 277 277 276 276 276 274 274 275 276 274 274 274 273 273 274 274 273 273 273 273 272 272 273 273 273 273 277 274 273 273
280 280 280 279 279 278 278 278 278 278 278 277 277 276 275 275 275 274 274 273 273 273 273 273 273 273 273 272 273 273 273 272 272 272 273 273 273 274 273 273 273 273
280 280 280 279 279 278 278 277 277 276 276 276 277 276 275 274 274 274 274 273 273 273 273 273 273 273 272 272 272 272 272 272 272 273 273 273 274 274 273 273 273 273
280 280 279 279 279 279 278 277 277 276 276 276 276 276 275 274 274 273 273 273 273 272 272 272 272 272 272 271 271 271 273 273 274 274 273 273 273 273 273 273 273 273
281 281 281 280 279 279 278 277 277 277 277 276 276 275 275 274 273 273 273 272 272 272 272 272 272 272 272 271 271 272 273 273 273 273 273 272 272 273 273 273 273 273
281 282 280 279 279 279 278 277 277 276 276 276 276 275 275 274 273 273 272 272 272 271 271 272 272 272 274 277 276 272 272 273 273 272 272 272 272 272 272 273 273 273
281 280 280 279 279 278 277 276 276 276 276 275 274 274 273 273 272 272 272 272 271 271 271 271 272 272 276 277 277 278 275 274 273 272 273 272 271 271 271 272 272 273
281 280 280 279 278 277 276 276 275 275 274 274 273 273 272 272 271 271 271 271 271 270 270 270 270 276 277 278 278 278 277 275 274 274 274 273 273 272 271 271 272 272
279 279 279 278 277 276 275 274 274 273 273 273 273 273 272 271 271 271 270 270 270 270 269 269 270 275 277 278 278 278 278 277 275 274 273 273 273 273 273 273 272 271
279 279 278 277 276 275 274 274 273 273 273 273 273 272 271 270 268 269 269 269 269 269 268 268 269 274 277 278 277 277 277 277 275 274 273 273 273 273 273 272 271 269
279 279 278 277 276 275 274 273 273 272 273 273 272 272 270 269 269 269 269 268 267 267 267 268 269 274 276 277 277 277 277 277 275 274 273 273 273 273 273 270 269 270
279 278 278 276 275 274 273 274 273 273 273 272 270 269 267 268 267 267 268 268 267 265 266 266 267 274 275 276 277 277 277 275 273 273 272 272 272 272 271 271 270 270
280 279 278 276 275 274 274 274 273 272 271 270 269 270 269 269 268 268 267 267 266 265 265 265 265 271 275 276 276 277 276 273 272 271 270 269 270 271 271 271 270 270
280 279 278 277 275 274 274 274 272 271 270 270 270 269 269 268 267 266 266 266 265 265 265 264 264 268 273 275 275 276 275 272 271 270 270 270 270 271 271 271 271 273
280 279 279 277 276 275 274 273 272 272 271 269 269 269 268 267 267 266 264 264 264 264 268 266 264 266 272 274 275 275 275 272 271 270 269 269 269 269 271 271 271 272
280 279 279 278 277 275 274 273 272 270 269 269 268 268 267 266 266 265 264 264 264 263 264 265 264 263 266 273 274 275 276 272 270 269 268 269 269 270 269 270 270 271

ECMWFNIL_sfc_thetae_051.txt.gz
Theta_e
285 285 285 284 283 284 283 282 282 282 281 281 281 281 281 281 282 281 281 281 281 280 280 280 280 281 281 280 280 280 279 279 279 278 278 279 277 278 279 277 277 277
285 285 285 284 284 284 283 283 282 282 281 281 282 282 282 281 281 281 281 281 281 280 280 280 280 280 280 280 279 279 278 278 278 280 277 277 277 277 277 276 276 276
285 285 284 284 284 283 282 282 282 282 282 282 282 282 282 281 281 281 280 280 280 280 280 279 279 279 278 278 278 279 278 277 277 276 277 276 276 277 276 276 276 276
284 285 284 284 283 283 282 282 281 281 281 281 281 281 282 282 281 280 280 281 280 279 279 278 278 278 277 277 277 278 277 276 276 275 276 276 276 276 276 276 276 275
284 284 283 283 283 283 283 282 281 281 281 281 281 281 281 280 280 280 280 279 279 278 278 278 277 277 277 277 276 276 276 276 275 275 275 274 275 276 277 276 275 275
283 283 283 283 283 283 282 281 281 281 281 280 280 281 280 280 280 279 279 278 278 278 277 277 277 276 276 276 276 275 276 276 274 274 273 273 274 274 277 275 274 274
282 282 282 282 282 282 281 281 281 281 281 281 281 280 280 279 279 278 278 278 277 277 277 276 276 276 275 275 275 274 274 274 273 273 273 273 273 273 274 274 273 273
282 282 282 282 281 281 281 281 280 280 280 280 280 279 279 279 278 278 277 277 277 276 276 276 275 275 274 274 274 273 273 276 274 272 272 272 272 272 272 274 273 273
282 282 282 281 281 281 280 280 280 280 280 280 279 278 278 278 278 277 277 277 276 276 276 275 275 274 274 273 273 273 272 272 273 271 271 272 272 272 272 272 272 272
281 281 281 281 281 280 280 280 280 279 279 279 278 278 278 277 277 277 276 276 276 275 275 274 274 274 273 273 273 272 272 272 271 271 271 271 272 272 272 273 273 272
281 281 281 281 280 280 280 279 279 279 278 278 277 277 277 276 276 275 275 275 275 275 274 274 273 273 273 272 272 272 271 271 271 271 272 272 272 272 276 274 273 272
281 281 281 280 280 280 279 279 278 278 278 277 277 277 276 276 275 275 275 275 274 274 274 273 273 273 272 272 271 271 271 271 271 271 272 272 273 273 273 272 273 272
281 281 280 280 280 279 279 278 278 278 277 277 277 277 276 275 275 275 275 275 274 274 273 273 273 272 272 271 271 270 270 270 271 271 272 272 273 273 273 273 273 272
281 280 280 280 279 279 278 278 277 277 277 277 277 276 276 276 276 276 275 275 274 273 273 272 272 272 271 270 270 270 270 271 271 271 272 272 272 272 273 273 273 273
281 280 280 280 279 278 277 277 277 277 277 277 277 276 276 276 276 276 275 274 273 272 272 272 272 272 272 271 270 272 272 272 271 271 271 271 271 271 272 272 271 272
280 280 280 279 278 277 277 277 277 276 276 276 276 276 276 276 275 275 274 273 272 271 271 272 271 271 274 277 277 272 272 272 272 270 270 270 270 270 270 271 271 271
280 280 279 278 278 278 277 277 277 277 277 277 276 275 275 275 274 274 272 272 272 271 271 271 271 271 277 279 279 278 273 272 271 269 270 270 270 270 270 270 271 271
281 280 279 279 279 278 277 277 277 277 276 276 275 274 274 274 273 272 272 271 271 271 270 270 270 275 278 279 280 280 278 273 270 269 269 271 271 270 270 270 270 271
281 280 280 280 279 279 278 277 276 276 276 275 274 274 272 271 272 271 271 271 271 270 270 270 270 277 279 280 280 281 281 276 271 271 272 271 271 271 270 270 270 270
280 280 279 280 279 278 277 276 276 275 275 273 272 271 271 271 270 270 270 270 270 270 269 269 269 276 279 280 280 281 281 279 271 273 273 273 272 271 271 271 270 270
280 279 279 279 278 278 277 276 275 274 273 272 271 272 271 271 270 270 270 270 269 269 268 268 269 276 279 280 280 281 281 279 272 273 273 273 272 272 272 271 271 271
280 280 279 278 277 276 275 275 274 273 272 272 271 270 269 269 270 270 270 269 268 267 267 268 268 277 278 279 280 281 281 275 273 273 273 272 271 271 271 271 270 270
280 280 279 278 277 275 274 274 273 272 272 271 270 271 271 270 269 269 269 268 267 267 267 267 267 274 278 279 280 281 279 274 273 272 271 270 270 270 270 270 270 269
280 280 278 277 276 275 275 275 274 273 272 271 271 271 270 270 269 268 267 267 267 267 268 267 266 271 277 279 280 280 278 273 272 271 270 269 268 269 269 269 270 272
279 279 278 277 276 276 275 275 274 274 273 270 271 270 271 269 267 267 266 265 266 266 269 268 266 268 276 278 279 280 278 272 271 269 269 268 267 267 269 269 269 272
279 279 279 278 277 276 275 275 274 272 270 270 270 270 269 267 267 267 266 266 265 265 266 268 266 265 269 278 279 280 280 273 271 269 268 267 267 267 267 267 268 268

ECMWFNIL_sfc_thetae_054.txt.gz
Theta_e
284 283 283 282 282 282 282 282 281 281 281 280 280 280 281 281 281 280 280 280 280 280 280 280 280 280 280 280 279 279 279 279 278 278 278 278 277 277 278 276 276 277
283 283 283 282 282 282 281 282 281 281 280 280 280 280 280 280 280 280 280 280 280 280 280 280 280 279 279 279 278 278 278 279 279 279 278 277 276 276 276 276 276 275
283 283 282 282 282 281 281 281 281 281 281 280 280 280 280 280 280 280 280 280 279 279 279 279 279 279 279 278 278 278 278 277 277 277 278 277 276 276 275 276 276 276
283 283 282 282 282 281 281 281 280 280 280 280 280 280 281 281 280 280 280 280 279 279 279 279 279 279 279 278 277 277 276 276 276 276 277 276 276 276 275 276 276 275
283 282 282 282 282 282 281 281 280 280 280 280 280 280 280 280 279 279 279 279 279 279 278 278 278 278 278 277 277 276 276 276 275 276 276 275 275 276 276 276 274 274
283 283 282 282 282 281 281 281 280 280 280 280 280 280 280 280 279 279 279 278 278 278 278 277 277 277 277 276 276 276 275 275 275 274 274 274 273 275 276 275 274 273
282 282 282 282 281 281 281 281 281 281 280 280 280 279 279 279 279 279 278 278 278 278 277 277 276 276 276 276 275 275 275 274 273 273 273 273 273 273 274 273 273 273
282 282 282 281 281 280 280 280 280 280 280 280 279 279 279 279 279 279 278 278 277 277 276 276 276 276 275 275 275 275 274 275 273 273 272 272 272 272 272 274 272 272
282 282 281 281 280 280 280 280 280 280 280 280 279 279 279 279 279 278 278 277 277 276 276 275 275 275 275 274 274 275 274 273 273 272 272 271 272 272 272 272 272 272
282 281 281 280 280 280 280 280 280 279 280 280 279 279 278 278 278 278 277 277 276 276 275 275 275 275 274 274 274 273 273 273 272 272 271 271 271 271 271 271 271 271
281 281 280 280 280 280 279 279 279 279 279 279 278 278 278 278 278 277 276 276 276 275 275 276 276 275 274 273 273 272 272 272 272 271 271 271 271 271 274 271 271 271
281 280 280 280 280 279 279 279 279 279 279 279 279 279 278 279 278 277 276 276 276 276 276 276 275 275 274 273 272 271 271 271 271 271 271 271 271 272 272 271 271 270
281 281 281 280 280 280 280 279 279 279 279 279 279 279 278 278 277 277 277 276 276 276 276 276 275 274 273 272 271 271 271 271 271 271 271 271 271 271 271 271 271 271
282 281 281 281 280 280 279 279 279 279 279 279 279 278 278 278 277 277 277 276 276 276 276 275 275 274 273 272 271 271 271 270 271 271 271 271 271 271 271 271 271 271
281 281 281 280 280 279 279 279 280 280 279 279 278 278 278 278 277 277 276 276 276 275 275 274 274 274 273 272 271 271 271 271 271 271 272 272 271 271 271 271 270 270
281 281 280 280 280 279 279 280 280 279 279 278 278 278 278 277 277 277 276 276 275 275 274 274 274 273 275 278 276 272 271 272 272 271 272 272 271 271 270 271 271 270
281 280 280 280 280 280 280 280 279 279 278 278 278 277 277 277 276 276 276 276 275 275 274 274 274 273 278 280 280 279 273 272 272 271 271 271 271 271 270 271 270 270
280 280 279 280 280 280 280 280 279 278 278 278 277 277 276 276 276 276 276 275 275 274 274 273 272 276 280 281 281 281 278 272 271 271 271 271 271 270 270 270 270 270
280 279 279 279 279 279 279 279 279 278 278 277 277 277 276 275 276 276 275 274 274 273 273 272 271 277 281 282 282 282 281 276 270 271 270 270 271 271 270 270 270 270
280 280 279 279 280 280 279 278 278 278 278 278 277 276 276 276 275 275 275 274 273 273 272 271 270 276 281 282 283 283 283 279 270 271 271 270 271 271 271 270 270 270
280 280 279 279 280 279 279 278 278 278 278 277 277 276 276 275 275 274 274 273 272 271 270 270 270 276 281 283 283 284 284 282 271 271 271 271 271 271 271 270 270 271
280 280 280 279 279 279 278 278 278 278 277 277 276 276 275 275 274 274 273 271 271 269 269 269 270 277 280 283 283 284 284 279 272 272 271 270 270 271 271 271 270 270
280 280 280 279 279 278 278 278 278 277 277 276 275 275 274 273 273 272 271 270 269 269 269 270 269 275 280 282 283 284 283 275 272 272 271 270 270 270 271 271 270 270
281 280 280 280 279 279 279 279 279 278 277 275 275 274 274 273 272 270 269 269 269 269 269 269 269 272 279 282 283 284 282 275 273 272 271 271 271 271 270 270 270 273
281 281 281 280 280 280 279 279 278 277 277 274 274 273 273 270 269 269 268 267 268 269 271 270 269 271 278 281 283 283 282 274 272 271 270 270 270 269 269 269 269 272
281 281 281 280 280 280 279 278 277 275 274 273 271 271 270 269 268 268 268 268 267 266 267 269 269 268 271 280 282 283 283 275 272 271 270 269 268 268 266 267 268 268

ECMWFNIL_sfc_thetae_057.txt.gz
Theta_e
287 286 285 284 283 283 282 282 282 281 281 281 281 281 281 280 281 280 280 280 280 280 280 280 280 280 280 279 279 279 279 279 278 278 278 278 277 277 277 276 276 276
285 285 284 283 283 282 282 282 281 281 281 280 280 280 280 280 280 280 280 280 280 280 280 280 280 280 279 279 279 279 279 279 278 279 278 277 277 277 276 276 276 276
284 283 282 282 282 281 281 281 281 280 280 280 280 280 280 280 280 280 280 280 280 279 279 279 279 279 279 279 279 279 279 278 278 277 277 277 277 276 276 276 275 275
282 282 282 281 281 281 281 280 280 280 279 280 280 280 281 281 280 280 279 280 279 279 279 279 279 278 278 278 278 278 278 278 278 277 277 276 276 276 275 276 276 275
282 281 281 280 280 281 280 280 280 280 280 280 280 280 280 280 279 279 279 279 279 279 279 278 278 278 278 278 278 277 277 277 277 277 277 276 276 276 276 275 274 274
281 281 281 280 280 280 280 280 280 280 280 280 280 280 280 279 279 279 279 279 278 278 278 278 278 277 277 277 277 277 277 276 276 276 276 275 275 276 276 275 274 274
281 280 280 280 280 280 280 280 280 281 280 280 280 279 279 279 279 279 279 279 278 278 278 278 277 277 276 276 276 276 275 275 275 275 275 274 275 274 274 274 273 273
281 280 280 280 280 280 280 280 280 280 279 279 279 279 279 279 279 279 278 278 278 278 277 277 277 277 276 276 276 275 274 275 274 274 273 273 273 273 273 274 273 272
281 280 280 280 280 280 280 279 279 279 279 279 279 279 278 278 278 278 278 278 278 277 277 276 277 276 276 275 275 275 275 274 274 273 273 273 273 273 273 272 272 272
281 281 280 280 280 280 279 279 279 279 279 279 279 278 278 278 278 278 278 278 277 277 276 276 276 276 276 276 276 276 275 274 273 273 272 272 273 272 272 272 272 271
281 280 280 280 279 279 279 279 279 279 279 278 278 278 278 278 278 278 278 278 278 277 277 277 276 276 276 276 276 276 275 274 273 272 272 272 272 272 274 272 272 272
281 280 280 280 279 279 279 279 279 278 279 279 279 279 278 278 278 278 278 278 278 278 277 277 277 276 276 276 275 275 275 274 273 272 272 272 271 272 272 272 272 271
281 281 280 280 280 279 279 279 279 279 279 279 280 279 279 278 278 278 278 278 277 277 277 277 277 276 276 275 275 274 274 273 272 271 271 271 271 272 272 272 272 272
281 281 280 280 280 279 279 279 279 279 280 280 280 279 279 279 279 278 278 278 277 277 277 277 276 276 276 275 275 274 274 273 272 272 271 271 271 271 271 271 271 272
282 281 281 280 280 279 279 279 280 280 280 280 280 279 280 279 279 278 278 277 277 277 276 276 276 276 275 275 275 274 274 273 272 272 272 272 271 271 271 271 271 271
282 282 281 280 279 279 280 280 280 280 280 280 280 280 279 279 278 278 278 277 276 276 276 275 275 275 277 279 278 275 274 273 272 272 272 272 272 271 271 271 272 272
281 281 281 280 280 280 281 280 280 280 280 280 279 279 279 278 278 277 277 277 276 276 275 275 275 275 279 281 281 280 275 273 273 273 272 272 272 271 271 271 272 272
281 281 280 281 281 281 281 281 280 280 280 280 279 279 278 278 277 277 277 277 276 276 275 275 275 278 281 282 283 282 279 274 273 273 272 272 272 271 271 271 271 271
281 281 281 281 281 281 281 281 280 280 280 279 278 279 278 277 277 277 276 276 276 275 275 275 275 279 281 283 284 283 282 277 273 272 272 271 272 272 271 271 270 270
281 281 281 281 281 281 280 280 280 279 279 279 279 278 277 277 277 277 277 276 276 275 275 275 275 279 282 283 284 284 284 280 272 272 272 271 272 271 271 271 271 270
281 281 280 281 281 281 280 280 279 279 279 279 278 278 277 277 277 276 276 276 276 276 275 275 275 279 282 283 284 285 285 283 272 272 271 271 271 271 271 271 271 271
281 280 281 281 280 280 280 279 279 279 279 279 278 278 278 277 277 277 276 276 276 275 274 274 274 279 281 283 284 285 285 281 273 272 271 271 270 271 271 271 271 270
281 281 281 281 280 280 279 279 279 279 279 279 278 278 278 277 276 276 277 276 275 274 274 274 274 277 281 282 284 285 284 279 274 272 271 270 270 271 271 271 271 270
281 281 281 280 280 279 279 279 279 279 279 278 278 277 277 277 277 276 275 275 275 274 274 274 274 275 280 282 283 285 284 279 275 273 272 272 271 271 271 270 271 273
281 281 281 281 280 280 280 279 279 279 279 278 277 277 277 277 275 275 275 274 274 274 275 273 273 274 278 281 283 284 284 279 275 273 273 272 271 271 271 270 270 272
281 281 281 281 281 280 280 280 280 279 278 277 277 277 277 276 274 274 274 274 272 271 271 272 271 271 273 279 281 283 285 280 274 273 273 273 272 271 270 269 269 269

ECMWFNIL_sfc_thetae_060.txt.gz
Theta_e
289 288 288 287 287 287 285 284 284 283 283 281 281 281 281 281 281 280 280 280 280 280 280 280 280 280 280 280 280 280 279 279 278 278 279 279 278 278 278 277 277 277
288 288 288 287 287 286 285 285 284 283 282 281 281 281 280 280 280 280 280 280 280 280 280 280 280 280 280 280 279 279 279 279 278 280 279 279 278 279 278 277 277 277
288 288 287 286 285 284 284 284 284 283 282 281 280 280 280 281 280 280 280 280 280 280 280 280 279 279 279 279 279 279 279 279 278 278 279 278 278 278 277 277 276 276
287 287 287 286 285 284 284 283 283 282 280 280 280 280 281 281 280 280 280 280 280 279 279 279 279 279 279 279 279 279 279 279 278 278 278 277 277 277 276 276 276 276
287 286 286 285 284 284 283 283 282 281 280 280 280 280 280 280 279 279 279 279 279 279 279 279 279 278 278 278 278 278 278 277 277 277 277 276 276 277 276 276 275 275
286 286 285 284 283 283 282 282 282 281 280 279 280 280 280 280 279 279 279 278 279 279 279 278 278 277 278 277 277 277 277 277 277 277 277 276 276 276 276 275 275 275
284 284 283 283 283 282 282 281 281 280 280 280 280 280 279 279 279 279 279 279 279 279 278 278 277 277 277 277 277 277 278 278 277 277 276 275 275 275 275 274 274 274
284 283 283 282 282 281 281 280 280 280 280 279 279 279 279 279 279 279 279 279 278 278 277 277 277 277 277 277 278 278 277 277 277 276 275 275 275 274 274 274 274 273
283 282 282 281 282 281 280 280 279 279 279 279 279 279 279 280 280 279 278 278 277 277 277 277 278 278 278 277 278 278 277 277 276 276 275 274 274 274 273 273 272 273
282 281 280 281 281 281 280 279 279 279 280 280 280 280 279 279 279 279 278 278 278 278 278 278 278 277 277 277 278 278 277 276 276 275 275 275 274 274 273 273 273 272
282 281 280 280 280 280 280 279 279 279 279 280 279 279 279 278 278 278 279 279 279 278 278 278 278 277 277 277 277 277 277 276 276 275 275 274 274 274 275 274 274 273
282 281 281 280 280 280 279 279 279 279 280 280 279 279 278 278 279 279 279 279 279 279 278 278 278 277 277 277 277 276 276 276 275 275 275 274 274 274 275 274 274 273
282 281 281 281 280 279 279 279 279 279 279 279 279 279 278 278 279 279 279 279 279 278 278 278 278 277 277 277 276 276 276 275 275 275 274 274 274 274 274 274 274 273
282 282 281 281 280 280 279 279 280 280 280 279 279 279 279 279 279 279 279 278 278 278 278 278 277 277 277 276 276 275 275 275 275 275 274 274 273 273 274 274 274 273
283 282 282 281 281 280 279 279 280 280 280 279 279 279 280 279 279 279 278 278 277 277 277 277 277 277 277 276 276 275 275 275 275 275 274 274 273 273 273 273 273 273
283 282 282 281 281 280 279 279 279 280 280 280 280 280 279 279 279 279 278 278 277 277 277 277 277 277 278 280 279 276 276 275 275 275 274 274 274 273 273 273 273 273
282 282 281 281 281 280 280 280 280 280 280 280 280 280 279 279 279 278 278 278 277 277 276 276 276 276 280 282 282 281 277 275 275 275 275 274 274 274 273 273 273 273
283 282 281 281 281 281 281 280 280 280 280 280 279 279 279 279 278 278 278 278 277 277 276 276 276 279 281 282 283 283 280 276 276 275 275 275 274 274 274 273 273 273
283 282 281 281 281 281 281 280 280 280 280 279 279 279 279 278 278 278 278 277 277 276 276 276 276 280 282 283 284 284 283 278 276 276 275 275 274 274 274 273 273 273
282 282 282 281 281 281 281 280 280 280 280 280 280 279 279 278 278 278 278 277 277 276 276 276 276 279 282 283 284 285 284 281 275 276 275 275 275 274 274 274 273 273
282 282 282 282 282 281 281 280 280 280 280 280 279 279 279 278 278 278 277 277 277 276 276 276 275 280 282 284 285 285 286 284 276 275 275 275 274 274 274 274 273 273
282 282 282 282 281 281 280 280 280 280 279 279 279 279 279 278 278 278 278 277 277 276 276 275 276 281 282 284 285 286 286 284 278 275 274 274 273 274 274 273 273 273
282 282 282 281 281 281 280 280 280 279 279 279 279 279 278 278 278 278 278 277 277 276 276 276 276 279 282 283 285 286 286 283 280 276 275 273 273 273 273 273 273 273
282 282 282 281 281 280 280 281 280 280 279 279 279 278 278 278 278 277 277 277 277 276 276 276 276 278 282 283 284 285 285 283 281 278 276 274 273 273 272 272 272 274
281 281 282 281 280 281 281 280 280 280 280 279 279 279 279 278 277 277 276 276 276 276 278 277 276 278 281 282 284 284 284 283 280 277 276 276 274 274 273 272 272 273
281 281 281 281 281 281 281 281 280 279 279 279 279 279 278 278 277 277 277 276 276 275 275 276 276 275 277 281 282 284 284 283 280 277 277 277 276 275 274 273 272 271

ECMWFNIL_sfc_thetae_063.txt.gz
Theta_e
295 293 293 293 293 293 292 291 290 290 291 290 288 287 286 285 285 285 285 285 285 285 285 285 285 285 285 285 285 285 285 285 284 284 285 285 284 284 284 283 283 283
294 293 293 293 292 291 291 291 290 290 291 290 289 287 285 285 285 285 285 284 284 284 284 284 284 284 284 284 284 284 284 284 283 283 284 284 283 283 282 282 282 282
293 292 292 291 290 290 290 290 289 290 290 289 288 286 285 285 284 284 284 284 284 283 284 284 284 283 283 283 284 284 283 283 283 283 283 283 282 282 282 282 281 282
292 292 291 291 290 289 289 288 288 288 287 286 286 285 284 285 284 283 283 283 283 283 283 283 283 283 283 283 284 283 283 283 282 282 281 281 281 281 281 281 281 280
292 291 291 290 289 289 288 287 287 286 286 286 285 284 284 284 283 283 283 283 283 282 282 282 282 282 283 283 283 282 282 281 281 281 281 281 280 280 280 280 279 279
291 291 290 289 288 287 286 286 286 286 285 284 284 283 284 283 283 283 283 282 282 282 282 282 282 281 282 281 282 281 281 280 280 280 280 280 280 280 279 280 279 279
289 289 288 288 287 287 286 286 286 285 285 285 284 283 283 283 282 282 282 282 282 282 281 281 281 281 281 281 281 280 280 280 280 280 280 280 279 279 279 279 279 278
289 289 288 287 286 285 285 285 284 284 284 284 283 283 282 282 282 282 282 281 281 281 281 281 281 280 280 280 280 280 280 279 279 280 280 279 279 278 278 278 278 277
288 287 287 286 285 284 284 283 283 283 283 282 283 282 282 282 282 282 281 281 281 281 280 280 280 279 279 280 280 280 279 279 279 279 279 279 278 278 277 277 277 277
287 286 285 285 284 284 283 283 283 283 283 282 282 282 281 281 281 281 281 281 280 280 280 280 279 279 279 280 280 280 279 279 279 279 279 279 278 277 277 276 277 276
286 285 284 284 284 284 283 283 283 282 282 282 281 281 281 281 281 281 280 280 280 280 280 279 279 279 279 279 279 279 279 279 278 278 279 279 278 277 277 277 276 277
285 284 284 283 283 283 283 282 282 282 281 281 281 281 280 280 280 280 280 280 280 280 280 280 279 279 279 279 278 279 279 278 278 278 278 278 277 277 277 277 277 277
284 284 284 283 283 283 282 282 281 281 281 280 281 281 280 280 280 280 280 280 280 280 279 279 279 278 278 278 278 278 278 278 278 277 277 277 276 277 277 277 277 276
284 284 283 283 283 283 282 282 281 281 281 281 281 281 281 280 280 280 280 280 280 280 279 279 279 278 278 278 278 277 277 278 278 277 276 276 276 277 277 276 276 276
285 284 283 283 282 282 281 281 281 281 281 280 281 281 281 281 281 281 280 279 279 279 279 279 278 278 278 278 277 277 277 277 277 277 276 276 276 275 276 276 276 276
284 284 283 282 282 281 281 281 281 281 280 280 280 280 280 280 280 280 280 279 279 278 278 278 278 278 279 281 280 278 277 277 277 277 277 276 276 275 275 275 275 275
284 283 282 282 282 282 281 281 281 281 280 280 280 280 280 280 280 279 279 279 279 278 278 278 278 278 282 283 282 281 278 277 277 277 276 276 276 275 275 275 275 276
284 283 282 282 282 282 281 281 281 281 280 280 280 280 280 280 279 279 279 279 279 279 278 278 278 281 283 284 284 283 281 278 277 277 277 276 276 276 276 276 276 275
284 283 282 282 282 282 282 281 281 281 281 280 280 280 280 279 279 279 279 279 279 278 278 278 277 282 284 285 285 285 283 279 277 277 277 277 276 276 276 276 276 276
283 283 283 282 282 282 282 281 281 281 281 281 281 281 280 280 279 279 279 278 278 278 278 277 277 282 285 285 285 285 285 281 277 278 278 277 277 276 276 276 276 276
283 283 283 282 282 282 282 281 281 281 281 281 281 281 280 279 279 279 279 278 278 278 277 277 276 283 285 285 285 285 286 284 278 278 278 277 277 276 276 276 277 276
283 283 283 282 282 281 281 281 281 281 281 281 281 280 280 280 280 279 278 278 278 277 277 276 277 282 284 285 285 286 286 284 280 278 277 277 276 277 277 277 277 276
282 282 282 282 282 281 281 281 281 281 281 281 280 281 280 279 279 279 279 278 277 277 276 276 277 282 284 285 285 286 286 284 283 279 277 276 276 277 277 277 276 276
282 282 281 281 282 281 281 281 281 282 281 281 281 280 279 279 279 278 278 278 277 277 277 277 277 280 283 284 285 286 285 283 283 281 279 278 277 278 277 277 276 277
283 283 283 282 282 282 282 282 281 282 282 281 281 280 279 279 278 278 277 277 277 277 279 278 277 279 282 284 284 285 285 284 283 282 280 280 279 279 279 278 276 277
282 283 283 282 282 282 282 282 281 280 280 280 280 280 279 278 278 278 277 277 277 277 278 278 277 277 279 283 284 284 285 284 283 281 280 280 280 280 280 279 278 276

ECMWFNIL_sfc_thetae_066.txt.gz
Theta_e
306 303 303 303 303 305 301 302 300 298 298 298 295 295 293 292 291 290 289 290 291 291 292 294 295 296 297 297 297 297 297 297 296 295 295 294 294 293 293 292 292 291
305 303 302 302 303 302 302 302 302 301 299 297 297 296 295 293 291 290 289 289 289 291 292 293 294 294 294 294 295 295 294 294 293 292 292 293 292 292 291 291 291 291
304 302 301 299 300 300 299 300 300 299 301 300 300 297 295 292 290 290 289 289 288 289 290 292 292 292 292 293 293 293 292 292 291 290 291 291 290 290 290 290 290 290
301 300 300 299 298 297 298 298 298 298 298 300 298 297 292 291 289 289 288 287 288 288 289 290 291 291 291 291 291 291 292 291 290 290 290 289 290 290 289 289 289 288
299 298 298 298 298 297 297 297 296 295 296 298 297 293 290 289 288 288 287 287 287 288 289 289 290 290 290 290 290 290 290 289 289 290 289 289 288 288 287 287 286 286
300 298 297 297 297 296 294 294 295 295 295 294 293 290 289 289 289 288 287 286 286 287 288 289 288 289 289 289 289 289 288 287 287 289 288 287 286 287 286 287 286 285
298 298 297 298 297 295 294 293 293 293 293 292 289 289 289 287 287 287 287 286 286 287 288 288 288 287 287 288 288 287 287 286 286 287 286 286 286 284 285 285 285 284
297 296 296 295 293 292 292 292 291 291 291 290 289 289 287 286 286 287 287 286 286 287 287 288 287 287 287 287 286 286 286 286 286 286 286 285 285 284 284 284 284 283
297 294 293 293 292 291 290 290 290 290 290 288 289 288 287 287 286 287 287 286 286 287 287 287 287 286 286 286 286 286 285 285 286 286 285 285 284 284 284 283 283 283
296 294 293 292 291 291 289 289 288 288 288 287 288 288 286 286 286 286 286 285 286 286 286 286 285 285 285 286 286 286 285 284 285 285 285 285 284 284 283 283 283 282
295 294 293 292 291 290 288 288 287 287 287 287 287 285 285 285 285 285 284 284 285 286 285 285 285 285 285 285 285 285 285 284 284 284 284 284 284 283 283 283 282 281
293 292 292 291 290 288 287 287 286 286 287 288 287 284 284 284 284 284 284 284 285 286 285 285 285 284 284 285 285 285 284 284 284 284 284 284 284 283 282 281 280 280
292 291 291 290 289 288 288 287 286 286 286 286 285 283 283 282 283 283 284 284 284 285 284 284 284 284 284 283 283 283 283 283 283 283 283 282 281 280 280 280 280 280
292 292 291 291 290 288 287 286 285 285 285 285 284 283 283 282 282 282 282 283 283 283 284 284 283 283 282 282 283 283 283 282 281 280 279 279 280 280 280 280 279 278
292 291 291 291 289 288 287 285 285 284 284 284 284 284 284 283 282 282 282 282 282 282 282 282 281 282 282 282 281 280 280 280 280 280 280 280 280 279 279 278 278 278
291 289 289 289 288 287 286 285 284 283 284 284 283 283 283 283 283 283 282 281 281 281 282 282 282 282 281 283 282 281 281 282 281 281 281 280 279 278 277 277 278 278
290 289 288 287 288 287 286 285 284 283 283 284 283 283 283 282 282 282 282 281 281 281 281 280 280 280 283 284 285 284 282 282 282 281 280 279 278 277 276 277 277 277
289 288 287 286 286 286 285 285 284 284 284 284 283 282 283 283 282 282 282 281 281 281 280 280 280 282 284 285 285 285 284 283 282 281 280 279 278 278 278 277 277 277
289 287 287 286 286 285 285 284 284 284 284 283 282 283 283 282 282 282 281 281 281 280 280 280 280 283 285 286 286 285 284 282 282 281 280 279 278 278 277 278 278 277
288 287 286 286 286 285 284 284 284 284 284 284 283 283 282 282 282 282 282 281 281 280 280 280 280 283 286 286 286 286 285 283 282 281 280 280 278 278 278 278 278 278
288 287 286 286 285 285 284 284 284 284 283 283 283 283 282 281 281 281 281 282 281 281 280 280 279 284 286 286 286 286 285 282 281 280 280 279 279 278 278 278 278 278
287 287 286 285 285 284 284 284 283 283 283 283 283 283 283 283 282 282 281 281 281 281 280 278 279 284 286 286 287 286 285 281 280 280 279 279 279 279 278 278 278 278
287 287 286 285 285 284 283 284 283 283 283 283 283 283 282 281 281 281 282 281 280 279 279 279 280 284 286 286 286 287 285 282 281 280 280 279 279 279 279 278 278 278
287 287 285 285 284 284 284 284 284 284 283 283 283 282 282 282 280 280 280 280 279 279 279 278 279 283 285 286 286 287 286 284 283 282 281 280 279 279 279 279 279 280
287 286 285 285 285 284 284 283 283 284 283 283 283 282 281 281 280 280 279 279 279 279 280 279 279 282 285 285 286 287 286 285 284 283 282 281 281 280 280 280 280 280
286 285 285 285 284 284 284 284 284 283 282 283 282 282 280 280 280 280 279 279 279 279 279 279 279 280 283 285 286 286 286 285 285 284 283 283 283 283 282 282 282 281

ECMWFNIL_sfc_thetae_069.txt.gz
Theta_e
312 312 310 309 308 309 307 306 307 306 304 303 302 302 301 301 298 296 296 296 297 298 299 300 301 302 302 302 303 303 302 301 301 302 301 301 299 298 298 296 295 294
309 311 309 308 307 307 306 306 306 306 303 303 303 302 300 298 298 295 294 295 295 296 297 298 299 301 301 300 300 301 299 299 298 298 297 297 296 296 295 295 294 293
308 309 307 305 306 306 306 305 306 305 304 304 304 303 303 299 296 294 293 294 293 294 295 296 297 298 299 299 299 298 296 297 296 295 296 296 294 294 294 293 292 293
308 309 307 305 305 305 305 304 305 305 304 303 303 302 301 297 295 293 292 292 293 293 293 294 294 295 295 295 295 296 295 296 296 295 294 293 293 292 291 291 291 290
307 308 307 305 304 305 303 303 303 303 302 304 303 301 297 294 293 291 290 290 290 291 291 291 292 292 293 293 294 294 295 294 293 293 292 291 291 291 290 290 289 289
306 306 305 304 303 302 301 301 302 302 302 301 302 297 296 293 291 290 289 289 289 290 290 290 290 291 292 292 292 292 293 292 291 292 291 290 289 289 289 289 287 286
305 304 302 302 303 302 302 301 300 301 300 299 297 294 293 292 291 290 289 288 288 288 289 289 289 289 290 291 291 291 291 291 290 290 289 288 287 287 288 287 286 285
304 303 302 301 300 300 299 299 299 299 297 294 293 292 291 291 290 290 289 288 288 288 288 288 288 289 289 290 290 290 289 290 289 288 287 286 285 285 285 287 284 283
303 301 301 300 299 300 298 297 296 296 294 294 293 291 290 290 289 290 289 288 287 287 288 288 288 288 288 288 288 288 288 288 288 287 286 285 284 284 284 284 284 283
301 300 299 299 298 298 298 297 295 294 293 293 292 290 289 289 289 288 288 287 286 286 286 286 286 286 287 287 288 287 287 287 286 286 286 285 285 284 284 284 283 282
300 298 298 297 297 296 297 297 294 292 291 291 291 289 289 288 288 287 287 287 286 286 286 286 286 285 286 286 286 286 286 286 286 285 285 285 285 284 284 283 283 282
300 298 297 296 295 295 295 295 292 291 290 290 289 289 288 287 287 287 287 286 286 286 286 286 286 285 285 286 286 285 285 285 285 285 285 284 284 284 283 284 283 281
300 298 298 297 296 294 294 293 291 290 289 289 289 288 287 287 286 286 286 286 286 286 285 285 285 285 285 285 285 285 285 284 284 284 284 284 283 283 283 283 282 281
299 298 297 297 295 295 294 292 291 289 289 289 288 287 286 286 285 285 285 286 286 286 286 286 285 285 285 285 285 285 284 284 284 283 283 283 282 282 282 281 281 280
298 297 296 295 294 293 292 291 289 288 288 287 287 286 286 286 285 285 285 285 285 285 284 285 285 285 285 284 284 283 284 284 283 283 282 281 280 280 280 280 280 280
297 296 294 294 293 291 290 289 288 287 286 286 286 285 285 285 284 284 284 283 283 283 283 284 284 285 285 286 286 284 284 284 283 282 281 281 280 280 279 279 279 279
296 294 293 292 292 291 289 288 286 286 285 285 285 285 284 284 284 283 283 283 283 283 282 282 283 284 286 288 289 288 284 282 282 282 281 281 280 279 278 278 278 279
294 293 292 291 290 289 288 287 286 285 285 285 285 284 284 284 283 283 283 283 283 283 282 282 282 284 287 288 288 288 285 282 282 282 282 281 280 279 279 278 278 278
294 292 291 290 289 288 287 287 286 285 285 285 284 285 284 284 284 283 283 283 283 282 281 282 282 286 286 287 287 287 286 284 283 283 282 281 280 279 279 278 278 278
292 290 289 289 288 287 287 286 285 285 285 285 285 284 284 283 284 283 283 283 282 281 281 281 280 284 286 287 287 287 287 286 283 282 281 280 279 279 279 278 278 278
291 290 289 288 287 286 286 286 285 285 285 285 284 284 283 283 283 283 284 283 283 282 281 281 280 285 286 287 287 287 287 285 283 282 282 280 279 279 279 279 279 279
290 290 289 288 287 286 285 285 285 285 284 285 284 284 284 284 284 284 283 283 283 282 282 281 281 285 286 286 287 287 286 282 282 281 280 280 279 279 279 280 280 280
290 289 287 286 286 285 285 285 284 284 284 285 284 284 284 283 283 283 283 282 282 282 281 280 281 284 286 287 287 287 283 281 281 281 280 279 279 279 279 279 279 279
289 288 287 286 285 285 284 285 285 285 285 285 284 283 283 283 283 283 283 282 281 281 280 280 281 284 286 286 286 285 283 281 281 280 280 279 279 279 279 279 279 280
288 287 287 286 285 285 285 284 284 284 284 284 284 283 282 283 282 282 281 281 280 280 282 280 281 284 286 286 286 285 283 282 282 281 280 279 279 279 279 279 279 280
287 286 286 285 285 285 285 285 285 284 284 284 283 283 282 281 281 281 280 280 280 280 280 280 281 283 285 287 287 286 285 284 283 282 281 281 281 281 281 280 280 280

ECMWFNIL_sfc_thetae_072.txt.gz
Theta_e
307 307 309 309 309 308 306 307 308 308 306 306 304 302 301 300 299 298 298 299 300 301 302 303 303 304 304 304 304 303 302 302 302 302 302 301 300 299 298 296 296 294
307 307 307 308 307 307 306 307 307 308 307 306 305 304 303 301 299 298 298 298 298 299 300 300 301 303 304 303 302 302 301 301 300 301 300 298 295 296 295 294 292 290
305 305 306 306 307 308 307 306 306 307 306 304 303 303 302 301 300 298 297 297 297 297 298 299 300 301 302 302 302 301 300 298 298 296 297 295 292 293 291 290 289 289
304 304 304 304 306 307 306 304 304 304 303 303 303 303 301 299 300 297 296 295 296 296 296 297 297 297 299 299 299 299 298 298 298 294 294 292 291 291 290 289 288 287
302 302 303 302 302 305 305 304 303 303 302 302 302 301 298 296 296 293 292 292 292 292 293 293 294 294 294 295 295 296 293 294 293 293 293 291 290 291 289 289 287 286
302 302 303 303 303 304 304 304 304 303 303 302 301 298 297 295 294 293 291 291 291 291 291 291 292 292 292 293 293 293 292 292 291 292 291 290 289 289 289 288 287 285
300 300 301 302 302 304 304 303 302 302 301 300 297 296 295 294 293 292 291 291 290 290 290 290 290 291 291 292 292 291 290 290 290 291 290 289 288 288 288 287 286 285
299 298 298 297 297 298 300 301 299 299 298 296 296 295 294 293 292 291 290 290 289 289 289 289 290 290 290 291 291 291 290 290 290 289 289 288 287 286 286 285 284 284
298 297 296 294 294 294 295 296 297 297 296 296 295 292 292 293 292 290 290 289 288 288 288 288 289 289 289 290 290 291 290 289 290 289 288 287 286 285 284 283 283 282
296 295 293 293 294 294 293 293 294 294 293 295 294 291 290 290 290 290 289 288 288 287 287 287 288 288 288 289 290 290 289 289 289 288 287 287 286 284 283 282 282 281
294 293 294 293 293 293 292 293 293 293 292 293 292 291 290 289 288 288 288 287 287 287 286 287 287 287 287 288 288 288 288 288 288 287 286 286 285 283 283 282 281 280
294 293 293 293 293 292 292 291 291 290 290 290 291 290 289 288 288 287 287 287 287 286 286 286 286 287 287 287 287 287 287 287 287 286 285 284 283 282 282 281 280 279
293 293 293 293 292 292 291 291 290 288 288 289 289 289 288 287 287 287 286 286 286 286 286 286 286 286 286 286 286 286 286 286 285 284 283 283 282 281 281 280 280 279
293 292 292 292 291 291 290 290 289 288 287 287 287 288 287 287 287 286 286 286 286 286 285 285 285 284 285 285 285 285 286 285 284 283 282 282 282 281 280 280 279 279
292 293 292 292 291 291 290 289 288 287 287 287 287 287 287 287 287 286 285 285 285 285 285 285 285 284 285 284 284 284 285 284 284 283 282 281 281 280 280 279 279 279
292 292 291 291 290 290 289 289 287 286 286 286 287 287 286 286 285 285 285 285 284 284 284 285 285 285 285 287 287 285 284 284 284 283 282 281 280 279 278 278 279 279
292 291 290 290 289 289 288 287 286 285 285 286 285 285 285 284 284 284 284 284 284 284 284 284 284 285 286 289 289 288 284 283 283 282 281 280 280 279 278 278 278 280
291 290 289 289 288 287 287 286 285 284 284 284 284 284 284 284 284 284 284 283 283 283 283 283 283 286 289 289 289 289 287 283 282 282 281 280 279 279 278 278 278 279
290 289 289 288 288 287 285 284 284 284 284 284 284 284 283 283 283 283 283 283 283 282 282 282 281 287 289 289 289 289 288 284 282 281 281 280 279 278 278 278 279 279
290 288 288 287 287 286 285 284 283 283 284 285 285 284 284 283 283 283 283 283 282 282 282 281 281 287 289 289 289 289 288 285 282 282 281 280 279 279 278 278 279 279
289 288 287 286 285 285 284 283 283 283 283 284 284 284 284 283 283 283 283 283 283 283 282 282 281 287 288 289 289 289 287 285 282 282 281 280 279 279 278 278 279 279
288 287 287 285 285 284 284 283 283 284 284 284 284 284 284 284 284 284 283 283 283 282 282 280 282 287 288 288 288 288 286 282 282 281 280 279 279 278 279 279 279 280
288 287 286 285 284 284 283 283 283 284 284 285 284 284 283 283 283 283 283 282 282 282 281 280 282 286 287 288 288 287 284 282 281 280 279 278 278 279 279 279 280 280
287 286 285 284 284 283 283 283 284 285 284 285 284 283 283 283 283 282 282 282 282 281 281 280 282 285 287 288 287 286 283 281 280 279 279 278 278 279 279 280 280 282
286 286 285 284 283 283 283 282 283 284 284 284 284 283 282 282 282 282 281 281 281 281 282 281 282 284 287 287 287 285 283 281 280 279 278 278 278 278 278 279 280 281
286 285 284 284 283 282 282 282 283 284 284 284 283 283 282 282 281 281 280 280 280 280 281 281 282 284 286 287 286 285 284 281 280 279 278 278 279 279 278 278 278 279

ECMWFNIL_sfc_thetae_075.txt.gz
Theta_e
305 305 306 306 306 306 306 305 305 305 304 304 304 304 305 305 304 302 303 304 305 307 308 309 310 310 310 309 308 307 305 304 303 303 303 302 302 301 300 300 300 299
304 304 304 304 304 304 304 305 305 306 304 304 304 303 304 303 303 302 302 302 302 304 305 306 306 308 308 307 306 306 304 303 302 303 302 301 301 300 300 299 299 297
303 302 303 303 304 304 304 303 305 305 305 304 304 303 303 303 303 302 302 302 302 302 303 303 303 304 306 305 305 304 303 302 302 300 300 300 299 298 298 296 294 293
303 303 304 303 303 303 303 302 302 303 304 304 304 303 302 302 302 301 300 298 300 300 299 300 301 301 301 302 302 302 301 301 301 299 299 295 295 296 293 292 291 290
302 302 303 303 302 302 302 302 302 302 302 304 303 303 301 300 300 298 297 295 295 295 295 296 296 297 298 299 299 300 298 297 296 296 296 294 293 293 291 291 290 289
301 302 302 302 302 302 302 302 302 301 300 301 303 303 302 300 299 297 296 295 294 294 293 293 293 293 293 294 294 295 295 295 293 294 294 293 291 290 291 290 289 288
300 299 299 300 299 300 302 301 301 300 300 301 299 299 299 298 297 296 295 295 294 293 293 293 293 292 292 292 293 293 292 293 292 293 293 291 290 289 288 289 289 287
298 297 298 297 297 297 298 298 297 298 298 298 295 296 296 296 295 295 294 294 293 292 292 291 292 292 291 291 291 291 291 293 292 292 292 290 290 289 288 288 287 286
296 295 296 294 295 294 293 293 293 292 295 297 297 295 295 296 295 294 293 292 292 291 291 290 291 290 290 291 291 292 291 291 291 291 291 290 289 289 288 287 286 286
295 294 293 293 293 293 293 292 291 291 291 294 295 295 294 293 294 293 292 291 291 290 290 290 290 290 290 291 291 292 291 291 290 291 291 290 290 289 287 287 286 285
292 292 292 292 292 291 291 291 290 291 290 292 293 294 293 292 291 291 291 290 290 290 289 289 290 290 290 290 291 291 291 290 290 290 290 289 289 288 286 286 286 285
292 291 292 292 292 290 290 290 290 290 290 290 293 293 291 291 291 290 290 290 290 289 289 289 289 289 289 290 290 290 290 290 289 289 289 288 288 287 286 286 285 284
292 293 292 292 291 291 290 289 289 289 290 290 291 292 291 290 289 289 289 289 289 288 288 288 288 288 289 289 289 289 289 289 288 288 288 287 287 286 285 285 284 283
294 292 291 291 291 290 290 290 289 289 289 289 288 290 290 290 289 289 288 288 288 288 287 287 287 287 287 288 288 288 288 288 288 287 286 286 285 284 284 283 283 282
293 291 290 290 290 290 290 290 289 289 288 287 287 288 289 289 288 288 287 287 286 286 286 286 286 286 287 287 287 287 287 287 286 286 285 284 283 282 282 282 281 281
292 291 291 289 290 290 290 289 289 288 287 286 286 287 287 287 287 287 287 286 286 285 285 285 285 286 286 288 288 287 286 286 286 285 284 283 282 281 280 280 280 280
291 291 290 290 290 289 289 288 288 287 286 286 286 286 286 286 287 286 286 286 286 285 285 285 285 285 286 289 290 289 287 286 285 284 284 283 282 280 279 279 279 279
291 291 290 290 289 289 288 288 287 286 286 285 285 284 284 285 286 286 286 285 285 285 285 285 285 286 288 289 290 289 288 285 285 284 283 282 281 280 279 279 279 280
289 290 290 289 288 288 288 287 287 286 285 284 284 284 283 284 285 285 285 285 285 284 284 284 284 287 289 289 290 290 289 286 284 283 283 282 280 280 279 279 280 281
289 289 289 289 287 287 287 286 286 286 285 284 284 283 283 284 285 285 284 284 284 284 284 283 283 286 289 289 289 289 289 287 283 283 282 281 280 280 280 280 281 281
289 289 289 288 287 287 286 286 286 285 283 283 283 283 284 284 284 284 284 284 284 283 282 282 282 287 289 289 290 290 289 286 283 282 282 281 280 280 280 281 282 282
289 288 288 286 286 285 285 284 284 283 283 282 282 283 284 285 284 285 284 284 284 283 282 281 283 288 289 289 290 290 289 284 282 282 281 280 279 279 280 281 282 282
288 288 287 286 286 285 284 283 283 282 282 282 282 283 284 284 284 284 284 283 283 283 282 281 283 287 288 289 290 290 287 282 282 281 280 279 279 279 280 281 281 282
287 287 287 285 284 285 284 283 282 282 282 283 283 283 283 284 284 283 283 283 282 282 282 281 283 285 288 289 289 288 284 282 281 280 279 279 278 279 279 280 281 282
287 287 286 285 284 284 284 283 282 282 282 283 284 285 284 284 283 283 282 282 282 282 282 282 283 285 287 288 288 287 284 282 281 279 279 278 278 278 279 280 281 282
286 286 285 285 284 283 283 283 282 281 282 283 284 284 283 283 282 282 281 281 281 281 282 282 283 284 286 288 288 286 284 281 280 279 278 278 278 278 279 280 280 281

ECMWFNIL_sfc_thetae_078.txt.gz
Theta_e
306 306 307 306 307 306 306 305 304 304 304 304 305 305 306 307 306 305 305 306 307 308 309 310 310 311 312 311 310 309 307 306 305 305 304 303 303 302 301 300 299 299
305 304 303 304 304 303 304 304 304 304 304 304 304 304 303 303 303 304 303 304 304 305 307 308 309 310 310 310 309 308 307 306 306 305 304 303 303 302 302 301 300 300
303 303 303 303 304 303 303 302 302 303 304 303 302 302 302 302 302 301 302 303 303 303 305 306 307 308 309 308 308 307 306 305 305 304 303 303 303 302 302 302 301 300
303 303 304 303 303 303 302 301 301 301 300 301 301 301 301 301 301 301 302 301 303 303 303 304 305 305 306 306 306 306 306 306 305 304 302 301 301 302 301 300 299 297
302 302 302 302 301 301 300 301 301 301 301 302 300 299 299 299 300 299 299 299 300 300 301 302 302 302 302 303 303 304 303 303 302 301 301 300 299 298 299 296 295 295
300 301 301 301 300 300 300 301 301 301 300 299 300 299 299 299 299 299 298 297 296 296 297 297 297 298 298 299 298 300 298 297 296 297 297 297 296 294 295 294 294 294
299 298 298 299 298 299 300 300 300 299 299 299 295 298 297 297 297 297 298 297 296 295 296 296 295 296 295 295 296 296 295 296 295 295 296 295 294 292 292 293 293 294
297 294 297 297 297 297 298 299 298 297 297 293 295 295 295 296 296 297 297 296 295 295 295 295 295 296 295 294 295 295 295 295 295 294 294 294 293 293 291 291 291 292
294 295 295 294 295 296 295 296 295 293 292 294 293 291 291 294 295 296 296 296 295 294 294 293 294 294 293 293 294 295 295 294 294 294 294 293 292 292 291 290 290 290
294 294 292 293 293 294 294 293 292 292 290 292 292 290 291 291 293 295 295 295 295 294 294 293 293 292 292 292 294 294 295 295 293 293 293 294 293 292 291 289 289 288
293 292 292 292 293 293 293 291 291 290 289 292 291 291 291 290 291 292 293 294 294 294 293 293 293 292 292 291 292 292 293 294 293 293 293 293 293 292 290 289 289 288
293 292 292 293 293 292 292 291 290 290 291 290 291 292 290 290 292 291 293 293 293 293 293 293 292 292 292 292 292 291 291 292 292 291 292 292 291 291 290 289 289 288
294 294 294 294 293 292 291 290 291 290 290 291 289 291 291 291 290 291 291 293 293 292 292 292 291 291 291 291 291 291 291 291 290 290 290 290 290 290 289 289 288 287
295 295 294 294 294 292 291 291 290 290 290 290 289 290 290 291 290 290 290 291 292 292 291 291 290 290 290 290 290 290 290 290 290 290 289 289 288 288 288 288 287 286
297 294 293 292 290 290 290 290 290 289 288 289 289 290 290 290 290 290 290 290 290 290 290 289 289 289 289 289 289 289 290 290 290 289 289 288 287 287 286 287 286 286
294 291 290 289 289 290 289 288 288 288 288 288 289 289 289 288 288 288 289 290 289 289 288 288 288 288 288 289 290 289 289 289 289 289 288 288 286 285 285 285 285 284
292 291 289 289 289 287 287 288 288 288 288 288 288 288 288 287 287 287 287 288 289 289 287 287 287 288 288 290 291 291 289 288 288 287 287 287 286 285 283 283 283 283
292 290 290 290 289 289 289 289 288 288 288 288 288 287 287 286 286 287 287 287 288 288 287 287 287 287 289 290 291 291 289 288 287 287 286 286 285 284 283 282 282 281
290 290 290 289 289 289 288 288 288 288 288 287 287 287 285 285 286 286 286 286 287 287 286 286 286 288 289 290 290 291 291 288 286 286 285 285 284 283 282 282 281 281
289 289 290 290 288 287 287 287 287 288 288 287 286 284 285 285 284 285 285 285 286 286 286 286 286 287 289 290 290 290 291 289 286 285 285 284 283 283 282 281 281 281
289 289 289 288 287 287 287 287 287 287 286 285 285 285 285 285 285 284 284 284 285 286 286 286 285 287 289 289 290 290 291 289 285 285 284 284 283 282 281 281 281 281
288 288 288 288 287 286 286 287 286 286 286 284 284 283 284 283 283 284 284 284 284 284 285 284 284 287 288 289 290 290 291 287 285 284 283 282 282 281 281 281 282 282
287 288 288 287 286 286 286 286 286 285 284 283 283 283 283 283 283 283 284 285 285 284 284 284 284 286 288 289 289 290 290 285 284 283 282 281 281 280 281 281 282 282
286 287 287 287 286 286 287 286 285 284 284 283 284 283 282 282 282 282 283 284 284 284 284 283 283 284 287 289 289 290 288 284 283 282 281 280 280 280 281 281 282 283
286 286 287 287 287 287 286 285 284 284 283 282 283 283 283 281 282 282 281 283 284 284 284 283 283 284 287 288 289 290 287 284 283 281 280 279 279 279 281 282 282 283
286 286 286 287 287 286 284 284 283 281 281 281 281 282 281 281 281 282 282 282 283 283 283 283 283 283 286 289 289 289 288 283 282 281 279 279 279 279 280 281 282 283

ECMWFNIL_sfc_thetae_084.txt.gz
Theta_e
305 305 307 307 308 308 308 307 305 306 306 305 306 306 307 309 308 311 313 313 314 315 316 316 315 315 314 314 313 313 312 312 312 311 310 309 307 306 305 305 304 304
303 303 303 305 305 303 304 305 306 306 306 305 305 305 303 301 303 306 309 311 311 311 313 313 313 313 314 313 312 312 313 312 311 310 310 309 309 308 307 306 305 305
301 301 302 303 305 304 304 303 303 304 304 304 302 300 302 300 302 301 303 305 307 308 309 309 310 310 310 310 310 310 310 310 310 309 308 308 308 307 308 307 307 306
299 300 301 301 302 302 301 301 300 300 298 299 301 301 301 299 299 299 299 299 302 303 304 304 305 305 306 307 308 308 308 308 309 308 308 308 308 308 309 308 307 306
298 298 298 299 300 299 298 300 300 300 300 301 298 297 297 297 297 296 296 296 297 298 298 299 299 299 299 302 304 305 305 305 306 305 305 305 305 305 305 305 304 304
295 296 298 298 299 298 299 299 300 300 299 297 299 298 298 296 296 296 295 295 295 296 297 296 297 297 297 299 301 303 303 303 303 303 304 304 304 303 303 303 302 301
295 294 295 296 296 297 298 299 299 298 299 299 293 296 295 295 295 296 296 296 295 295 296 297 297 297 297 298 299 301 301 302 300 300 300 300 299 298 298 298 298 299
294 291 294 292 294 295 295 296 296 295 295 291 294 296 294 296 296 296 295 295 294 295 295 295 295 297 296 297 298 298 298 299 299 296 296 296 295 296 296 296 295 296
290 290 289 289 291 293 293 294 294 291 290 293 294 292 289 292 293 292 292 292 293 293 294 294 295 294 294 295 296 296 296 296 297 296 296 296 295 296 296 295 294 294
289 289 288 288 289 291 291 291 291 290 288 290 292 289 290 289 289 291 290 291 292 293 293 294 294 293 293 294 296 295 295 295 295 295 295 295 295 296 295 294 294 294
289 287 287 288 289 289 290 290 289 289 288 290 289 290 290 289 289 289 290 291 293 293 294 294 294 294 294 294 293 293 294 295 294 294 294 294 294 295 293 294 294 294
289 288 288 288 289 289 290 289 289 288 289 288 288 291 290 289 290 289 290 292 293 294 294 294 294 293 294 294 293 292 292 292 292 293 293 294 293 293 294 294 294 294
289 289 289 288 288 289 289 289 289 288 288 289 288 289 289 290 289 290 289 290 292 293 293 294 294 293 293 292 292 292 292 291 291 291 292 292 293 293 293 293 293 293
290 289 289 289 289 288 288 288 288 288 288 288 287 288 289 289 290 290 290 289 290 291 292 291 292 292 292 292 291 291 291 290 290 290 291 291 291 292 292 292 292 292
289 289 289 288 288 288 288 288 288 288 287 287 287 287 288 288 289 289 289 290 290 289 290 289 290 291 291 291 290 290 290 290 289 289 290 290 291 291 290 291 291 291
288 287 288 287 288 288 289 288 288 287 287 287 287 287 287 287 287 288 288 289 290 290 290 290 290 291 290 292 292 290 289 289 289 289 289 290 290 290 290 290 290 289
287 287 287 288 288 287 287 288 288 287 287 287 287 287 287 287 286 288 288 289 290 290 290 290 290 290 291 293 294 294 291 289 289 289 289 289 289 289 289 289 289 288
287 287 287 287 287 287 287 287 286 286 286 287 286 286 286 285 286 288 289 289 289 289 289 290 290 290 292 293 294 294 293 289 288 289 289 289 290 290 290 289 288 288
286 286 286 286 287 287 286 286 286 286 286 286 287 287 284 286 287 287 288 288 288 289 289 290 290 291 293 293 293 294 294 292 289 289 289 289 289 289 289 288 288 287
286 286 286 286 286 286 286 286 286 286 286 285 286 285 285 286 285 286 287 287 287 288 288 289 289 290 292 293 293 293 293 293 290 289 288 289 289 289 289 288 287 287
286 286 286 286 286 286 286 286 286 286 286 286 286 286 286 287 287 287 287 286 286 286 287 288 288 290 291 292 292 293 293 293 289 288 288 288 288 288 288 288 288 287
285 285 285 285 285 285 285 286 286 286 286 287 286 286 285 284 285 285 286 286 286 286 286 287 287 290 290 291 292 293 293 290 288 288 287 287 287 287 287 287 287 286
285 284 284 284 284 285 285 285 286 286 286 285 285 286 286 286 286 286 286 286 285 285 285 286 286 287 290 290 291 292 291 288 287 287 287 287 287 286 286 286 286 285
284 284 284 284 284 284 285 285 285 285 285 285 285 286 286 286 286 285 285 284 284 285 285 285 286 285 288 289 290 291 290 287 287 287 286 286 286 286 285 285 284 284
283 283 283 283 283 284 284 284 285 285 285 284 284 284 284 284 284 284 284 283 283 283 284 284 284 285 287 289 290 290 289 286 286 286 286 286 285 284 284 283 283 284
283 282 283 282 282 283 283 284 284 283 284 284 284 283 283 283 281 282 282 283 282 281 281 282 283 283 283 288 289 289 290 287 286 286 286 285 285 284 282 282 282 282

ECMWFNIL_sfc_thetae_087.txt.gz
Theta_e
308 309 311 312 312 313 313 312 312 311 312 311 311 312 313 315 315 316 317 318 318 318 319 319 319 319 318 318 318 317 316 315 315 315 313 311 310 309 308 308 307 306
305 306 307 308 309 309 309 310 311 311 311 311 311 311 311 310 310 312 314 315 315 316 316 317 317 317 317 315 315 314 314 314 314 312 312 311 311 310 309 308 307 307
302 303 304 305 307 308 308 308 308 309 309 310 308 308 309 307 308 307 309 311 313 314 314 314 314 314 315 315 314 314 313 313 312 311 310 310 310 310 310 309 309 308
300 301 302 303 304 305 306 305 305 305 305 305 306 307 306 306 305 305 305 303 307 309 310 311 311 311 312 312 312 312 312 313 313 312 310 309 308 308 308 308 308 307
299 299 300 301 302 302 302 303 304 304 304 305 305 304 303 303 303 303 302 302 303 304 305 306 307 307 307 307 308 309 309 309 309 308 308 308 309 308 308 308 307 307
296 297 298 299 300 300 301 301 302 303 303 302 303 303 302 302 301 301 301 301 301 301 302 302 302 304 304 304 305 306 306 306 307 306 306 306 307 307 307 307 306 305
296 296 296 297 297 298 299 300 301 301 301 302 298 300 299 299 300 300 300 300 300 300 300 300 301 301 301 301 302 302 303 304 304 303 304 305 304 304 304 305 304 304
294 294 294 294 295 296 296 297 297 298 298 295 297 299 297 299 299 299 299 299 299 299 299 299 299 300 300 299 300 300 301 302 302 302 301 301 300 300 300 300 299 298
291 291 291 291 292 294 294 295 295 295 294 295 297 297 295 296 298 297 297 296 296 297 297 297 298 298 298 298 299 299 300 300 301 300 300 299 298 298 299 298 297 297
291 290 290 290 290 292 292 293 293 293 292 293 295 294 294 294 293 294 294 294 294 295 295 296 296 296 295 296 298 298 298 299 298 298 299 299 298 298 298 297 296 296
291 291 291 291 291 291 291 291 291 291 291 291 292 292 293 293 293 292 292 293 294 295 295 295 295 295 295 295 296 296 297 297 297 297 297 297 297 297 294 296 296 296
291 291 291 291 291 291 291 291 291 291 291 291 290 292 292 291 292 292 292 292 293 294 294 295 295 295 295 295 295 295 294 294 295 295 296 296 296 296 296 296 296 296
291 291 290 290 290 290 290 290 290 290 290 291 291 290 290 291 291 291 292 291 292 292 293 294 294 294 294 294 295 295 294 294 294 294 294 295 295 295 295 295 295 295
290 290 290 290 290 290 290 290 290 290 290 290 289 290 290 290 291 291 292 291 291 292 292 292 292 293 293 294 294 294 294 293 293 293 293 293 294 294 294 294 294 295
289 290 290 289 289 290 290 290 290 290 289 289 289 289 289 290 290 290 290 291 291 291 291 291 292 292 293 293 293 293 293 293 293 293 293 293 293 293 293 293 293 294
289 289 289 289 289 289 289 289 289 289 289 289 289 289 289 289 289 289 289 290 290 290 291 291 291 293 291 291 292 293 293 293 293 292 292 292 292 292 292 292 292 293
288 288 288 288 288 288 288 288 288 288 288 288 288 289 289 289 288 289 289 289 289 290 290 291 292 292 291 293 294 294 293 292 292 292 291 291 291 291 291 292 292 292
287 287 287 287 287 287 287 287 287 287 287 288 288 288 289 288 288 289 289 289 290 290 290 290 291 290 292 293 293 294 293 293 292 292 292 292 291 291 292 291 291 292
286 286 286 286 287 286 286 286 286 286 287 287 287 287 287 287 288 288 288 289 289 289 289 290 290 291 292 293 293 293 294 293 293 292 292 291 291 291 291 291 291 290
286 286 286 286 286 286 286 286 285 286 286 287 286 287 287 287 287 287 288 288 288 288 289 289 289 290 291 292 292 293 293 293 293 293 292 292 292 292 292 291 291 290
285 285 285 285 285 285 285 285 286 286 286 286 287 287 286 287 287 287 288 287 288 288 288 288 289 290 291 291 292 292 293 293 293 291 291 291 291 291 291 291 291 291
285 284 284 285 285 284 284 285 285 285 285 286 286 286 286 286 286 286 286 286 287 287 287 287 289 290 290 291 291 292 293 291 290 290 290 290 290 290 290 291 291 290
284 284 283 283 283 283 283 284 284 284 285 285 285 286 286 286 286 286 286 286 286 286 286 286 287 288 289 290 291 291 291 290 289 289 289 289 290 290 290 290 290 289
283 283 282 282 282 282 282 283 284 284 284 284 284 284 284 285 285 285 286 285 285 285 285 285 286 286 288 289 290 290 290 288 289 288 288 288 288 289 289 289 289 286
282 282 281 281 281 282 282 282 282 282 283 283 283 283 283 284 284 284 284 284 284 284 284 284 285 285 287 288 289 290 289 288 288 288 287 287 288 288 288 287 288 286
281 281 281 280 280 281 281 281 282 281 282 282 282 283 283 283 283 282 282 283 283 282 283 283 283 284 284 286 288 289 289 288 288 287 286 287 287 287 288 287 286 286

ECMWFNIL_sfc_thetae_093.txt.gz
Theta_e
318 319 318 318 318 319 318 318 319 318 318 318 318 318 318 319 320 321 321 321 321 321 321 322 322 323 324 324 324 324 321 321 320 321 319 317 316 315 314 314 313 313
316 316 316 316 316 317 316 316 316 316 316 317 317 317 318 318 318 318 318 318 319 319 320 320 320 320 320 320 321 321 321 321 321 322 319 317 317 316 316 315 314 314
312 313 314 314 314 315 315 316 316 315 315 316 316 316 316 316 316 316 316 316 316 316 317 318 318 318 318 319 319 319 318 319 318 319 318 318 318 318 317 317 315 314
310 310 311 311 312 312 313 312 313 314 314 314 314 315 315 315 314 313 313 311 313 313 314 315 315 316 316 317 317 316 316 316 316 317 316 316 316 316 316 316 316 315
308 308 309 310 310 310 311 311 311 312 312 312 313 313 313 313 313 312 312 312 312 311 312 312 312 312 313 313 314 313 313 313 314 315 314 313 314 314 314 313 313 312
307 308 308 308 308 309 309 309 310 309 309 310 310 310 310 310 310 310 310 310 310 310 310 311 310 310 310 310 310 310 310 310 311 311 310 309 310 312 312 311 311 310
305 306 306 307 307 307 307 307 307 307 307 307 306 307 308 308 308 308 308 308 308 308 308 308 309 309 309 309 308 307 308 308 308 308 307 307 307 308 309 309 308 307
303 303 304 305 305 305 304 304 304 305 304 305 305 306 306 306 306 306 306 306 306 306 306 306 307 307 307 307 306 306 305 306 306 305 305 305 305 304 305 306 306 305
302 302 302 302 302 302 301 301 302 302 302 302 303 303 304 304 304 304 304 304 304 304 304 303 304 303 304 303 303 303 302 303 303 303 303 302 302 303 303 304 303 302
301 301 300 300 300 300 299 300 300 300 300 301 301 302 302 302 303 303 302 302 302 302 302 302 301 301 301 301 301 301 300 300 300 300 301 301 301 301 301 301 301 300
300 300 299 299 299 299 299 299 299 299 299 299 299 300 300 300 301 301 301 301 301 301 301 301 300 300 300 299 299 299 299 298 298 299 299 299 299 299 296 299 299 298
298 298 298 298 298 298 298 298 298 298 298 298 298 298 298 299 299 299 299 299 299 300 300 300 299 299 298 298 298 299 299 298 298 298 298 298 297 297 297 297 297 297
297 297 297 297 297 297 297 297 297 297 297 296 297 297 297 297 297 297 298 298 298 299 299 299 299 299 298 298 298 298 297 297 296 296 296 296 296 296 296 296 295 296
296 296 296 296 296 296 296 295 295 295 295 295 295 296 296 296 296 296 296 296 297 297 298 298 297 297 297 297 297 297 296 296 295 294 294 294 294 294 295 294 295 295
295 295 295 295 294 294 293 293 293 293 293 294 294 294 295 295 295 295 295 296 296 297 297 297 297 297 297 297 296 295 295 294 294 294 293 293 293 293 294 294 294 294
294 294 294 294 293 292 292 292 292 292 292 292 292 293 293 294 294 294 294 295 295 295 296 297 297 298 295 292 293 293 293 293 293 293 293 293 293 292 293 293 293 294
293 292 292 292 292 291 291 290 290 291 291 291 291 292 292 292 292 293 294 294 294 294 294 295 296 297 293 294 294 293 293 293 292 292 292 292 292 292 292 292 293 294
291 291 291 291 290 290 290 290 290 290 289 290 290 290 290 291 291 292 292 293 293 293 293 294 294 292 294 294 293 293 292 292 292 292 292 292 293 293 293 293 293 293
291 290 290 290 290 289 289 289 288 288 288 288 288 290 290 290 290 290 291 291 292 292 291 292 292 292 293 293 293 292 292 291 291 291 291 291 292 292 293 293 293 293
289 289 289 289 288 288 288 288 287 288 287 288 288 288 289 288 289 289 290 290 290 290 290 291 291 291 292 292 292 292 292 292 291 291 291 291 291 292 292 292 293 292
288 288 287 287 287 287 286 286 287 286 287 287 287 287 287 287 288 287 288 288 289 289 289 289 290 291 291 291 292 292 292 291 290 290 290 290 291 292 292 292 292 293
287 286 286 286 286 286 285 285 286 286 285 286 287 287 287 287 287 287 287 287 287 287 287 287 289 290 290 290 291 291 291 289 289 289 289 290 290 291 291 292 292 292
286 285 285 285 285 284 284 284 284 284 285 286 285 286 286 286 286 286 287 287 286 286 286 287 287 288 289 289 290 290 289 287 287 287 288 288 289 290 291 291 291 291
285 284 283 283 283 283 283 283 284 284 285 285 285 284 284 285 286 286 286 287 286 285 286 285 286 286 288 289 289 290 289 287 287 287 287 287 288 289 290 290 290 288
284 283 282 282 281 281 282 281 282 283 284 285 285 284 284 285 286 286 285 285 285 285 285 285 286 286 288 289 289 289 289 287 287 286 286 286 287 288 289 290 290 289
282 281 281 280 279 280 280 281 282 283 282 283 283 284 284 285 285 284 283 284 285 285 286 286 286 286 287 288 289 289 289 287 287 286 285 285 286 286 286 287 288 289

ECMWFNIL_sfc_thetae_096.txt.gz
Theta_e
316 315 314 313 312 312 311 310 307 307 306 307 309 307 308 308 310 310 310 311 311 311 312 312 312 314 315 314 314 314 313 314 314 313 314 315 316 315 315 314 314 314
311 309 307 308 308 307 307 308 308 308 307 307 307 307 307 308 307 307 307 308 309 309 311 312 313 314 315 315 315 315 315 315 314 314 313 312 314 314 314 314 314 314
305 305 305 305 305 305 306 307 307 307 307 307 306 305 306 306 305 304 305 304 305 306 307 308 310 312 313 313 313 313 313 313 313 314 313 313 313 313 313 313 312 312
303 303 303 303 304 304 303 304 304 305 305 305 304 305 305 306 303 302 303 301 302 302 303 304 305 308 309 309 309 309 310 310 311 311 310 310 311 311 311 311 311 311
301 302 302 302 302 301 302 303 303 303 303 303 303 303 303 303 302 301 300 299 300 299 300 301 301 303 305 307 306 306 306 306 307 308 307 306 307 307 308 308 308 308
301 301 301 301 301 301 302 301 301 301 301 300 300 300 299 298 297 297 297 297 297 297 297 297 298 299 300 300 301 302 304 304 304 304 303 303 304 305 306 306 305 305
299 299 299 300 300 299 300 299 299 299 299 298 295 297 296 296 295 295 295 295 295 297 296 297 297 298 298 298 298 298 299 300 302 301 301 301 301 302 302 302 302 303
297 297 297 297 297 296 296 296 295 296 295 294 294 294 294 294 294 294 294 295 295 294 295 294 294 296 294 296 296 296 297 300 300 299 299 299 299 299 300 300 300 300
295 294 294 294 294 294 293 293 293 292 291 291 292 292 293 294 294 294 294 293 292 293 293 292 292 291 291 292 293 294 296 297 297 297 297 297 296 297 297 298 298 298
294 293 293 293 293 292 291 290 290 290 290 292 292 292 293 293 292 292 291 291 290 290 290 290 290 289 289 290 291 291 293 295 295 296 296 295 295 296 296 296 296 295
292 291 291 291 291 290 290 290 290 291 291 290 291 291 290 290 291 289 289 290 292 290 291 290 290 290 290 289 289 289 290 292 294 295 295 295 295 295 293 295 294 294
290 290 290 290 290 290 290 290 290 289 289 289 288 289 287 288 288 288 288 289 288 289 289 289 289 288 288 288 288 288 288 289 290 291 292 293 293 293 294 294 293 293
290 290 290 289 289 289 289 289 288 287 286 287 286 286 286 287 287 286 287 287 288 288 289 290 290 288 289 289 288 287 287 288 288 289 289 290 291 291 292 292 292 292
289 288 288 289 287 287 287 287 286 285 285 285 285 286 286 285 286 287 287 286 288 288 290 290 289 289 289 288 287 287 288 287 287 288 288 288 288 289 289 290 290 291
288 288 288 287 286 286 285 285 285 284 284 284 284 285 287 285 286 286 287 288 288 288 289 289 290 291 291 291 290 289 288 288 288 288 287 287 287 287 288 288 288 289
287 286 286 285 285 285 285 284 284 284 284 284 285 285 285 286 286 286 286 287 287 288 288 289 290 291 290 292 292 290 288 287 287 286 286 286 286 286 287 287 288 288
285 286 285 285 285 284 284 284 285 285 285 285 285 285 285 285 285 286 286 286 286 286 287 288 289 290 290 293 293 294 290 287 286 286 285 285 285 286 286 287 287 287
285 284 284 284 284 284 284 284 284 284 284 284 284 284 285 284 284 284 284 285 285 284 285 286 287 289 291 292 293 293 292 288 286 286 286 285 285 285 286 286 287 287
283 284 283 283 283 283 283 283 283 283 283 283 283 283 282 283 283 283 283 284 284 283 284 284 284 288 290 291 291 292 292 290 287 286 285 285 285 285 285 286 286 287
283 283 283 282 282 282 282 282 282 282 281 282 282 282 281 282 281 282 282 282 283 283 283 283 283 286 290 290 291 291 291 291 286 286 285 285 285 285 285 286 286 286
282 282 282 281 281 281 281 281 280 280 280 281 281 280 281 282 282 282 282 282 282 282 282 283 284 288 289 290 290 291 291 290 286 285 284 284 284 284 285 285 286 286
281 281 280 280 280 280 279 279 279 279 279 280 280 280 279 280 280 279 281 281 281 281 282 282 282 287 288 289 289 290 291 287 284 283 283 283 284 284 284 285 285 285
280 280 279 279 278 278 277 277 278 278 278 279 279 279 279 280 280 280 281 281 281 281 281 281 282 284 287 288 289 290 289 284 283 283 283 283 283 284 284 284 284 285
279 278 277 277 275 275 276 276 277 277 277 279 278 279 279 279 280 281 281 280 281 281 280 280 282 284 286 288 289 289 288 285 284 283 283 283 283 284 284 284 284 285
278 277 276 275 275 275 275 275 275 276 278 278 278 277 278 279 280 280 280 279 278 280 281 281 281 283 286 287 288 289 287 284 283 282 282 283 283 283 284 284 284 284
277 275 274 274 273 273 274 274 275 276 276 276 276 277 277 278 278 278 278 279 279 279 280 281 281 282 283 287 288 288 288 286 284 283 282 282 283 283 283 283 284 284

ECMWFNIL_sfc_thetae_099.txt.gz
Theta_e
312 313 312 312 310 310 308 305 302 303 302 302 305 302 303 303 302 303 302 304 302 303 304 305 306 308 309 310 312 312 311 311 312 312 312 312 312 312 312 312 312 312
311 309 308 306 305 304 303 302 303 303 301 301 301 301 303 302 302 302 302 302 302 301 301 302 303 303 305 307 308 308 309 309 309 310 309 309 310 310 310 311 311 311
305 305 304 303 303 301 302 302 302 302 302 300 301 301 302 300 301 300 300 300 300 300 301 301 301 302 303 302 304 304 303 303 304 304 305 305 306 307 307 308 307 307
301 301 301 300 300 300 300 300 299 299 299 299 298 298 299 298 298 298 297 296 297 297 297 298 298 299 300 301 302 301 302 302 303 304 303 303 304 304 304 304 304 305
299 299 299 299 298 299 299 298 297 297 297 296 298 297 298 297 296 295 293 292 293 293 294 295 295 295 295 296 295 296 296 296 299 301 300 300 301 301 302 302 301 301
297 297 297 298 297 297 297 296 296 296 296 296 295 295 295 294 292 292 290 290 290 290 291 290 291 291 291 291 290 291 290 291 293 296 296 297 297 298 299 299 299 298
295 295 295 295 295 295 295 294 294 293 293 292 292 292 291 290 291 289 289 289 289 289 289 289 290 289 288 289 288 288 289 291 294 295 295 295 295 295 296 296 296 296
293 293 294 293 293 293 292 291 291 291 289 290 290 288 289 289 289 288 287 287 287 288 289 288 289 290 288 288 289 289 289 292 290 292 293 293 293 293 293 294 294 294
292 291 291 291 291 290 290 289 289 288 287 289 288 288 287 288 288 288 287 286 287 287 288 288 288 287 287 288 288 287 288 287 287 289 290 291 292 292 292 292 292 292
290 290 290 290 289 289 288 287 287 287 286 287 286 286 288 287 286 286 287 286 287 288 288 288 288 287 287 285 286 286 287 287 286 286 287 288 289 289 289 290 290 291
288 288 288 288 288 287 287 286 286 286 286 286 286 287 286 287 287 286 287 287 288 287 287 287 286 285 286 285 285 284 285 285 286 286 285 286 286 287 288 288 288 288
287 287 287 287 286 286 286 285 286 285 285 285 285 286 286 286 286 286 285 286 285 284 284 284 284 284 285 285 285 285 284 284 284 284 284 285 286 286 286 286 286 287
286 286 286 286 285 285 285 285 285 284 285 285 284 284 285 285 284 284 284 283 284 284 285 285 285 285 285 285 285 284 284 285 284 284 285 284 285 286 286 285 286 286
286 285 285 285 285 284 284 284 284 284 284 283 283 284 284 283 283 283 283 283 284 284 285 285 284 284 284 284 284 284 285 284 284 285 285 285 285 285 285 285 286 286
285 284 284 284 284 284 284 284 284 283 283 283 282 283 284 283 283 284 283 283 283 284 284 284 285 286 285 285 286 286 285 285 286 285 284 284 285 285 285 285 285 285
284 284 284 284 284 284 284 283 283 283 282 282 282 282 283 283 283 283 283 283 284 284 283 284 285 285 286 289 290 287 286 285 285 284 284 284 284 284 284 284 284 284
284 284 283 283 283 283 282 282 282 282 281 281 281 282 282 282 282 281 281 281 282 282 283 284 284 285 288 290 291 291 288 285 284 284 284 283 283 283 283 283 284 284
283 283 282 282 282 281 281 280 280 280 280 280 280 280 281 280 281 280 280 280 281 281 281 283 283 286 289 290 290 291 290 287 285 284 284 283 283 283 283 283 283 283
282 282 281 281 280 279 279 279 277 278 278 279 280 280 279 280 279 280 280 280 280 281 281 282 281 286 288 290 290 290 291 289 285 284 283 283 283 283 282 282 282 282
281 280 280 279 279 279 278 278 278 277 277 277 278 278 279 279 279 279 280 280 280 280 280 281 281 284 288 289 289 289 290 289 284 284 283 283 282 282 282 282 282 282
280 279 279 279 278 278 277 277 277 276 276 277 278 279 279 279 279 279 280 278 279 279 279 280 281 285 287 288 289 289 290 289 283 283 282 282 282 282 281 281 281 282
279 279 279 278 278 276 276 276 276 276 277 278 278 278 278 277 277 276 277 278 278 278 278 278 279 285 286 287 288 288 288 284 282 281 281 281 281 281 281 281 281 281
278 278 278 277 276 276 275 276 275 276 276 277 278 278 278 277 276 276 277 277 277 277 277 278 278 282 285 286 286 287 286 282 282 281 281 281 281 281 281 281 281 281
278 277 276 276 274 274 275 275 275 274 274 277 277 277 276 275 276 276 275 275 275 275 277 277 277 280 284 285 285 286 285 281 281 280 280 280 280 281 281 281 282 282
277 276 276 274 274 273 274 274 274 274 276 277 276 273 274 274 275 275 274 274 273 274 278 277 276 277 282 283 284 284 283 281 280 279 279 279 279 280 281 281 281 282
276 275 274 273 272 273 273 274 275 276 275 274 273 272 272 273 272 272 271 273 273 273 275 275 276 276 279 282 283 283 283 281 279 278 278 278 279 279 279 279 280 280

ECMWFNIL_sfc_thetae_102.txt.gz
Theta_e
309 309 309 308 307 306 306 305 304 303 300 299 302 299 302 299 298 300 298 299 299 300 300 300 301 301 302 303 303 305 305 304 304 304 304 305 305 305 305 304 305 305
307 306 305 305 304 303 303 305 305 304 300 299 299 299 297 297 297 298 298 298 298 298 299 299 300 300 299 300 299 300 300 301 302 303 303 302 302 303 302 303 303 303
304 303 304 304 304 303 302 301 301 299 299 297 297 297 297 295 296 296 296 296 296 296 297 297 297 297 297 296 297 298 299 301 301 302 301 301 302 301 302 302 302 302
301 301 301 300 301 299 299 299 297 297 297 297 296 295 296 294 294 294 293 293 294 294 294 294 294 294 294 293 294 293 294 295 296 296 297 298 298 297 298 298 298 298
299 298 298 298 297 297 297 297 296 296 296 294 294 293 294 293 292 291 289 289 290 289 291 291 291 291 290 291 290 291 290 292 294 294 294 294 296 296 296 295 293 293
296 296 296 296 295 296 295 295 294 294 293 293 292 291 291 290 289 289 288 288 287 287 287 286 287 286 286 287 286 287 285 287 288 289 289 290 291 291 292 291 289 288
294 294 293 294 293 293 293 292 291 291 291 290 289 289 287 287 287 287 287 286 287 285 285 286 286 285 284 285 285 285 285 286 285 287 288 288 288 287 287 288 286 287
292 292 292 292 291 291 290 289 288 288 287 287 287 284 286 286 287 285 285 286 286 286 285 285 286 287 284 284 285 285 284 285 285 285 285 285 285 285 284 284 285 287
290 289 289 288 288 288 287 287 286 286 285 287 286 285 284 285 285 285 285 285 285 285 285 285 285 284 283 283 284 284 284 284 283 284 284 285 285 285 285 284 284 284
288 287 287 287 287 286 286 285 285 285 285 285 284 285 285 284 285 285 285 285 285 285 285 285 285 284 284 282 284 284 284 284 283 283 283 284 284 284 284 284 284 284
286 286 286 286 286 285 285 285 285 285 284 284 284 285 284 284 284 284 284 285 285 285 285 285 284 284 284 284 283 282 283 283 283 283 283 283 283 283 285 284 284 284
286 285 285 285 285 285 284 284 284 284 284 283 283 284 283 283 284 284 284 284 284 284 282 284 283 283 283 284 284 283 282 283 282 282 282 283 283 284 284 283 283 284
285 285 285 285 284 284 284 284 284 283 284 283 282 283 284 284 283 283 283 283 282 283 284 284 284 283 282 282 283 282 283 283 283 283 283 283 283 284 284 283 283 283
284 284 284 284 284 284 284 283 283 283 283 282 282 283 283 283 283 283 282 282 282 282 282 281 282 282 282 282 282 282 283 283 283 283 283 283 283 283 283 283 283 283
284 284 284 283 283 283 283 283 282 282 282 282 282 283 283 282 282 282 282 282 282 282 282 282 283 283 282 283 284 284 282 283 283 283 282 282 282 282 283 283 282 282
284 283 283 283 282 282 282 282 281 281 281 282 282 282 281 281 281 281 281 281 281 282 281 282 282 282 284 289 289 286 284 283 282 282 282 282 282 282 282 282 282 282
283 282 282 282 281 281 281 281 281 281 281 281 281 280 280 280 280 281 280 280 281 281 281 281 282 282 287 289 289 290 285 282 282 282 282 281 281 281 281 281 281 281
282 281 281 281 281 280 280 279 280 280 280 279 280 279 279 279 280 280 280 280 280 280 280 281 281 285 288 288 288 288 288 284 281 281 281 280 280 280 280 280 280 280
281 281 280 280 279 279 279 279 278 278 278 278 278 278 278 279 279 279 279 279 279 279 279 280 279 284 287 287 287 288 288 286 282 280 280 279 279 279 279 279 279 279
280 280 280 279 279 278 278 278 278 277 276 276 276 278 278 278 278 278 278 278 279 278 279 279 279 283 286 286 286 287 287 285 279 279 279 278 278 278 278 278 278 278
280 279 279 278 278 277 277 277 277 276 277 276 277 277 277 277 276 276 278 277 278 278 278 278 279 284 285 285 286 286 286 283 279 279 278 277 278 278 278 278 278 279
279 279 278 278 277 277 276 276 276 276 276 276 276 276 276 276 276 276 276 276 276 275 276 277 278 282 283 284 285 285 284 279 278 278 277 277 277 277 277 278 278 278
279 278 277 276 276 276 275 275 275 275 275 275 275 275 275 276 277 276 275 275 275 275 276 278 277 280 282 283 284 284 282 278 277 277 277 277 277 277 277 278 278 278
278 277 276 276 275 275 275 275 274 273 274 274 274 274 275 277 277 277 276 274 274 276 277 276 274 277 281 282 283 283 282 277 276 276 275 276 276 277 277 277 278 279
277 276 276 275 274 274 273 273 272 272 273 273 274 274 276 276 276 275 274 274 275 275 276 273 271 275 279 281 282 282 281 276 275 274 274 275 276 277 277 277 277 278
276 275 274 274 273 272 272 273 272 272 273 273 274 274 274 274 273 273 272 273 272 270 271 271 272 272 276 280 281 282 282 278 274 275 275 276 277 277 276 276 277 276

ECMWFNIL_sfc_thetae_105.txt.gz
Theta_e
315 315 314 313 312 311 309 307 306 304 302 301 304 301 302 298 297 299 297 297 297 298 297 298 298 298 299 299 300 301 300 300 301 301 301 301 301 301 301 300 300 300
311 310 308 309 307 305 305 306 304 303 300 300 299 298 296 297 295 296 296 296 296 296 296 296 296 296 297 298 299 299 299 300 301 302 300 299 299 300 298 298 298 298
308 308 309 309 307 305 304 304 302 301 300 297 296 296 295 294 295 294 294 294 294 293 294 293 294 293 293 294 296 297 296 296 296 296 297 295 295 296 296 295 293 292
305 306 306 304 304 303 302 301 300 299 298 296 294 293 294 293 293 293 292 292 292 292 292 292 291 291 291 291 292 293 294 294 294 294 294 294 294 295 295 293 293 291
302 302 302 301 300 300 300 300 298 297 295 293 292 292 292 292 291 290 289 288 289 288 288 288 288 288 288 289 289 290 291 292 292 290 290 290 292 292 291 289 288 288
298 298 298 299 298 299 298 296 294 294 293 292 291 290 290 290 289 288 287 287 286 286 286 286 287 286 286 286 286 286 285 285 285 285 286 287 285 284 286 285 285 285
297 297 296 297 296 295 294 292 292 291 291 289 288 288 287 287 287 287 287 286 286 286 286 286 285 285 283 283 284 285 285 285 284 284 284 283 282 283 283 283 284 286
294 294 294 293 292 291 290 289 289 288 287 287 287 284 286 287 286 285 285 286 286 286 285 284 285 285 282 284 285 285 285 283 283 283 283 283 282 283 283 282 283 284
290 289 289 289 289 287 287 287 286 285 285 287 286 285 284 285 285 285 285 285 285 284 284 284 284 284 283 284 282 283 283 282 282 282 282 282 283 283 283 282 283 282
288 287 288 288 287 287 286 285 285 285 285 286 285 285 285 284 284 285 284 284 284 284 284 285 285 284 284 284 283 283 282 282 281 283 283 283 283 283 283 283 282 282
287 287 287 287 286 286 285 285 285 285 285 285 285 285 284 284 283 283 284 284 284 284 284 284 284 284 284 283 283 282 281 280 280 282 282 282 282 282 283 282 282 282
286 286 286 286 286 285 285 285 285 285 284 284 285 284 283 283 283 282 283 283 283 283 284 283 283 283 283 282 282 282 282 282 282 282 282 282 282 282 282 282 282 282
286 286 286 285 285 285 284 284 284 284 284 283 283 283 283 283 282 283 283 283 283 283 283 283 283 283 282 282 282 282 282 282 282 282 282 282 282 282 282 282 281 282
285 285 285 285 284 284 284 284 283 283 283 282 282 282 282 282 282 282 282 282 282 282 282 282 282 282 282 282 282 282 282 282 282 282 281 281 282 281 281 281 281 281
284 284 284 284 284 284 283 283 282 282 282 282 282 282 282 281 282 282 282 281 281 281 281 282 282 282 282 283 283 283 282 282 282 281 281 281 281 281 281 280 280 280
284 284 284 283 283 283 282 282 282 281 281 281 281 281 281 281 281 281 281 281 280 280 280 281 281 282 285 288 288 284 283 282 281 281 280 280 280 279 279 280 279 279
284 283 283 283 282 282 281 281 281 281 281 281 280 280 280 280 280 280 280 280 280 280 279 280 280 282 287 288 288 289 284 282 281 280 280 279 279 278 278 278 278 279
283 282 282 282 281 281 281 281 281 281 280 280 280 279 279 279 279 279 279 279 279 279 279 279 279 285 287 287 287 288 287 281 279 279 279 278 278 278 278 277 277 277
282 282 281 281 281 280 280 280 280 280 279 279 279 279 279 279 278 278 278 278 278 278 278 278 277 285 286 286 286 287 286 282 278 277 277 277 277 276 276 277 277 277
281 281 281 280 280 280 280 280 279 279 278 278 278 278 278 278 278 278 277 277 277 277 277 277 277 283 285 285 285 286 284 281 277 277 276 276 276 276 276 276 276 276
281 281 280 280 279 279 279 279 278 278 278 277 278 277 277 277 277 277 277 276 277 277 277 276 278 283 284 284 285 285 284 281 276 277 276 275 276 276 276 276 276 276
280 280 279 279 279 278 278 278 277 277 277 277 276 276 276 276 276 276 276 276 276 276 276 276 277 281 283 283 284 284 283 276 276 276 275 275 275 275 275 276 276 276
280 279 279 278 278 278 277 277 276 276 276 275 276 276 276 276 276 275 275 275 275 275 275 276 276 279 282 283 283 284 280 274 274 273 274 276 277 277 276 276 276 276
279 279 278 278 277 277 276 276 275 275 275 274 276 275 275 275 275 275 275 275 274 274 276 275 275 277 280 282 282 283 281 275 275 275 275 276 277 277 277 276 276 277
278 278 278 277 276 276 276 275 275 275 274 274 274 274 274 274 274 274 273 273 274 275 276 275 275 275 278 281 281 281 280 277 276 275 275 276 276 275 276 276 275 276
277 277 276 276 275 275 275 275 274 273 273 273 272 273 273 273 273 273 273 274 275 275 274 274 274 273 275 280 280 280 281 278 276 275 275 275 275 275 274 275 275 275

ECMWFNIL_sfc_thetae_108.txt.gz
Theta_e
317 316 317 317 318 317 316 314 313 313 310 308 308 305 305 300 301 302 300 300 298 297 296 296 297 299 299 300 300 301 301 300 300 300 299 299 298 298 297 297 296 296
316 315 313 315 312 310 311 313 311 310 307 306 305 302 300 300 299 300 299 296 295 294 294 296 297 298 299 299 299 298 298 298 296 297 296 295 295 294 293 292 292 293
314 314 314 313 311 309 309 308 306 305 305 302 301 301 299 298 297 295 295 294 293 292 292 293 294 294 295 296 296 295 294 294 293 293 292 292 293 292 292 292 291 290
311 313 313 311 310 307 306 305 303 302 300 300 299 298 297 295 294 293 292 291 292 291 290 290 290 291 292 292 292 292 292 292 292 292 291 291 291 292 291 290 290 288
309 309 309 308 307 306 305 304 302 301 301 298 295 295 294 293 292 290 289 288 289 288 289 289 289 289 289 290 290 290 290 289 289 289 288 289 290 290 288 286 284 284
305 306 305 305 304 304 304 303 301 300 297 296 295 293 292 291 290 288 288 288 287 288 287 286 285 286 286 287 287 286 285 285 285 287 286 284 283 282 283 283 283 283
302 303 303 302 303 303 302 300 298 297 297 294 291 290 289 288 288 288 288 287 287 287 287 287 285 283 285 286 285 285 284 284 283 283 282 282 281 282 282 282 282 282
301 301 301 301 300 299 297 296 295 294 291 289 288 286 288 288 287 287 286 287 287 287 287 285 285 284 284 285 284 283 282 283 282 282 282 282 282 282 281 281 281 281
298 297 297 297 296 294 293 292 290 288 288 289 287 286 286 287 286 286 286 286 286 285 285 285 284 284 284 284 283 282 282 282 282 281 281 282 281 281 281 281 281 281
294 294 294 294 293 292 290 289 288 287 287 288 286 286 286 285 285 286 286 286 285 285 285 284 283 283 283 282 282 282 282 281 281 282 282 282 281 281 281 281 280 280
291 292 292 292 291 290 289 287 287 287 287 287 286 286 285 284 284 284 285 285 285 284 284 283 283 283 283 282 282 282 281 280 281 282 282 282 282 282 282 281 281 280
291 291 291 290 289 288 287 287 286 287 286 286 286 285 284 284 284 284 284 284 284 283 283 282 282 282 283 283 282 282 282 282 282 282 283 282 282 282 281 280 281 280
290 290 289 288 287 287 286 286 286 286 286 285 285 284 284 283 283 283 283 283 283 283 282 282 282 283 283 283 283 283 283 283 282 282 282 282 281 281 281 280 280 279
289 287 287 286 286 286 285 285 285 285 284 284 284 284 283 283 283 282 282 282 282 282 282 282 283 283 283 282 282 283 283 282 282 281 281 281 280 281 280 280 280 280
286 286 285 285 285 285 284 284 284 283 283 283 283 283 282 282 282 282 281 281 281 281 281 282 283 283 283 283 283 283 282 282 281 281 280 280 280 280 279 279 278 278
285 285 285 284 284 284 284 283 283 282 282 282 282 281 281 281 281 281 281 281 280 280 281 282 283 284 286 288 286 282 281 281 280 280 280 280 279 279 278 278 279 277
285 284 284 284 284 283 282 282 282 282 281 281 280 280 280 280 281 280 280 280 280 280 280 282 283 285 288 288 286 284 281 280 280 280 279 279 278 278 277 277 277 277
284 284 284 283 282 282 282 281 281 281 280 280 280 280 280 280 280 280 280 279 279 279 280 281 283 287 288 287 286 284 282 279 279 278 278 278 278 277 276 276 276 276
283 283 283 282 282 282 281 281 281 280 280 280 280 280 280 279 279 279 279 278 278 279 279 280 282 287 287 287 285 284 283 280 278 278 278 278 278 277 277 277 276 276
283 283 282 282 281 281 281 280 280 280 280 280 279 279 279 279 278 278 278 278 278 278 278 279 281 285 286 286 284 283 282 280 277 278 278 278 277 277 277 276 275 275
283 282 282 281 281 280 280 280 280 279 279 279 279 279 278 278 278 277 277 276 276 277 277 279 281 285 285 285 284 282 281 279 277 278 277 277 277 277 277 276 276 276
282 282 281 280 280 280 280 279 279 279 278 278 278 277 277 277 276 277 276 276 275 275 276 277 280 284 284 284 283 282 280 277 277 277 277 277 277 277 277 277 276 275
282 281 280 280 280 279 279 279 278 278 277 277 277 277 277 276 276 275 275 275 274 274 274 275 277 282 284 284 283 281 278 277 277 277 277 277 276 276 276 276 276 275
282 281 280 280 279 279 279 279 278 277 277 277 277 276 275 275 275 274 274 274 274 273 273 274 273 280 283 283 282 281 278 276 276 276 277 276 276 276 276 276 276 276
281 281 280 280 279 279 278 278 277 276 276 276 276 276 275 275 274 273 272 272 272 273 275 273 273 277 282 282 282 281 278 277 276 276 275 275 275 275 276 275 274 275
280 280 279 279 279 278 277 277 275 274 274 275 274 274 274 273 272 272 271 271 271 272 272 272 273 273 278 281 281 281 280 277 276 275 274 274 275 274 273 273 273 274

ECMWFNIL_sfc_thetae_111.txt.gz
Theta_e
323 322 321 321 321 321 319 320 319 317 317 316 316 314 313 308 307 306 304 304 304 303 302 301 302 302 302 302 303 303 302 301 301 300 299 298 297 297 296 296 296 295
321 320 319 320 320 319 319 320 318 318 316 315 314 310 306 305 305 304 303 301 300 299 300 301 301 301 301 301 301 300 299 299 297 297 296 295 294 293 292 293 293 294
320 319 318 318 319 318 318 318 317 316 314 312 309 307 304 304 302 302 302 300 298 298 299 299 299 299 299 298 298 297 296 295 294 294 294 293 293 292 291 291 291 291
319 319 319 318 318 317 315 313 312 309 307 306 306 304 303 301 300 299 298 296 296 296 296 296 296 296 296 295 295 294 293 293 293 293 292 292 292 291 290 290 289 288
317 317 318 317 316 314 312 311 308 307 306 305 302 301 299 299 298 296 295 295 294 294 294 293 293 293 293 292 292 291 291 290 291 291 290 289 289 289 287 287 286 286
315 316 315 314 312 311 310 309 307 306 303 301 300 300 300 299 297 295 293 292 292 291 290 290 290 290 291 291 290 289 288 287 288 288 287 286 285 285 285 286 286 286
311 311 311 311 310 310 310 307 306 304 303 301 298 298 296 295 294 293 292 291 290 289 288 288 288 288 289 288 287 286 286 286 286 286 286 286 286 285 285 286 287 286
308 309 309 308 308 307 306 304 303 302 299 297 297 294 295 294 292 291 291 291 290 289 288 288 287 287 287 287 286 286 285 285 285 285 285 286 286 285 286 286 286 285
305 304 305 304 304 302 301 300 299 297 295 296 294 292 292 292 291 291 290 290 290 288 287 287 286 286 287 287 286 285 285 285 285 286 286 286 285 285 285 285 285 285
301 301 301 301 300 299 297 295 294 294 294 293 292 292 291 290 291 290 290 290 289 288 287 286 286 286 286 286 285 285 285 285 285 286 286 285 285 285 285 285 284 284
298 299 299 298 297 295 293 292 293 292 292 291 291 290 290 290 289 289 289 289 288 287 286 286 285 285 285 285 285 285 285 285 286 285 285 285 285 284 284 284 284 283
296 296 296 295 294 293 292 292 292 291 291 290 291 289 289 289 289 289 289 288 287 286 286 286 286 286 285 285 285 285 286 285 285 285 284 284 284 284 283 284 283 283
294 294 294 293 293 292 291 291 291 290 290 290 289 289 288 288 287 287 287 286 286 285 285 285 285 285 285 285 285 285 285 285 284 284 284 283 283 283 283 283 282 282
292 292 292 292 291 291 290 290 290 289 289 288 288 288 288 287 286 285 285 285 285 285 285 285 285 285 285 285 285 285 285 284 284 283 283 282 282 282 282 282 282 282
290 290 290 289 289 289 289 289 288 288 287 287 287 287 286 286 285 284 284 283 284 284 285 285 285 285 285 285 284 284 284 283 283 283 282 282 281 281 281 281 281 281
289 289 289 289 289 288 288 287 286 286 286 286 285 285 284 284 284 283 283 283 283 284 285 285 285 285 285 285 284 284 283 283 283 282 282 281 281 280 280 280 280 280
288 288 288 288 288 287 286 286 285 285 285 284 283 283 283 283 283 282 283 283 284 284 285 286 286 286 286 286 285 284 283 282 282 281 281 281 280 279 279 279 279 279
288 287 287 287 286 286 285 285 284 284 283 283 283 282 282 282 282 282 282 282 283 284 285 286 286 287 287 286 286 284 283 282 281 281 280 280 280 279 279 278 278 278
287 287 286 286 285 285 284 283 283 283 282 282 282 282 282 281 281 281 281 282 283 284 284 285 286 287 286 286 285 284 283 281 280 280 279 279 279 279 278 278 278 277
286 286 285 285 284 283 283 283 283 282 282 282 281 281 281 280 280 280 281 282 283 283 284 285 286 286 286 285 285 284 283 281 280 279 279 279 278 278 278 278 278 277
286 286 285 284 283 283 283 282 282 282 281 281 281 281 280 280 280 280 280 281 282 283 283 284 285 286 285 285 284 284 283 281 279 279 279 278 278 278 278 278 277 277
285 285 283 283 283 282 282 282 281 281 281 280 280 280 280 279 279 279 279 280 281 282 283 283 285 286 285 284 284 283 282 279 279 278 278 278 278 278 277 278 277 277
285 284 283 283 282 282 282 281 281 280 280 280 279 279 279 278 278 278 279 279 279 281 281 282 284 285 284 284 283 282 279 278 278 278 278 277 277 277 277 277 277 277
284 284 283 282 282 282 282 281 281 281 280 280 279 278 278 278 277 277 277 277 278 279 280 281 282 284 284 283 282 281 279 278 278 278 277 277 276 276 276 276 277 277
284 284 283 282 282 282 282 281 280 280 279 279 279 278 277 276 276 275 275 275 276 277 279 280 281 283 284 283 282 281 279 278 278 277 276 275 276 276 276 276 276 277
284 283 283 282 282 282 281 280 279 278 278 278 277 277 276 275 275 274 274 274 274 275 276 278 279 281 282 283 282 281 280 278 278 276 275 275 275 275 274 275 275 275

ECMWFNIL_sfc_thetae_114.txt.gz
Theta_e
329 330 330 330 329 329 328 327 328 328 326 324 321 321 320 321 321 321 322 320 318 315 314 312 311 311 312 313 315 314 311 307 306 306 306 305 303 303 301 302 301 300
328 329 328 329 328 327 328 328 328 328 325 323 322 321 321 319 319 320 318 316 312 311 312 311 311 312 312 312 311 309 306 305 303 304 302 302 301 301 300 300 299 299
327 328 329 328 327 327 327 327 328 327 325 323 322 321 318 316 314 315 316 311 310 309 309 310 310 311 311 310 307 305 304 303 301 301 300 299 298 298 298 298 298 298
326 327 327 328 328 327 326 326 326 326 324 321 320 317 313 314 312 312 312 307 309 307 306 306 306 306 306 305 305 304 303 300 299 299 298 298 297 297 297 297 296 295
325 325 327 327 327 327 326 325 324 323 320 319 316 312 312 310 308 307 306 306 306 304 303 302 303 303 304 305 303 300 298 297 297 297 296 296 296 296 295 295 294 293
324 325 325 325 325 325 323 323 322 320 318 315 312 310 310 309 307 305 303 301 300 300 300 300 300 301 302 299 298 297 296 295 295 296 295 294 293 293 293 293 293 292
321 322 323 324 324 323 322 322 320 316 316 312 310 309 309 308 306 305 303 300 299 298 298 297 299 298 297 296 295 294 294 295 294 294 293 292 291 291 292 292 291 291
320 320 321 322 322 321 321 319 316 314 313 311 309 307 307 306 304 303 301 299 299 297 296 297 297 295 295 294 293 293 293 293 293 293 292 291 291 290 291 292 291 289
318 317 317 317 317 316 316 313 311 310 308 307 306 303 302 302 301 300 298 297 296 296 297 296 295 294 294 293 293 292 291 292 293 292 292 291 290 290 290 290 289 289
313 313 313 313 313 312 311 309 307 305 304 305 303 302 299 296 297 298 297 297 296 295 295 294 293 293 293 293 292 292 291 291 292 292 292 291 290 289 289 289 288 288
309 308 309 309 309 307 306 303 302 301 301 300 299 299 299 296 295 296 298 297 295 294 294 293 293 292 292 292 292 292 291 291 291 291 290 290 289 289 287 288 288 287
305 305 306 306 304 302 300 298 297 297 297 297 298 297 295 296 296 297 297 296 295 294 293 293 292 292 291 291 291 291 291 291 290 290 289 288 288 287 287 288 287 287
302 303 303 302 300 298 296 296 296 295 295 296 297 297 295 294 296 296 295 295 294 293 292 291 291 291 291 290 290 290 290 289 288 288 287 287 287 286 287 286 286 286
299 297 297 297 296 295 295 295 294 294 295 295 295 295 295 295 296 295 293 293 292 291 291 291 290 290 290 290 290 290 289 288 288 286 286 285 285 285 285 285 285 285
296 295 294 294 293 293 292 293 293 293 293 293 295 294 294 295 294 291 290 290 290 290 290 290 290 290 290 289 289 288 288 287 287 286 285 285 284 284 284 284 284 284
294 293 292 292 293 293 292 291 291 292 292 291 293 294 292 290 289 289 290 289 289 288 289 289 289 289 287 288 288 288 287 287 286 286 285 284 283 283 283 283 283 283
292 291 291 292 292 292 291 290 290 290 290 290 290 289 288 288 288 288 288 288 288 288 287 288 288 287 286 288 288 288 287 286 286 285 285 284 283 282 282 281 281 281
291 290 291 291 290 289 290 290 289 288 288 288 288 287 287 287 287 287 288 288 288 287 287 287 287 286 288 288 288 287 287 286 286 285 284 284 283 282 282 281 281 281
290 290 289 289 289 288 288 288 288 287 287 286 286 286 286 286 286 286 286 287 287 287 287 286 286 287 288 288 287 287 287 286 285 285 284 283 282 282 281 281 281 280
290 289 289 288 288 287 287 287 287 287 287 287 286 285 285 285 285 285 286 286 287 287 287 286 286 287 288 287 287 286 286 285 284 284 283 282 282 281 281 281 281 280
289 289 288 287 287 287 286 287 287 286 286 285 285 285 285 284 284 285 285 286 287 287 287 286 286 287 287 287 287 286 285 284 283 283 282 281 281 281 281 280 280 280
289 289 289 288 287 286 286 286 286 285 285 285 285 285 284 284 284 285 285 286 286 286 286 285 286 287 287 287 286 286 285 283 282 282 281 281 280 280 280 280 280 279
290 289 288 288 287 286 286 286 285 285 285 285 284 284 284 283 284 284 285 285 286 286 286 285 285 286 286 286 286 285 283 282 282 281 280 280 280 280 280 279 279 279
290 289 287 286 286 286 286 286 286 286 285 285 284 283 283 283 283 284 284 285 285 286 286 285 284 285 285 286 285 284 283 282 281 280 280 279 279 279 279 279 278 279
289 288 287 287 286 286 286 286 285 284 284 284 284 284 283 283 283 283 283 284 285 285 285 285 284 284 285 285 284 283 282 282 281 280 279 278 278 278 278 278 278 279
288 287 287 286 286 286 286 285 285 284 283 283 283 283 282 282 282 282 281 282 283 284 284 285 284 284 284 284 284 283 282 282 281 280 278 278 278 277 277 277 277 278

ECMWFNIL_sfc_thetae_117.txt.gz
Theta_e
330 330 330 329 330 330 330 329 329 328 329 329 328 327 326 326 326 327 327 327 327 326 325 324 321 319 319 319 319 318 317 317 314 313 313 312 310 310 308 307 304 303
329 329 328 330 329 330 330 329 329 329 329 329 329 328 327 325 325 325 325 324 322 321 321 322 319 318 318 318 318 316 314 311 309 309 309 308 307 307 305 304 303 302
329 329 329 329 329 329 329 330 329 329 329 329 329 328 327 325 324 324 324 320 317 317 318 318 317 316 316 316 315 311 309 308 307 307 307 306 305 303 303 302 301 300
328 329 329 329 330 330 330 329 329 329 330 329 328 327 325 324 323 322 321 314 316 314 314 314 313 314 314 312 310 308 308 308 307 305 304 302 301 301 300 299 299 298
327 327 328 329 329 330 330 328 328 328 329 328 327 326 323 321 321 319 316 314 314 314 312 313 314 313 312 309 309 307 307 305 302 302 300 299 299 299 298 298 296 295
326 326 327 327 328 328 328 328 327 328 328 326 325 323 322 320 317 315 312 311 310 309 308 310 311 311 310 307 307 307 304 300 300 299 298 297 297 297 297 296 295 294
326 326 326 327 327 328 328 327 326 326 327 325 321 321 319 316 313 313 311 310 308 306 306 306 307 307 307 306 304 300 298 298 298 297 296 294 294 294 295 295 294 293
324 325 326 326 326 327 326 325 325 324 323 320 319 317 316 313 312 310 308 306 306 305 304 304 306 306 301 300 298 297 297 297 296 295 293 293 292 292 292 293 292 291
322 322 322 322 323 324 323 322 322 321 319 318 316 313 313 312 310 308 306 304 304 302 302 300 301 299 298 298 297 296 295 295 295 293 292 291 291 291 291 291 290 289
319 319 319 319 319 320 318 318 317 317 316 315 313 311 310 309 309 308 305 303 302 300 299 298 296 296 296 296 296 295 294 294 293 293 292 291 290 290 290 290 289 288
315 315 316 316 317 317 315 312 312 311 310 310 307 307 307 306 304 303 303 303 301 301 300 297 296 295 295 294 294 294 293 293 292 292 291 290 290 290 289 289 288 288
310 311 313 314 314 313 311 309 307 307 306 304 305 305 301 301 301 299 300 301 301 300 299 297 295 295 294 293 293 292 292 292 291 291 290 290 289 289 289 289 288 287
307 307 308 308 308 307 304 304 303 301 301 301 299 300 299 298 296 297 297 298 298 297 296 295 295 294 293 292 292 291 291 290 290 289 288 288 288 288 288 288 288 287
303 302 302 302 300 299 299 297 297 297 298 297 297 297 297 297 297 297 296 296 295 295 295 294 293 293 292 291 291 290 290 289 288 288 287 287 286 287 287 287 287 286
299 297 297 296 295 295 294 294 294 294 294 294 295 296 296 296 296 297 296 295 294 293 293 293 292 292 291 290 290 289 289 288 287 287 286 285 285 285 285 285 285 285
296 295 294 293 293 293 293 293 293 293 293 293 294 293 294 294 294 294 295 294 293 291 291 291 291 291 289 290 290 289 288 288 287 286 285 285 284 284 284 284 284 283
294 293 293 293 293 293 292 292 292 292 292 293 292 293 293 293 292 293 292 292 292 291 290 290 290 289 289 291 291 290 288 287 286 285 285 284 284 283 282 282 282 282
292 292 292 292 292 292 292 291 291 291 291 291 291 291 291 291 291 291 291 291 291 290 290 289 288 288 290 291 290 290 288 286 286 285 285 284 283 283 282 282 281 281
291 291 291 290 291 291 290 290 290 290 290 289 290 290 290 290 290 290 290 290 290 289 288 288 287 289 290 291 290 290 289 287 286 285 284 283 283 282 282 281 281 280
290 290 290 290 290 289 289 289 289 290 290 290 289 289 289 289 289 289 289 289 289 288 287 286 286 288 290 290 290 290 289 288 285 285 284 283 282 282 282 281 281 280
290 290 290 289 289 289 289 289 289 289 288 288 288 288 288 288 288 288 287 287 287 287 286 285 286 289 290 289 289 289 289 287 285 284 283 282 282 282 282 281 281 281
290 290 289 289 288 288 288 288 288 288 288 288 288 288 288 288 288 287 287 286 286 286 285 285 286 289 289 289 289 289 288 285 284 283 282 281 281 281 281 281 281 281
291 290 289 288 288 287 287 288 287 287 287 287 287 287 287 287 286 286 286 286 286 286 285 285 286 288 288 288 288 288 286 284 283 283 281 281 280 280 280 280 280 281
291 291 289 288 287 287 287 287 287 287 287 287 287 286 286 286 286 286 286 286 286 285 285 285 285 286 288 288 288 287 285 283 283 282 281 280 280 280 280 280 280 282
291 290 289 288 287 287 287 287 287 287 287 287 287 286 286 286 286 286 286 286 286 285 285 285 285 285 287 287 287 286 284 283 283 282 280 280 279 279 279 279 279 280
291 288 288 287 287 287 287 287 287 286 286 286 286 286 285 285 285 286 285 285 285 285 285 285 284 285 286 287 287 286 285 283 283 281 280 280 279 279 278 278 279 279

ECMWFNIL_sfc_thetae_120.txt.gz
Theta_e
327 326 326 326 326 325 325 325 326 326 325 325 325 326 327 328 328 328 327 327 327 327 325 325 324 323 322 321 320 320 319 318 317 316 315 313 309 308 306 304 302 301
327 326 324 325 325 324 325 326 326 326 325 325 326 326 326 327 327 328 327 326 325 325 324 324 323 321 320 319 318 317 316 314 312 312 312 308 307 307 305 302 301 298
326 325 325 324 325 325 325 326 326 326 325 325 325 325 326 326 327 327 327 326 324 324 323 323 321 319 318 317 317 314 312 310 309 309 308 306 305 305 303 302 299 296
325 325 325 325 325 325 325 324 325 326 325 324 324 324 325 325 326 325 326 321 324 322 322 320 318 317 316 316 314 310 310 309 308 308 307 305 304 302 301 299 297 294
323 324 324 324 324 324 323 324 324 324 324 325 323 322 323 323 324 324 324 321 320 318 318 317 316 315 315 313 310 308 307 306 306 306 305 302 300 300 298 296 294 292
321 322 322 322 322 322 322 323 324 323 323 322 323 321 322 322 322 321 320 317 313 314 314 313 313 312 311 309 308 307 306 303 302 302 300 298 296 297 296 295 292 290
319 320 320 321 320 321 321 321 322 321 323 321 318 320 321 319 319 320 318 316 312 310 311 311 311 309 308 307 305 304 302 301 300 299 297 294 293 293 292 292 290 289
318 318 319 319 319 319 320 319 320 320 320 315 316 316 318 318 318 318 314 313 311 310 309 309 310 308 306 306 304 301 298 299 298 296 294 292 291 291 290 290 289 288
312 313 314 314 315 315 315 315 317 316 316 315 314 313 314 316 315 313 312 311 309 308 309 307 307 305 305 305 302 300 298 297 296 295 293 291 290 289 289 289 287 287
308 308 308 308 310 310 310 307 312 315 315 315 314 312 313 312 313 311 309 308 306 306 306 306 304 302 301 300 300 298 296 296 294 293 291 290 289 289 288 287 287 286
304 304 306 307 309 307 308 307 309 311 312 314 312 311 311 309 307 307 307 306 305 304 304 303 301 300 299 297 296 295 295 294 293 291 289 289 288 288 287 286 286 286
305 306 309 310 311 310 309 308 308 309 310 310 311 311 308 307 306 304 304 304 303 303 302 300 298 297 296 296 294 294 293 292 291 289 288 287 287 287 286 286 285 285
304 306 308 309 309 309 307 308 308 306 308 308 307 308 306 304 302 303 302 303 302 301 300 298 296 296 295 294 293 293 292 290 288 287 287 286 286 286 285 285 285 285
301 301 301 303 304 304 305 304 304 303 303 301 300 304 303 303 301 301 299 300 301 300 299 297 296 295 294 293 293 292 291 289 288 287 286 285 285 285 285 285 285 285
299 298 298 298 297 298 298 298 298 297 295 295 296 297 299 299 300 300 297 297 296 295 296 296 295 295 294 293 291 290 289 288 287 286 285 284 284 284 284 284 284 284
295 294 293 293 294 294 293 292 292 292 292 293 294 293 294 294 295 295 296 296 296 294 293 294 295 295 291 291 291 290 288 287 286 285 285 284 283 283 283 283 283 283
293 291 290 291 292 291 290 291 292 292 292 292 292 293 293 293 294 295 294 294 294 295 294 294 294 293 290 292 292 291 288 286 285 284 284 283 283 283 282 281 281 281
290 291 291 290 290 291 291 290 290 290 290 291 291 291 292 292 293 294 294 293 292 291 291 291 291 290 292 292 292 291 289 286 285 284 283 283 282 282 281 281 280 280
290 290 290 290 290 290 289 289 289 290 290 290 291 290 290 292 292 292 291 291 292 292 291 290 289 290 292 292 291 291 290 286 284 284 283 282 282 281 281 280 280 280
289 290 290 289 289 288 288 289 289 290 289 289 289 289 290 290 289 290 290 290 290 290 290 289 289 289 292 291 291 290 290 287 284 283 282 282 281 281 281 280 280 280
289 289 289 288 288 288 288 288 289 289 289 289 289 290 290 290 290 289 290 289 289 289 288 287 288 290 291 291 291 290 290 286 283 283 282 281 281 281 280 280 280 280
289 289 289 288 288 287 287 288 288 288 288 288 288 288 288 288 288 289 288 288 288 288 287 286 287 290 290 290 290 290 289 284 283 282 281 280 280 280 280 280 280 280
289 289 288 288 287 287 287 287 287 287 287 287 288 288 288 288 288 288 288 287 287 287 286 286 286 289 290 290 290 290 286 283 282 281 280 280 280 280 280 280 280 280
290 289 288 287 287 287 287 287 287 287 287 287 288 287 287 287 287 287 286 286 286 286 286 286 286 287 289 289 289 289 285 282 282 281 280 279 279 279 279 279 280 281
289 289 288 287 287 287 287 287 287 287 286 286 287 287 286 286 286 286 286 286 286 286 285 286 286 286 288 289 289 288 285 282 282 280 279 278 278 278 279 279 280 281
289 288 287 287 287 287 287 287 286 286 286 286 286 286 286 286 286 286 286 285 285 285 285 286 285 286 287 289 288 288 286 282 281 280 279 278 279 278 277 278 279 280

ECMWFNIL_sfc_thetae_123.txt.gz
Theta_e
325 325 325 324 325 325 324 324 324 324 325 325 325 325 326 327 326 327 328 328 327 326 326 325 322 322 321 321 321 321 320 321 320 320 318 317 317 314 309 307 305 305
326 325 323 324 324 323 324 325 324 324 324 324 325 325 325 324 325 326 327 328 327 326 327 326 324 323 322 322 322 321 320 319 319 319 318 316 315 311 309 307 306 302
326 325 324 323 323 323 324 324 324 324 324 324 324 324 324 323 324 325 326 327 327 326 326 326 324 323 323 322 322 321 319 318 318 315 316 315 311 310 308 306 304 301
325 325 325 324 324 323 323 322 322 323 322 322 323 323 322 322 323 324 325 320 326 325 325 324 324 323 322 321 320 319 317 316 315 312 313 311 310 309 305 303 301 297
324 324 325 325 324 323 322 321 321 322 322 322 320 320 319 321 322 322 323 324 324 323 322 322 322 321 320 319 318 316 314 313 310 310 309 307 306 306 303 301 297 296
322 323 324 324 323 322 321 321 322 321 321 320 320 317 320 321 322 322 322 322 321 321 320 319 319 319 318 318 316 314 311 309 308 309 307 304 302 302 301 299 296 294
320 320 321 322 321 321 321 321 321 317 320 321 316 318 319 319 320 321 322 322 321 318 318 317 317 316 316 315 312 310 308 308 306 306 305 302 300 298 298 297 295 294
316 314 317 317 317 318 318 319 319 317 317 313 316 317 317 319 319 320 320 321 320 318 317 316 316 316 313 312 310 307 306 306 306 305 304 301 299 298 295 295 294 293
309 311 312 312 314 314 314 315 314 312 313 315 315 314 314 317 318 318 319 319 317 316 315 313 314 313 311 310 309 307 304 303 303 303 303 300 299 298 296 294 292 291
303 302 303 305 309 310 310 307 310 311 311 313 313 312 313 313 315 317 317 316 315 313 312 312 311 310 309 309 309 307 305 303 302 301 300 299 299 297 295 292 291 289
300 299 302 303 306 305 306 304 305 308 308 312 310 311 313 313 313 315 315 315 313 311 311 310 309 308 307 307 307 306 304 303 302 301 300 298 297 295 292 292 291 289
299 300 301 300 299 297 299 299 299 302 307 307 311 313 312 312 313 311 311 312 311 311 310 309 307 306 306 306 304 302 301 300 298 297 296 295 294 293 292 291 289 288
300 301 302 302 300 299 297 298 300 301 304 307 306 310 310 310 308 308 306 308 308 308 308 307 305 304 304 303 302 300 299 297 295 294 293 293 292 291 289 288 287 286
298 297 298 300 300 301 301 300 300 300 303 304 302 307 307 308 307 306 304 305 305 305 306 304 303 302 301 300 298 297 296 295 294 292 291 290 289 288 287 286 286 286
296 295 297 298 298 299 299 300 299 298 297 297 298 300 303 302 303 306 304 303 302 303 302 300 301 301 300 298 296 295 294 293 292 291 290 289 287 286 285 285 285 285
296 295 296 296 297 297 297 296 296 296 294 295 296 296 296 296 298 298 300 302 300 298 297 298 299 300 295 295 296 296 294 293 291 290 289 288 287 285 284 284 284 284
295 293 292 293 293 294 293 294 295 292 292 293 293 293 294 294 295 296 295 295 298 298 297 297 298 298 294 295 296 295 294 292 290 289 288 287 287 286 284 283 283 283
293 292 291 291 290 291 291 291 290 291 292 292 291 291 291 291 292 295 295 294 295 295 295 295 296 294 295 295 295 295 293 291 290 288 287 287 286 285 284 283 282 283
290 291 291 289 289 289 288 288 289 290 290 290 290 290 289 290 292 292 292 291 292 293 293 292 292 292 294 294 294 294 292 290 288 288 287 286 285 284 283 282 282 282
289 290 290 289 288 288 288 288 288 289 288 289 288 288 289 290 290 290 290 291 291 292 291 290 290 290 293 293 293 292 291 290 287 287 286 285 284 283 283 282 282 282
289 289 289 288 287 287 288 288 288 288 288 288 288 289 289 290 290 290 290 290 290 290 289 289 290 291 293 293 292 292 292 289 287 286 285 284 283 283 282 282 282 282
289 289 288 287 287 287 287 288 287 288 288 288 288 288 288 289 289 289 289 289 289 289 289 289 288 290 292 292 292 292 291 286 285 285 283 283 282 282 281 281 282 282
289 289 288 287 287 287 287 287 287 287 287 287 288 288 288 288 288 288 288 289 288 288 288 288 287 289 291 291 291 292 288 285 285 284 283 282 281 281 281 281 281 281
289 289 288 287 287 287 287 287 287 287 287 287 288 287 288 287 287 287 287 287 287 287 288 287 287 287 290 291 291 290 287 285 284 283 282 282 280 280 280 280 280 281
289 289 288 287 287 287 287 287 287 287 287 287 287 287 287 286 286 287 286 286 286 286 286 287 286 287 290 290 290 290 287 285 284 283 281 281 280 279 279 279 280 281
289 288 287 287 287 287 287 287 286 286 286 286 286 287 286 286 286 286 286 285 285 286 286 286 286 286 288 290 290 289 288 285 284 283 281 280 280 280 279 279 280 280